     2.11           OBSERVATION DATA    M (MIXED)           RINEX VERSION / TYPE
RTKCONV 2.4.2 20131103 022155 UTC                           PGM / RUN BY / DATE
log: C:\Users\nas\Documents\rtk\roof-20131102               COMMENT
format: NVS BINR                                            COMMENT
                                                            MARKER NAME
                                                            MARKER NUMBER
                                                            OBSERVER / AGENCY
                                                            REC # / TYPE / VERS
                                                            ANT # / TYPE
  -995004.0318 -3770642.2323  5030848.1896                  APPROX POSITION XYZ
        0.0000        0.0000        0.0000                  ANTENNA: DELTA H/E/N
     1     1                                                WAVELENGTH FACT L1/2
     4    C1    L1    D1    S1                              # / TYPES OF OBSERV
  2013    11     2    21    40   51.0000000     GPS         TIME OF FIRST OBS
  2013    11     2    23    20   41.0000000     GPS         TIME OF LAST OBS
                                                            END OF HEADER
 13 11  2 21 40 51.0000000  0 20G 7R 2R18R 9G 8R 1R10R17G 5R 3G15G16
                                G18G21G26G29R24G27G22G 6
  25284494.570      -59930.6091       -512.363          37.000
  19521730.058    -4607257.9321       1403.032          55.000
  21671232.810    -8296164.8331       3582.317          50.000
  23560846.801      725661.9241      -1259.177          46.000
  25356739.209    -1504948.9781       1483.559          37.000
  20439464.190     4208532.0131      -2625.648          52.000
  23595652.373    -4271629.9411       1978.957          43.000
  19268358.600    -2091204.6321        154.984          53.000
  23659689.043     6498791.5881      -3272.030          52.000
  23007117.882    -7123964.5341       4117.050          47.000
  21807362.642    -5941989.8491       2259.059          51.000
  23763307.433     -677773.7811       -403.643          46.000
  22376347.071    -6141320.7611       2590.322          52.000
  21360966.001    -3980376.6271       1563.219          51.000
  21370579.857    -2099274.3411        116.725          48.000
  22130531.177     5551704.7531      -3066.070          49.000
  21594823.375     6773425.3431      -3706.637          50.000
  24961507.548    -2521762.1121       3547.421          42.000
  25273681.024     -798963.3801       3482.137          46.000
  23940388.557    -6945437.2491       2972.455          45.000
 13 11  2 21 40 52.0000000  0 20G 7R 2R18R 9G 8R 1R10R17G 5R 3G15G16
                                G18G21G26G29R24G27G22G 6
  25284591.313      -59418.078        -512.709          37.000
  19521469.349    -4608660.641        1402.562          55.000
  21670563.115    -8299746.952        3582.204          50.000
  23561082.779      726921.463       -1259.708          46.000
  25356455.377    -1506432.190        1483.203          36.000
  20439955.052     4211157.896       -2625.957          51.000
  23595285.594    -4273608.565        1978.488          43.000
  19268331.332    -2091359.234         154.424          53.000
  23660311.421     6502063.684       -3271.982          52.000
  23006349.943    -7128081.426        4117.001          47.000
  21806932.249    -5944248.648        2258.746          52.000
  23763385.377     -677369.796        -404.002          46.000
  22375854.172    -6143910.937        2590.258          51.000
  21360669.053    -3981939.696        1563.126          51.000
  21370557.199    -2099390.655         116.121          48.000
  22131114.672     5554771.003       -3066.179          50.000
  21595519.016     6777132.177       -3706.812          50.000
  24960830.420    -2525309.522        3547.649          42.000
  25273020.513     -802445.440        3482.235          45.000
  23939822.966    -6948409.498        2972.352          44.000
 13 11  2 21 40 53.0000000  0 20G 7R 2R18R 9G 8R 1R10R17G 5R 3G15G16
                                G18G21G26G29R24G27G22G 6
  25284690.879      -58904.956        -513.413          37.000
  19521207.425    -4610062.713        1401.914          55.000
  21669893.849    -8303328.748        3581.797          50.000
  23561320.330      728181.773       -1260.553          46.000
  25356172.653    -1507914.898        1482.716          37.000
  20440446.879     4213784.259       -2626.469          51.000
  23594914.061    -4275586.469        1977.776          43.000
  19268303.456    -2091513.063         153.645          53.000
  23660933.977     6505335.886       -3272.119          52.000
  23005583.720    -7132198.104        4116.755          46.000
  21806502.785    -5946506.937        2258.187          51.000
  23763462.178     -676965.173        -404.776          46.000
  22375361.165    -6146500.861        2589.950          52.000
  21360372.892    -3983502.508        1562.832          51.000
  21370534.863    -2099506.175         115.270          48.000
  22131699.347     5557837.589       -3066.625          49.000
  21596212.262     6780839.383       -3707.235          50.000
  24960157.758    -2528856.761        3547.276          42.000
  25272354.392     -805927.477        3482.202          46.000
  23939256.554    -6951381.459        2971.938          44.000
 13 11  2 21 40 54.0000000  0 20G 7R 2R18R 9G 8R 1R10R17G 5R 3G15G16
                                G18G21G26G29R24G27G22G 6
  25284787.801      -58391.090        -514.256          37.000
  19520945.894    -4611463.913        1400.818          55.000
  21669222.081    -8306910.008        3581.078          50.000
  23561557.952      729443.082       -1261.709          46.000
  25355891.931    -1509396.903        1481.820          36.000
  20440940.386     4216411.328       -2627.302          51.000
  23594544.029    -4277563.434        1976.518          44.000
  19268275.723    -2091665.880         152.389          53.000
  23661559.000     6508608.404       -3272.599          52.000
  23004813.172    -7136314.359        4116.136          47.000
  21806074.071    -5948764.516        2257.313          51.000
  23763538.872     -676559.761        -405.629          45.000
  22374867.265    -6149090.338        2589.280          52.000
  21360076.588    -3985064.860        1562.221          51.000
  21370515.636    -2099620.711         114.144          48.000
  22132284.593     5560904.708       -3067.283          50.000
  21596905.402     6784547.173       -3707.997          50.000
  24959482.238    -2532403.662        3546.866          42.000
  25271691.844     -809409.290        3481.813          46.000
  23938690.106    -6954352.932        2971.345          45.000
 13 11  2 21 40 55.0000000  0 20G 7R 2R18R 9G 8R 1R10R17G 5R 3G15G16
                                G18G21G26G29R24G27G22G 6
  25284884.365      -57876.544        -514.436          36.000
  19520684.791    -4612864.277        1400.307          55.000
  21668552.457    -8310490.824        3580.937          50.000
  23561795.003      730705.304       -1262.307          46.000
  25355607.742    -1510878.293        1481.509          36.000
  20441432.678     4219039.010       -2627.631          51.000
  23594175.713    -4279539.570        1976.034          43.000
  19268248.670    -2091817.802         151.825          53.000
  23662180.342     6511881.168       -3272.530          51.000
  23004046.233    -7140430.295        4116.137          47.000
  21805643.856    -5951021.454        2257.039          51.000
  23763615.673     -676153.574        -406.223          45.000
  22374376.153    -6151679.454        2589.320          51.000
  21359777.282    -3986626.819        1562.181          51.000
  21370491.227    -2099734.341         113.584          48.000
  22132866.909     5563972.295       -3067.439          49.000
  21597599.613     6788255.462       -3708.212          50.000
  24958808.147    -2535950.262        3546.877          41.000
  25271030.083     -812890.938        3482.001          46.000
  23938124.587    -6957323.978        2971.186          44.000
 13 11  2 21 40 56.0000000  0 21G 7R 2R18R 9G 8R 1R10R17G 5R 3G15G16
                                G18G21G26G29G 9R24G27G22G 6
  25284984.038      -57361.487        -515.145          37.000
  19520424.118    -4614263.986        1399.446          55.000
  21667884.120    -8314071.366        3580.443          50.000
  23562034.448      731968.241       -1263.193          46.000
  25355326.234    -1512359.240        1480.860          36.000
  20441924.826     4221667.111       -2628.213          52.000
  23593807.182    -4281515.041        1975.099          43.000
  19268222.116    -2091969.029         150.951          53.000
  23662803.292     6515153.983       -3272.786          52.000
  23003277.579    -7144546.094        4115.782          47.000
  21805214.607    -5953277.941        2256.343          51.000
  23763693.010     -675746.856        -406.855          45.000
  22373881.789    -6154268.367        2588.851          52.000
  21359481.085    -3988188.567        1561.717          51.000
  21370471.678    -2099847.230         112.545          48.000
  22133451.547     5567040.150       -3067.918          49.000
  24448385.259    -3470596.9971       1246.144          35.000
  21598293.360     6791964.074       -3708.731          49.000
  24958133.341    -2539496.782        3546.542          41.000
  25270367.321     -816372.626        3481.785          46.000
  23937558.282    -6960294.775        2970.739          45.000
 13 11  2 21 40 57.0000000  0 21G 7R 2R18R 9G 8R 1R10R17G 5R 3G15G16
                                G18G21G26G29G 9R24G27G22G 6
  25285083.462      -56845.745        -515.964          36.000
  19520162.837    -4615662.885        1398.523          55.000
  21667213.674    -8317651.459        3579.851          50.000
  23562272.463      733232.068       -1264.265          46.000
  25355046.691    -1513839.585        1479.983          36.000
  20442418.297     4224295.820       -2629.018          52.000
  23593433.684    -4283489.679        1974.259          43.000
  19268194.812    -2092119.390         149.909          53.000
  23663426.992     6518427.041       -3273.170          52.000
  23002511.141    -7148661.572        4115.345          47.000
  21804784.607    -5955533.788        2255.544          51.000
  23763771.098     -675339.367        -407.871          45.000
  22373390.069    -6156856.913        2588.391          51.000
  21359184.745    -3989749.932        1561.188          51.000
  21370449.377    -2099959.229         111.576          47.000
  22134034.578     5570108.466       -3068.518          49.000
  24448143.063    -3471842.633        1245.369          35.000
  21598986.535     6795673.218       -3709.457          49.000
  24957457.213    -2543043.011        3546.155          42.000
  25269703.808     -819854.145        3481.439          46.000
  23936995.730    -6963265.173        2970.212          45.000
 13 11  2 21 40 58.0000000  0 21G 7R 2R18R 9G 8R 1R10R17G 5R 3G15G16
                                G18G21G26G29G 9R24G27G22G 6
  25285177.631      -56329.462        -516.297          36.000
  19519900.806    -4617061.139        1398.020          55.000
  21666546.052    -8321231.248        3579.729          50.000
  23562507.333      734496.641       -1264.873          46.000
  25354764.217    -1515319.466        1480.001          36.000
  20442911.304     4226924.979       -2629.253          52.000
  23593067.298    -4285463.591        1973.649          43.000
  19268168.438    -2092269.011         149.337          53.000
  23664049.585     6521700.198       -3273.120          52.000
  23001741.737    -7152776.843        4115.281          47.000
  21804356.429    -5957789.141        2255.203          51.000
  23763848.114     -674931.299        -408.287          45.000
  22372897.670    -6159445.221        2588.302          52.000
  21358888.620    -3991311.037        1561.071          51.000
  21370428.435    -2100070.440         110.946          48.000
  22134619.252     5573177.103       -3068.664          49.000
  24447903.010    -3473087.641        1244.780          35.000
  21599681.962     6799382.735       -3709.630          49.000
  24956782.657    -2546589.110        3546.167          42.000
  25269045.370     -823335.655        3481.541          46.000
  23936431.140    -6966235.284        2970.101          45.000
 13 11  2 21 40 59.0000000  0 21G 7R 2R18R 9G 8R 1R10R17G 5R 3G15G16
                                G18G21G26G29G 9R24G27G22G 6
  25285278.627      -55812.544        -516.941          36.000
  19519641.669    -4618458.750        1397.561          56.000
  21665876.213    -8324810.738        3579.596          50.000
  23562745.242      735761.956       -1265.379          46.000
  25354479.099    -1516798.850        1479.393          35.000
  20443403.416     4229554.594       -2629.582          52.000
  23592698.481    -4287436.808        1973.117          43.000
  19268138.882    -2092417.880         148.753          53.000
  23664671.462     6524973.452       -3273.041          52.000
  23000976.085    -7156891.910        4115.207          47.000
  21803926.500    -5960043.998        2254.866          52.000
  23763925.379     -674522.623        -408.540          44.000
  22372403.592    -6162033.302        2588.246          52.000
  21358589.028    -3992871.899        1561.004          51.000
  21370407.063    -2100180.878         110.340          48.000
  22135202.104     5576246.057       -3068.811          49.000
  24447665.066    -3474332.062        1244.384          35.000
  21600376.817     6803092.629       -3709.860          50.000
  24956109.460    -2550135.058        3546.137          42.000
  25268379.392     -826817.151        3481.789          46.000
  23935864.263    -6969205.100        2969.945          45.000
 13 11  2 21 41  0.0000000  0 21G 7R 2R18R 9G 8R 1R10R17G 5R 3G15G16
                                G18G21G26G29G 9R24G27G22G 6
  25285377.121      -55295.073        -517.477          36.000
  19519380.567    -4619855.630        1396.687          55.000
  21665205.911    -8328389.849        3579.097          50.000
  23562984.794      737028.105       -1266.356          46.000
  25354199.127    -1518277.716        1479.035          35.000
  20443897.423     4232184.734       -2630.206          53.000
  23592330.665    -4289409.262        1972.298          43.000
  19268114.116    -2092565.913         147.839          53.000
  23665294.948     6528246.870       -3273.335          51.000
  23000209.182    -7161006.712        4114.892          47.000
  21803499.324    -5962298.294        2254.187          51.000
  23764002.287     -674113.243        -409.591          44.000
  22371911.300    -6164621.084        2587.819          51.000
  21358293.867    -3994432.445        1560.564          51.000
  21370387.336    -2100290.484         109.368          48.000
  22135786.028     5579315.398       -3069.349          49.000
  24447423.227    -3475575.805        1243.599          34.000
  21601073.066     6806802.961       -3710.379          50.000
  24955433.081    -2553680.791        3545.678          41.000
  25267718.309     -830298.563        3481.545          46.000
  23935299.066    -6972174.569        2969.463          45.000
 13 11  2 21 41  1.0000000  0 21G 7R 2R18R 9G 8R 1R10R17G 5R 3G15G16
                                G18G21G26G29G 9R24G27G22G 6
  25285470.898      -54777.092        -518.221          37.000
  19519118.035    -4621251.862        1395.966          55.000
  21664536.287    -8331968.709        3578.756          50.000
  23563225.239      738294.994       -1267.261          46.000
  25353918.226    -1519756.135        1478.298          35.000
  20444390.609     4234815.295       -2630.741          53.000
  23591961.777    -4291381.069        1971.483          43.000
  19268087.991    -2092713.244         147.042          53.000
  23665917.148     6531520.330       -3273.410          51.000
  22999439.528    -7165121.407        4114.718          47.000
  21803070.431    -5964552.153        2253.766          51.000
  23764080.339     -673703.378        -409.760          44.000
  22371418.187    -6167208.691        2587.558          52.000
  21357997.420    -3995992.804        1560.394          50.000
  21370366.537    -2100399.379         108.654          48.000
  22136369.595     5582384.994       -3069.626          49.000
  24447184.247    -3476818.996        1242.898          34.000
  21601765.061     6810513.603       -3710.757          50.000
  24954759.133    -2557226.467        3545.708          42.000
  25267056.191     -833780.018        3481.587          46.000
  23934734.619    -6975143.827        2969.214          45.000
 13 11  2 21 41  2.0000000  0 21G 7R 2R18R 9G 8R 1R10R17G 5R 3G15G16
                                G18G21G26G29G 9R24G27G22G 6
  25285573.788      -54258.567        -518.684          36.000
  19518856.969    -4622647.371        1395.254          55.000
  21663866.734    -8335547.252        3578.464          50.000
  23563462.361      739562.655       -1267.985          46.000
  25353633.108    -1521234.080        1477.581          35.000
  20444885.295     4237446.343       -2631.227          52.000
  23591592.460    -4293352.169        1970.758          44.000
  19268062.546    -2092859.827         146.275          53.000
  23666540.097     6534793.896       -3273.522          51.000
  22998672.839    -7169235.885        4114.436          47.000
  21802640.074    -5966805.516        2253.193          51.000
  23764159.678     -673292.849        -410.764          45.000
  22370926.538    -6169796.073        2587.309          51.000
  21357700.830    -3997552.906        1560.086          50.000
  21370347.024    -2100507.497         107.832          48.000
  22136953.483     5585454.906       -3069.993          49.000
  24446945.052    -3478061.588        1242.295          34.000
  21602458.665     6814224.609       -3711.139          50.000
  24954084.899    -2560771.980        3545.543          42.000
  25266390.462     -837261.459        3481.476          45.000
  23934168.779    -6978112.816        2968.995          45.000
 13 11  2 21 41  3.0000000  0 21G 7R 2R18R 9G 8R 1R10R17G 5R 3G15G16
                                G18G21G26G29G 9R24G27G22G 6
  25285671.853      -53739.423        -519.540          36.000
  19518598.083    -4624042.209        1394.601          55.000
  21663198.862    -8339125.477        3578.140          50.000
  23563699.483      740831.095       -1268.795          46.000
  25353349.669    -1522711.550        1477.062          34.000
  20445377.193     4240077.867       -2631.689          52.000
  23591222.964    -4295322.561        1970.092          43.000
  19268035.456    -2093005.649         145.488          53.000
  23667163.905     6538067.589       -3273.730          51.000
  22997906.830    -7173350.177        4114.202          47.000
  21802211.074    -5969058.353        2252.580          51.000
  23764238.766     -672881.752        -411.201          44.000
  22370434.497    -6172383.197        2587.039          51.000
  21357403.668    -3999112.738        1559.748          50.000
  21370325.759    -2100614.832         106.950          48.000
  22137538.014     5588525.157       -3070.367          49.000
  24446705.714    -3479303.555        1241.519          34.000
  21603155.057     6817936.000       -3711.503          49.000
  24953411.023    -2564317.326        3545.116          42.000
  25265731.131     -840742.873        3481.457          45.000
  23933605.118    -6981081.496        2968.559          45.000
 13 11  2 21 41  4.0000000  0 21G 7R 2R18R 9G 8R 1R10R17G 5R 3G15G16
                                G18G21G26G29G 9R24G27G22G 6
  25285770.526      -53219.695        -519.743          37.000
  19518339.482    -4625436.352        1394.075          55.000
  21662528.809    -8342703.295        3577.930          50.000
  23563938.178      742100.367       -1269.338          46.000
  25353072.914    -1524188.477        1477.164          35.000
  20445870.235     4242709.950       -2632.057          52.000
  23590856.471    -4297292.169        1969.487          43.000
  19268007.974    -2093150.630         144.903          53.000
  23667786.462     6541341.455       -3273.690          51.000
  22997137.997    -7177464.193        4114.125          46.000
  21801782.647    -5971310.619        2252.279          51.000
  23764315.353     -672469.935        -411.795          45.000
  22369943.277    -6174969.994        2586.919          52.000
  21357107.114    -4000672.242        1559.669          51.000
  21370305.853    -2100721.308         106.355          48.000
  22138122.653     5591595.817       -3070.540          49.000
  24446474.239    -3480544.829        1241.078          34.000
  21603850.269     6821647.861       -3711.763          49.000
  24952734.895    -2567862.476        3545.414          42.000
  25265068.012     -844224.179        3481.566          46.000
  23933039.993    -6984049.796        2968.401          45.000
 13 11  2 21 41  5.0000000  0 21G 7R 2R18R 9G 8R 1R10R17G 5R 3G15G16
                                G18G21G26G29G 9R24G27G22G 6
  25285868.019      -52699.442        -520.492          37.000
  19518078.880    -4626829.925        1393.255          55.000
  21661859.686    -8346280.867        3577.455          49.000
  23564180.017      743370.320       -1270.301          46.000
  25352790.512    -1525664.934        1476.159          35.000
  20446364.135     4245342.431       -2632.703          52.000
  23590484.688    -4299261.161        1968.754          43.000
  19267984.101    -2093294.925         143.966          53.000
  23668409.340     6544615.359       -3273.909          51.000
  22996372.346    -7181578.094        4113.777          46.000
  21801354.147    -5973562.451        2251.607          51.000
  23764396.192     -672057.591        -412.630          45.000
  22369450.914    -6177556.630        2586.528          52.000
  21356809.237    -4002231.557        1559.188          51.000
  21370284.947    -2100827.084         105.444          48.000
  22138707.149     5594666.732       -3071.085          49.000
  24446237.975    -3481785.569        1240.342          33.000
  21604545.338     6825360.041       -3712.277          49.000
  24952062.305    -2571407.523        3544.999          42.000
  25264404.177     -847705.541        3481.336          46.000
  23932474.760    -6987017.871        2967.972          45.000
 13 11  2 21 41  6.0000000  0 21G 7R 2R18R 9G 8R 1R10R17G 5R 3G15G16
                                G18G21G26G29G 9R24G27G22G 6
  25285967.335      -52178.460        -521.189          37.000
  19517819.243    -4628222.614        1392.390          55.000
  21661190.705    -8349857.934        3576.990          49.000
  23564415.245      744641.244       -1271.256          46.000
  25352507.538    -1527140.744        1475.406          34.000
  20446857.749     4247975.575       -2633.308          52.000
  23590117.015    -4301229.230        1967.763          43.000
  19267955.689    -2093438.256         143.028          53.000
  23669031.254     6547889.558       -3274.154          51.000
  22995603.156    -7185691.597        4113.438          46.000
  21800926.184    -5975813.599        2251.006          51.000
  23764471.957     -671644.451        -413.354          45.000
  22368957.479    -6180142.840        2586.157          51.000
  21356513.219    -4003790.440        1558.853          51.000
  21370266.291    -2100931.893         104.537          48.000
  22139292.216     5597738.157       -3071.518          49.000
  24446000.603    -3483025.496        1239.426          33.000
  21605239.943     6829072.795       -3712.860          49.000
  24951387.106    -2574952.242        3544.785          42.000
  25263742.309     -851186.683        3481.190          46.000
  23931910.920    -6989985.471        2967.585          45.000
 13 11  2 21 41  7.0000000  0 21G 7R 2R18R 9G 8R 1R10R17G 5R 3G15G16
                                G18G21G26G29G 9R24G27G22G 6
  25286069.510      -51656.928        -521.417          37.000
  19517559.142    -4629614.578        1391.740          55.000
  21660520.867    -8353434.684        3576.740          49.000
  23564656.548      745912.941       -1271.911          47.000
  25352227.638    -1528616.083        1475.277          34.000
  20447351.220     4250609.218       -2633.800          52.000
  23589747.376    -4303196.601        1967.167          43.000
  19267930.422    -2093580.820         142.339          53.000
  23669655.204     6551163.883       -3274.312          51.000
  22994834.466    -7189804.893        4113.305          46.000
  21800496.184    -5978064.229        2250.488          51.000
  23764550.330     -671230.686        -414.019          44.000
  22368466.546    -6182728.805        2585.977          51.000
  21356214.842    -4005349.050        1558.598          51.000
  21370247.422    -2101035.911         103.700          48.000
  22139876.462     5600809.916       -3071.822          49.000
  24445762.766    -3484264.836        1239.196          33.000
  21605934.548     6832785.928       -3713.175          49.000
  24950711.263    -2578496.803        3544.570          42.000
  25263079.368     -854667.801        3481.207          46.000
  23931346.402    -6992952.789        2967.284          45.000
 13 11  2 21 41  8.0000000  0 21G 7R 2R18R 9G 8R 1R10R17G 5R 3G15G16
                                G18G21G26G29G 9R24G27G22G 6
  25286168.647      -51134.664        -522.409          37.000
  19517299.576    -4631005.734        1390.970          55.000
  21659851.744    -8357011.003        3576.366          49.000
  23564894.814      747185.514       -1272.782          46.000
  25351945.021    -1530090.806        1474.409          34.000
  20447844.262     4253243.441       -2634.305          52.000
  23589378.417    -4305163.138        1966.365          43.000
  19267905.263    -2093722.525         141.496          53.000
  23670277.904     6554438.404       -3274.438          51.000
  22994063.954    -7193917.854        4113.001          46.000
  21800069.007    -5980314.253        2249.916          51.000
  23764627.989     -670816.209        -414.737          44.000
  22367974.218    -6185314.419        2585.659          51.000
  21355920.182    -4006907.295        1558.248          51.000
  21370225.729    -2101139.043         102.878          48.000
  22140460.922     5603882.106       -3072.203          50.000
  24445531.076    -3485503.406        1238.013          33.000
  21606633.834     6836499.534       -3713.640          49.000
  24950036.672    -2582041.106        3544.252          42.000
  25262416.892     -858148.785        3481.132          46.000
  23930781.670    -6995919.732        2966.944          45.000
 13 11  2 21 41  9.0000000  0 21G 7R 2R18R 9G 8R 1R10R17G 5R 3G15G16
                                G18G21G26G29G 9R24G27G22G 6
  25286269.572      -50611.884        -522.868          37.000
  19517039.296    -4632396.229        1390.234          55.000
  21659184.443    -8360587.013        3575.899          49.000
  23565134.973      748458.843       -1273.648          46.000
  25351666.193    -1531565.073        1474.079          34.000
  20448336.732     4255878.137       -2634.900          52.000
  23589015.604    -4307128.976        1965.556          43.000
  19267879.031    -2093863.495         140.667          53.000
  23670901.461     6557713.032       -3274.602          51.000
  22993298.052    -7198030.628        4112.767          46.000
  21799640.079    -5982563.770        2249.338          51.000
  23764710.401     -670401.124        -415.337          45.000
  22367481.534    -6187899.789        2585.363          51.000
  21355622.913    -4008465.289        1557.934          51.000
  21370207.395    -2101241.403         102.040          48.000
  22141046.776     5606954.622       -3072.597          50.000
  24445296.920    -3486741.409        1237.808          33.000
  21607328.832     6840213.501       -3714.068          49.000
  24949363.010    -2585585.286        3544.163          42.000
  25261754.630     -861629.750        3480.998          46.000
  23930218.545    -6998886.371        2966.562          45.000
 13 11  2 21 41 10.0000000  0 21G 7R 2R18R 9G 8R 1R10R17G 5R 3G15G16
                                G18G21G26G29G 9R24G27G22G 6
  25286368.101      -50088.421        -523.707          38.000
  19516780.303    -4633785.993        1389.501          55.000
  21658514.748    -8364162.614        3575.496          49.000
  23565372.774      749733.024       -1274.585          46.000
  25351389.759    -1533038.759        1473.484          34.000
  20448831.132     4258513.394       -2635.445          52.000
  23588645.894    -4309094.021        1964.772          43.000
  19267855.265    -2094003.594         139.750          53.000
  23671524.947     6560987.864       -3274.878          51.000
  22992531.756    -7202143.128        4112.469          46.000
  21799213.010    -5984812.689        2248.653          51.000
  23764787.166     -669985.348        -416.002          45.000
  22366989.885    -6190484.829        2584.960          51.000
  21355326.144    -4010022.935        1557.557          51.000
  21370187.132    -2101342.894         101.182          48.000
  22141631.379     5610027.556       -3073.051          50.000
  24445061.907    -3487978.690        1237.167          33.000
  21608024.902     6843927.933       -3714.565          50.000
  24948688.847    -2589129.197        3543.924          42.000
  25261092.762     -865110.603        3480.898          46.000
  23929652.669    -7001852.609        2966.102          45.000
 13 11  2 21 41 11.0000000  0 21G 7R 2R18R 9G 8R 1R10R17G 5R 3G15G16
                                G18G21G26G29G 9R24G27G22G 6
  25286467.203      -49564.324        -524.208          38.000
  19516520.487    -4635175.003        1388.808          55.000
  21657845.946    -8367737.783        3575.113          49.000
  23565613.363      751008.079       -1275.292          46.000
  25351108.143    -1534511.853        1472.988          34.000
  20449324.317     4261149.230       -2635.942          52.000
  23588279.043    -4311058.240        1963.949          42.000
  19267831.392    -2094142.810         138.980          53.000
  23672148.576     6564262.901       -3274.980          51.000
  22991764.782    -7206255.344        4112.264          46.000
  21798784.010    -5987061.010        2248.191          51.000
  23764867.077     -669568.852        -416.668          44.000
  22366496.772    -6193069.526        2584.690          51.000
  21355029.518    -4011580.222        1557.298          51.000
  21370166.046    -2101443.502         100.372          48.000
  22142217.089     5613100.918       -3073.396          50.000
  24444824.606    -3489215.256        1236.341          32.000
  21608724.402     6847642.845       -3714.960          50.000
  24948014.220    -2592672.865        3543.645          42.000
  25260430.750     -868591.323        3480.793          45.000
  23929089.295    -7004818.475        2965.829          45.000
 13 11  2 21 41 12.0000000  0 21G 7R 2R18R 9G 8R 1R10R17G 5R 3G15G16
                                G18G21G26G29G 9R24G27G22G 6
  25286570.951      -49039.413        -525.207          38.000
  19516261.958    -4636563.081        1387.760          55.000
  21657175.429    -8371312.403        3574.538          49.000
  23565851.950      752284.154       -1276.448          46.000
  25350825.813    -1535984.215        1472.104          34.000
  20449818.682     4263785.757       -2636.698          52.000
  23587909.797    -4313021.540        1962.969          42.000
  19267804.196    -2094281.036         137.929          53.000
  23672770.740     6567538.269       -3275.370          51.000
  22990998.451    -7210367.123        4111.750          46.000
  21798355.154    -5989308.596        2247.378          51.000
  23764946.344     -669151.503        -417.520          44.000
  22366005.123    -6195653.761        2584.144          51.000
  21354733.786    -4013137.026        1556.736          51.000
  21370148.677    -2101543.098          99.261          48.000
  22142800.870     5616174.831       -3074.024          50.000
  24444587.449    -3490450.968        1235.405          33.000
  21609418.936     6851358.362       -3715.675          50.000
  24947339.021    -2596216.155        3543.214          42.000
  25259767.881     -872071.808        3480.557          46.000
  23928524.741    -7007783.804        2965.194          45.000
 13 11  2 21 41 13.0000000  0 21G 7R 2R18R 9G 8R 1R10R17G 5R 3G15G16
                                G18G21G26G29G 9R24G27G22G 6
  25286670.445      -48513.958        -525.801          38.000
  19516002.929    -4637950.441        1386.976          55.000
  21656505.662    -8374886.699        3574.073          49.000
  23566094.254      753560.992       -1277.228          46.000
  25350548.164    -1537456.141        1471.598          34.000
  20450313.797     4266422.746       -2637.274          52.000
  23587541.660    -4314984.131        1962.148          42.000
  19267778.464    -2094418.528         137.114          53.000
  23673395.298     6570813.738       -3275.593          51.000
  22990232.549    -7214478.682        4111.431          46.000
  21797929.692    -5991555.690        2246.789          51.000
  23765025.075     -668733.559        -418.316          44.000
  22365514.154    -6198237.756        2583.799          51.000
  21354438.804    -4014693.578        1556.363          51.000
  21370129.236    -2101641.928          98.375          48.000
  22143385.759     5619249.062       -3074.475          50.000
  24444353.400    -3491686.087        1234.621          33.000
  21610118.222     6855074.249       -3716.077          50.000
  24946666.003    -2599759.314        3543.097          42.000
  25259106.334     -875552.261        3480.390          46.000
  23927959.508    -7010748.833        2964.755          45.000
 13 11  2 21 41 14.0000000  0 21G 7R 2R18R 9G 8R 1R10R17G 5R 3G15G16
                                G18G21G26G29G 9R24G27G22G 6
  25286770.941      -47987.777        -526.716          39.000
  19515743.006    -4639336.988        1385.989          55.000
  21655838.790    -8378460.554        3573.469          49.000
  23566333.163      754838.720       -1278.289          46.000
  25350266.906    -1538927.422        1470.578          34.000
  20450806.696     4269060.314       -2638.009          52.000
  23587173.987    -4316945.886        1961.195          43.000
  19267755.234    -2094555.129         135.998          53.000
  23674018.105     6574089.436       -3275.927          51.000
  22989466.754    -7218589.887        4110.843          47.000
  21797499.799    -5993802.158        2246.012          51.000
  23765106.128     -668314.888        -419.204          44.000
  22365021.791    -6200821.388        2583.328          51.000
  21354142.107    -4016249.741        1555.826          50.000
  21370112.546    -2101739.853          97.379          48.000
  22143971.113     5622323.747       -3075.071          50.000
  24444112.776    -3492920.501        1233.909          32.000
  21610810.861     6858790.653       -3716.817          50.000
  24945989.946    -2603302.185        3542.582          42.000
  25258444.715     -879032.577        3480.091          45.000
  23927395.919    -7013713.463        2964.316          46.000
 13 11  2 21 41 15.0000000  0 21G 7R 2R18R 9G 8R 1R10R17G 5R 3G15G16
                                G18G21G26G29G 9R24G27G22G 6
  25286872.365      -47460.745        -527.125          39.000
  19515484.763    -4640722.543        1385.390          55.000
  21655169.810    -8382033.742        3573.154          49.000
  23566571.964      756117.543       -1279.046          46.000
  25349985.218    -1540397.901        1470.402          34.000
  20451303.526     4271698.699       -2638.456          52.000
  23586810.781    -4318906.590        1960.492          42.000
  19267730.825    -2094690.609         135.214          53.000
  23674640.519     6577365.586       -3276.035          51.000
  22988702.925    -7222700.544        4110.711          47.000
  21797072.765    -5996047.772        2245.481          51.000
  23765186.825     -667895.255        -419.827          45.000
  22364530.107    -6203404.434        2583.062          51.000
  21353845.160    -4017805.286        1555.538          51.000
  21370092.676    -2101836.658          96.528          48.000
  22144554.786     5625399.099       -3075.403          50.000
  24443879.085    -3494153.913        1233.219          32.000
  21611505.930     6862507.781       -3717.180          50.000
  24945317.928    -2606844.572        3542.426          42.000
  25257780.202     -882512.517        3480.026          46.000
  23926833.044    -7016677.448        2964.049          46.000
 13 11  2 21 41 16.0000000  0 21G 7R 2R18R 9G 8R 1R10R17G 5R 3G15G16
                                G18G21G26G29G 9R24G27G22G 6
  25286971.109      -46933.299        -527.677          39.000
  19515225.555    -4642107.622        1384.861          56.000
  21654502.259    -8385606.789        3573.015          49.000
  23566809.694      757396.963       -1279.674          46.000
  25349704.317    -1541868.027        1469.944          34.000
  20451797.497     4274337.386       -2638.830          52.000
  23586444.930    -4320866.738        1959.884          43.000
  19267707.238    -2094825.483         134.615          53.000
  23675263.504     6580641.681       -3276.101          51.000
  22987936.165    -7226811.193        4110.651          47.000
  21796644.766    -5998293.042        2245.085          51.000
  23765267.414     -667475.178        -420.316          45.000
  22364039.281    -6205987.403        2582.884          51.000
  21353549.820    -4019360.741        1555.462          51.000
  21370074.878    -2101932.854          95.915          48.000
  22145140.176     5628474.614       -3075.607          49.000
  24443643.035    -3495386.866        1232.645          31.000
  21612201.893     6866225.122       -3717.405          50.000
  24944643.765    -2610386.984        3542.588          42.000
  25257117.905     -885992.606        3480.162          45.000
  23926268.741    -7019641.286        2963.825          46.000
 13 11  2 21 41 17.0000000  0 21G 7R 2R18R 9G 8R 1R10R17G 5R 3G15G16
                                G18G21G26G29G 9R24G27G22G 6
  25287072.177      -46405.399        -528.372          39.000
  19514967.240    -4643492.138        1384.194          55.000
  21653831.956    -8389179.598        3572.604          49.000
  23567051.855      758677.085       -1280.512          46.000
  25349424.774    -1543337.791        1469.460          33.000
  20452291.040     4276976.465       -2639.320          52.000
  23586078.901    -4322826.281        1959.168          43.000
  19267682.972    -2094959.692         133.849          53.000
  23675887.919     6583917.782       -3276.203          51.000
  22987167.833    -7230921.770        4110.544          47.000
  21796218.018    -6000537.908        2244.618          51.000
  23765347.932     -667054.585        -421.013          44.000
  22363548.097    -6208570.235        2582.720          51.000
  21353253.838    -4020916.023        1555.111          51.000
  21370056.902    -2102028.364          95.117          48.000
  22145725.744     5631550.361       -3075.910          49.000
  24443408.201    -3496619.336        1232.075          31.000
  21612895.962     6869942.726       -3717.754          49.000
  24943969.710    -2613929.310        3542.258          42.000
  25256456.358     -889472.761        3480.182          45.000
  23925703.937    -7022604.942        2963.512          45.000
 13 11  2 21 41 18.0000000  0 21G 7R 2R18R 9G 8R 1R10R17G 5R 3G15G16
                                G18G21G26G29G 9R24G27G22G 6
  25287172.779      -45876.748        -528.691          39.000
  19514707.996    -4644875.768        1383.396          55.000
  21653165.120    -8392751.889        3572.212          49.000
  23567292.765      759958.204       -1281.399          46.000
  25349146.804    -1544806.868        1469.082          34.000
  20452785.511     4279616.229       -2639.858          52.000
  23585712.622    -4324784.908        1958.451          43.000
  19267658.777    -2095092.968         133.052          53.000
  23676510.691     6587194.187       -3276.354          51.000
  22986399.143    -7235031.948        4110.237          47.000
  21795791.556    -6002782.065        2244.063          51.000
  23765427.842     -666633.202        -421.554          45.000
  22363056.520    -6211152.616        2582.388          51.000
  21352959.178    -4022470.859        1554.839          51.000
  21370038.211    -2102122.888          94.282          48.000
  22146311.276     5634626.629       -3076.356          49.000
  24443175.689    -3497851.006        1231.572          31.000
  21613591.638     6873660.918       -3718.271          49.000
  24943295.619    -2617471.303        3542.070          42.000
  25255793.381     -892952.692        3480.001          46.000
  23925141.491    -7025568.111        2963.118          45.000
 13 11  2 21 41 19.0000000  0 21G 7R 2R18R 9G 8R 1R10R17G 5R 3G15G16
                                G18G21G26G29G 9R24G27G22G 6
  25287272.882      -45347.435        -529.346          39.000
  19514450.111    -4646258.569        1382.783          55.000
  21652496.318    -8396323.742        3572.012          49.000
  23567531.567      761240.230       -1282.123          46.000
  25348870.656    -1546275.338        1468.626          34.000
  20453279.661     4282256.596       -2640.275          52.000
  23585344.342    -4326742.698        1957.773          43.000
  19267635.941    -2095225.383         132.355          53.000
  23677136.785     6590470.807       -3276.405          52.000
  22985632.562    -7239141.787        4110.076          46.000
  21795363.736    -6005025.614        2243.680          51.000
  23765508.825     -666211.085        -422.117          45.000
  22362565.194    -6213734.661        2582.228          52.000
  21352663.874    -4024025.327        1554.651          51.000
  21370020.914    -2102216.518          93.496          48.000
  22146896.200     5637703.330       -3076.533          49.000
  24442943.106    -3499081.902        1230.713          32.000
  21614285.957     6877379.595       -3718.566          50.000
  24942622.850    -2621013.033        3542.006          42.000
  25255131.977     -896432.496        3480.062          46.000
  23924577.402    -7028530.883        2962.892          46.000
 13 11  2 21 41 20.0000000  0 21G 7R 2R18R 9G 8R 1R10R17G 5R 3G15G16
                                G18G21G26G29G 9R24G27G22G 6
  25287373.734      -44817.865        -529.794          39.000
  19514193.083    -4647641.004        1382.243          55.000
  21651828.517    -8399895.590        3571.809          49.000
  23567773.906      762522.678       -1282.672          46.000
  25348591.077    -1547743.646        1468.109          34.000
  20453774.383     4284897.115       -2640.558          52.000
  23584978.598    -4328700.098        1957.129          43.000
  19267610.388    -2095357.364         131.783          53.000
  23677757.126     6593747.219       -3276.390          51.000
  22984866.231    -7243251.740        4109.995          46.000
  21794936.988    -6007268.971        2243.221          51.000
  23765589.414     -665788.673        -422.570          45.000
  22362073.545    -6216316.773        2582.049          52.000
  21352367.641    -4025579.848        1554.513          51.000
  21370003.795    -2102309.706          92.912          49.000
  22147482.554     5640780.051       -3076.808          49.000
  24442706.341    -3500312.528        1230.343          31.000
  21614986.887     6881098.345       -3718.769          49.000
  24941949.009    -2624554.940        3542.033          42.000
  25254471.038     -899912.594        3480.203          46.000
  23924014.742    -7031493.701        2962.755          45.000
 13 11  2 21 41 21.0000000  0 21G 7R 2R18R 9G 8R 1R10R17G 5R 3G15G16
                                G18G21G26G29G 9R24G27G22G 6
  25287474.480      -44287.692        -530.489          39.000
  19513934.160    -4649022.741        1381.455          55.000
  21651159.215    -8403467.065        3571.337          49.000
  23568013.315      763805.923       -1283.579          45.000
  25348312.070    -1549211.430        1467.791          34.000
  20454269.927     4287538.169       -2641.250          52.000
  23584613.785    -4330656.739        1956.344          43.000
  19267588.159    -2095488.500         130.795          53.000
  23678381.935     6597023.780       -3276.576          51.000
  22984098.757    -7247361.432        4109.691          46.000
  21794509.204    -6009511.772        2242.624          51.000
  23765668.502     -665365.606        -423.295          45.000
  22361581.790    -6218898.594        2581.740          51.000
  21352070.944    -4027134.066        1554.159          51.000
  21369984.068    -2102402.070          92.056          48.000
  22148066.228     5643857.164       -3077.238          49.000
  24442477.010    -3501542.486        1229.738          31.000
  21615677.990     6884817.534       -3719.323          49.000
  24941275.705    -2628096.624        3541.649          42.000
  25253806.596     -903392.619        3480.098          45.000
  23923449.009    -7034456.194        2962.415          45.000
 13 11  2 21 41 22.0000000  0 21G 7R 2R18R 9G 8R 1R10R17G 5R 3G15G16
                                G18G21G26G29G 9R24G27G22G 6
  25287576.262      -43756.796        -531.284          39.000
  19513675.596    -4650403.653        1380.436          55.000
  21650490.055    -8407038.050        3570.721          49.000
  23568256.120      765090.081       -1284.618          45.000
  25348033.028    -1550678.531        1466.743          34.000
  20454766.471     4290179.856       -2642.020          52.000
  23584248.613    -4332612.483        1955.225          43.000
  19267565.037    -2095618.699         129.693          53.000
  23679005.063     6600300.623       -3277.014          51.000
  22983331.676    -7251470.762        4109.145          47.000
  21794082.134    -6011753.896        2241.791          51.000
  23765748.913     -664941.762        -424.158          45.000
  22361090.856    -6221479.998        2581.163          51.000
  21351775.355    -4028687.850        1553.549          51.000
  21369967.914    -2102493.475          90.899          48.000
  22148651.439     5646934.773       -3077.933          49.000
  24442248.251    -3502771.656        1228.741          31.000
  21616373.810     6888537.271       -3720.037          49.000
  24940602.721    -2631638.003        3541.199          42.000
  25253144.477     -906872.440        3479.693          45.000
  23922886.778    -7037418.221        2961.832          45.000
 13 11  2 21 41 23.0000000  0 21G 7R 2R18R 9G 8R 1R10R17G 5R 3G15G16
                                G18G21G26G29G 9R24G27G22G 6
  25287675.506      -43225.257        -531.640          40.000
  19513417.210    -4651783.828        1380.013          55.000
  21649824.541    -8410608.642        3570.563          49.000
  23568498.710      766375.071       -1285.200          45.000
  25347752.377    -1552145.112        1466.580          34.000
  20455259.549     4292822.073       -2642.293          52.000
  23583883.263    -4334567.457        1954.766          43.000
  19267539.734    -2095748.073         129.178          53.000
  23679630.086     6603577.635       -3276.909          52.000
  22982565.488    -7255579.824        4109.109          47.000
  21793655.851    -6013995.449        2241.435          51.000
  23765832.218     -664517.232        -424.694          45.000
  22360598.422    -6224061.089        2581.087          51.000
  21351481.159    -4030241.318        1553.459          51.000
  21369951.046    -2102584.040          90.297          48.000
  22149238.615     5650012.767       -3078.037          49.000
  24442018.062    -3504000.142        1228.329          31.000
  21617071.738     6892257.457       -3720.230          49.000
  24939929.309    -2635179.154        3541.186          42.000
  25252481.179     -910352.175        3479.838          45.000
  23922324.476    -7040379.867        2961.645          46.000
 13 11  2 21 41 24.0000000  0 21G 7R 2R18R 9G 8R 1R10R17G 5R 3G15G16
                                G18G21G26G29G 9R24G27G22G 6
  25287777.181      -42693.077        -532.297          39.000
  19513160.039    -4653163.206        1379.149          55.000
  21649155.632    -8414178.833        3570.144          49.000
  23568738.619      767660.906       -1286.088          45.000
  25347476.122    -1553611.085        1465.722          34.000
  20455755.986     4295464.824       -2642.856          52.000
  23583515.769    -4336521.632        1953.982          43.000
  19267517.255    -2095876.624         128.301          53.000
  23680252.571     6606854.825       -3277.115          52.000
  22981797.048    -7259688.612        4108.827          47.000
  21793229.567    -6016236.419        2240.846          51.000
  23765913.272     -664092.020        -425.385          46.000
  22360108.453    -6226641.873        2580.798          52.000
  21351184.533    -4031794.448        1553.121          51.000
  21369933.391    -2102673.744          89.429          49.000
  22149823.682     5653091.168       -3078.480          49.000
  24441780.011    -3505227.930        1227.168          31.000
  21617768.701     6895978.089       -3720.678          49.000
  24939252.681    -2638720.088        3540.988          42.000
  25251819.525     -913831.812        3479.737          45.000
  23921758.849    -7043341.124        2961.238          46.000
 13 11  2 21 41 25.0000000  0 21G 7R 2R18R 9G 8R 1R10R17G 5R 3G15G16
                                G18G21G26G29G 9R24G27G22G 6
  25287878.070      -42160.398        -532.547          40.000
  19512902.117    -4654541.936        1378.677          55.000
  21648486.759    -8417748.770        3570.074          49.000
  23568982.638      768947.479       -1286.672          46.000
  25347198.401    -1555076.680        1465.642          34.000
  20456252.352     4298107.987       -2643.101          53.000
  23583148.846    -4338475.141        1953.425          43.000
  19267493.525    -2096004.466         127.752          53.000
  23680878.237     6610132.079       -3277.014          52.000
  22981032.754    -7263797.254        4108.845          46.000
  21792802.926    -6018476.943        2240.631          51.000
  23765995.077     -663666.258        -425.730          46.000
  22359617.663    -6229222.470        2580.785          52.000
  21350889.087    -4033347.386        1553.150          51.000
  21369917.381    -2102762.717          88.833          49.000
  22150410.966     5656169.833       -3078.527          49.000
  24441541.567    -3506455.220        1227.426          31.000
  21618468.595     6899699.044       -3720.878          49.000
  24938580.984    -2642260.921        3541.075          42.000
  25251158.157     -917311.474        3479.916          45.000
  23921193.938    -7046302.161        2961.290          46.000
 13 11  2 21 41 26.0000000  0 21G 7R 2R18R 9G 8R 1R10R17G 5R 3G15G16
                                G18G21G26G29G 9R24G27G22G 6
  25287979.744      -41627.173        -533.635          39.000
  19512645.947    -4655920.018        1377.677          55.000
  21647820.388    -8421318.425        3569.417          49.000
  23569222.941      770234.787       -1287.787          45.000
  25346920.431    -1556541.792        1464.871          34.000
  20456748.110     4300751.583       -2643.945          53.000
  23582783.425    -4340428.008        1952.428          43.000
  19267470.366    -2096131.584         126.652          53.000
  23681499.436     6613409.399       -3277.419          52.000
  22980266.781    -7267905.752        4108.325          47.000
  21792378.215    -6020716.994        2239.791          51.000
  23766074.844     -663239.915        -426.650          46.000
  22359125.943    -6231802.850        2580.180          51.000
  21350592.354    -4034900.089        1552.541          51.000
  21369900.512    -2102850.957          87.838          49.000
  22150996.748     5659248.795       -3079.197          49.000
  24441306.160    -3507681.837        1226.452          31.000
  21619163.271     6903420.334       -3721.581          49.000
  24937904.606    -2645801.636        3540.611          43.000
  25250493.965     -920791.148        3479.582          45.000
  23920632.100    -7049262.940        2960.596          46.000
 13 11  2 21 41 27.0000000  0 21G 7R 2R18R 9G 8R 1R10R17G 5R 3G15G16
                                G18G21G26G29G 9R24G27G22G 6
  25288077.667      -41093.125        -534.469          39.000
  19512387.275    -4657297.207        1376.768          55.000
  21647151.371    -8424887.506        3568.772          49.000
  23569467.997      771523.131       -1288.851          45.000
  25346640.638    -1558006.191        1464.118          34.000
  20457241.617     4303395.910       -2644.671          53.000
  23582419.754    -4342379.909        1951.476          43.000
  19267447.566    -2096257.686         125.612          53.000
  23682122.743     6616687.080       -3277.878          51.000
  22979499.842    -7272013.788        4107.840          47.000
  21791950.109    -6022956.286        2238.931          51.000
  23766156.863     -662812.705        -427.703          45.000
  22358635.724    -6234382.740        2579.647          51.000
  21350297.051    -4036452.292        1551.978          51.000
  21369885.467    -2102938.150          86.669          49.000
  22151581.780     5662328.330       -3079.821          49.000
  24441068.502    -3508907.674        1225.434          30.000
  21619861.450     6907142.254       -3722.245          49.000
  24937233.267    -2649341.946        3540.123          43.000
  25249832.811     -924270.545        3479.250          45.000
  23920068.654    -7052223.177        2959.977          46.000
 13 11  2 21 41 28.0000000  0 21G 7R 2R18R 9G 8R 1R10R17G 5R 3G15G16
                                G18G21G26G29G 9R24G27G22G 6
  25288179.734      -40558.545        -534.618          39.000
  19512130.032    -4658673.748        1376.296          55.000
  21646482.248    -8428456.279        3568.724          49.000
  23569708.907      772812.249       -1289.380          45.000
  25346358.772    -1559470.084        1463.841          34.000
  20457738.411     4306040.714       -2644.911          53.000
  23582052.474    -4344331.112        1950.997          43.000
  19267423.871    -2096383.021         125.058          53.000
  23682747.194     6619964.857       -3277.744          51.000
  22978732.546    -7276121.615        4107.823          47.000
  21791523.790    -6025195.081        2238.637          50.000
  23766237.059     -662384.892        -428.045          45.000
  22358145.541    -6236962.401        2579.612          51.000
  21350002.069    -4038004.232        1551.879          51.000
  21369867.097    -2103024.578          86.103          49.000
  22152167.419     5665408.185       -3079.949          49.000
  24440839.886                        1224.895          30.000
  21620557.806     6910864.547       -3722.380          49.000
  24936559.819    -2652882.117        3540.122          42.000
  25249172.193     -927749.928        3479.443          45.000
  23919504.708    -7055183.123        2959.879          46.000
 13 11  2 21 41 29.0000000  0 21G 7R 2R18R 9G 8R 1R10R17G 5R 3G15G16
                                G18G21G26G29G 9R24G27G22G 6
  25288283.804      -40023.384        -535.333          39.000
  19511873.147    -4660049.600        1375.593          55.000
  21645814.375    -8432024.731        3568.364          49.000
  23569950.246      774102.109       -1290.116          45.000
  25346080.730    -1560933.512        1463.459          34.000
  20458235.599     4308685.992       -2645.386          53.000
  23581688.947    -4346281.604        1950.197          43.000
  19267402.464    -2096507.565         124.274          53.000
  23683371.109     6623242.749       -3277.835          51.000
  22977966.430    -7280229.217        4107.632          47.000
  21791099.723    -6027433.364        2238.129          50.000
  23766318.077     -661956.465        -428.665          45.000
  22357653.106    -6239541.816        2579.364          51.000
  21349705.372    -4039555.917        1551.640          51.000
  21369852.302    -2103110.231          85.327          49.000
  22152753.702     5668488.367       -3080.277          49.000
  24440607.267                        1224.588          30.000
  21621253.768     6914587.219       -3722.752          50.000
  24935886.193    -2656422.139        3540.055          43.000
  25248509.253     -931229.272        3479.396          45.000
  23918943.049    -7058142.782        2959.626          46.000
 13 11  2 21 41 30.0000000  0 21G 7R 2R18R 9G 8R 1R10R17G 5R 3G15G16
                                G18G21G26G29G 9R24G27G22G 6
  25288384.585      -39487.648        -535.923          39.000
  19511616.834    -4661424.714        1374.835          55.000
  21645146.646    -8435592.824        3567.999          49.000
  23570193.122      775392.767       -1290.981          45.000
  25345802.616    -1562396.390        1462.769          34.000
  20458729.677     4311331.774       -2645.955          52.000
  23581322.346    -4348231.372        1949.442          43.000
  19267379.377    -2096631.307         123.420          53.000
  23683996.668     6626520.770       -3277.959          51.000
  22977199.456    -7284336.594        4107.397          47.000
  21790672.582    -6029671.113        2237.634          51.000
  23766396.879     -661527.385        -429.320          45.000
  22357162.459    -6242120.962        2579.134          51.000
  21349411.641    -4041107.312        1551.350          51.000
  21369836.720    -2103195.074          84.596          49.000
  22153339.198     5671568.897       -3080.615          49.000
  24440374.791                        1223.776          30.000
  21621952.411     6918310.302       -3723.178          49.000
  24935212.781    -2659961.972        3539.929          43.000
  25247849.671     -934708.575        3479.410          45.000
  23918378.352    -7061102.098        2959.292          46.000
 13 11  2 21 41 31.0000000  0 21G 7R 2R18R 9G 8R 1R10R17G 5R 3G15G16
                                G18G21G26G29G 9R24G27G22G 6
  25288486.867      -38951.339        -536.496          39.000
  19511359.663    -4662799.131        1374.099          55.000
  21644480.417    -8439160.586        3567.619          49.000
  23570435.283      776684.195       -1291.838          45.000
  25345524.288    -1563858.790        1462.161          34.000
  20459225.829     4313978.024       -2646.430          53.000
  23580957.175    -4350180.425        1948.740          43.000
  19267358.506    -2096754.297         122.672          53.000
  23684618.152     6629798.912       -3278.168          52.000
  22976432.660    -7288443.792        4107.160          47.000
  21790247.442    -6031908.340        2237.042          51.000
  23766480.864     -661097.683        -430.043          45.000
  22356672.848    -6244699.854        2578.849          51.000
  21349117.695    -4042658.443        1551.040          51.000
  21369820.066    -2103279.121          83.669          49.000
  22153926.875     5674649.763       -3080.994          49.000
  24440139.849    -3513804.6651       1223.006          29.000
  21622649.089     6922033.774       -3723.645          50.000
  24934539.297    -2663501.644        3539.710          42.000
  25247184.372     -938187.833        3479.304          45.000
  23917814.977    -7064061.116        2958.882          46.000
 13 11  2 21 41 32.0000000  0 21G 7R 2R18R 9G 8R 1R10R17G 5R 3G15G16
                                G18G21G26G29G 9R24G27G22G 6
  25288587.684      -38414.330        -537.195          39.000
  19511102.992    -4664172.714        1373.280          55.000
  21643813.760    -8442727.846        3567.071          49.000
  23570678.909      777976.558       -1292.730          45.000
  25345243.709    -1565320.529        1461.549          34.000
  20459723.016     4316624.912       -2647.093          53.000
  23580591.575    -4352128.603        1947.892          43.000
  19267336.778    -2096876.389         121.749          53.000
  23685242.996     6633077.316       -3278.420          51.000
  22975665.650    -7292550.609        4106.684          47.000
  21789821.694    -6034144.911        2236.376          51.000
  23766561.274     -660667.219        -430.750          45.000
  22356182.772    -6247278.335        2578.441          51.000
  21348821.177    -4044209.152        1550.641          51.000
  21369804.484    -2103362.233          82.757          49.000
  22154512.693     5677731.113       -3081.460          49.000
  24439907.659    -3515027.165        1221.978          29.000
  21623348.125     6925757.796       -3724.169          50.000
  24933863.920    -2667041.000        3539.372          43.000
  25246524.612     -941666.913        3479.195          45.000
  23917252.568    -7067019.694        2958.562          46.000
 13 11  2 21 41 33.0000000  0 21G 7R 2R18R 9G 8R 1R10R17G 5R 3G15G16
                                G18G21G26G29G 9R24G27G22G 6
  25288692.718      -37876.727        -537.708          39.000
  19510846.250    -4665545.611        1372.765          55.000
  21643143.921    -8446294.745        3566.883          49.000
  23570922.249      779269.751       -1293.435          45.000
  25344963.773    -1566781.739        1460.975          34.000
  20460218.953     4319272.310       -2647.443          53.000
  23580226.153    -4354076.016        1947.247          43.000
  19267313.298    -2096997.697         121.104          53.000
  23685867.662     6636355.877       -3278.443          51.000
  22974898.569    -7296657.169        4106.644          47.000
  21789397.198    -6036380.919        2235.943          51.000
  23766644.902     -660236.092        -431.304          45.000
  22355692.732    -6249856.525        2578.249          52.000
  21348527.088    -4045759.552        1550.464          51.000
  21369789.403    -2103444.518          82.064          49.000
  22155098.975     5680812.842       -3081.728          49.000
  24439676.434    -3516249.026        1221.580          29.000
  21624043.301     6929482.229       -3724.442          49.000
  24933190.794    -2670580.143        3539.295          43.000
  25245862.100     -945145.908        3479.175          45.000
  23916690.766    -7069977.891        2958.198          45.000
 13 11  2 21 41 34.0000000  0 21G 7R 2R18R 9G 8R 1R10R17G 5R 3G15G16
                                G18G21G26G29G 9R24G27G22G 6
  25288795.215      -37338.536        -538.083          39.000
  19510589.365    -4666917.829        1372.198          55.000
  21642476.621    -8449861.310        3566.724          49.000
  23571165.054      780563.721       -1294.088          45.000
  25344688.125    -1568242.479        1460.742          34.000
  20460714.104     4321920.197       -2647.812          53.000
  23579864.127    -4356022.695        1946.715          43.000
  19267292.034    -2097118.225         120.474          53.000
  23686490.647     6639634.551       -3278.354          51.000
  22974134.346    -7300763.514        4106.578          47.000
  21788971.522    -6038616.412        2235.625          51.000
  23766727.206     -659804.348        -431.701          45.000
  22355200.297    -6252434.473        2578.192          51.000
  21348231.606    -4047309.694        1550.400          51.000
  21369772.534    -2103526.017          81.478          50.000
  22155684.472     5683894.899       -3081.863          49.000
  24439450.748    -3517470.350        1222.040          28.000
  21624740.944     6933207.031       -3724.649          50.000
  24932518.132    -2674119.147        3539.316          43.000
  25245199.838     -948624.882        3479.360          45.000
  23916126.641    -7072935.783        2958.122          45.000
 13 11  2 21 41 35.0000000  0 21G 7R 2R18R 9G 8R 1R10R17G 5R 3G15G16
                                G18G21G26G29G 9R24G27G22G 6
  25288898.355      -36799.773        -539.082          39.000
  19510332.051    -4668289.339        1371.141          55.000
  21641809.248    -8453427.535        3566.029          49.000
  23571408.787      781858.468       -1295.198          45.000
  25344412.084    -1569702.716        1459.943          34.000
  20461209.898     4324568.569       -2648.626          53.000
  23579499.348    -4357968.635        1945.509          43.000
  19267269.447    -2097237.966         119.355          53.000
  23687115.741     6642913.341       -3278.821          51.000
  22973368.016    -7304869.658        4106.067          47.000
  21788546.204    -6040851.387        2234.698          51.000
  23766808.439     -659371.983        -432.733          45.000
  22354710.078    -6255012.168        2577.563          52.000
  21347937.375    -4048859.562        1549.710          51.000
  21369757.524    -2103606.723          80.318          49.000
  22156273.042     5686977.290       -3082.542          49.000
  24439211.625    -3518690.874        1220.280          28.000
  21625436.728     6936932.213       -3725.442          49.000
  24931843.862    -2677657.986        3538.807          43.000
  25244535.825     -952103.813        3478.866          45.000
  23915563.230    -7075893.372        2957.409          46.000
 13 11  2 21 41 36.0000000  0 21G 7R 2R18R 9G 8R 1R10R17G 5R 3G15G16
                                G18G21G26G29G 9R24G27G22G 6
  25289001.173      -36260.239        -539.832          39.000
  19510078.025    -4669659.957        1370.268          55.000
  21641142.090    -8456993.264        3565.555          49.000
  23571653.200      783154.165       -1296.109          45.000
  25344135.079    -1571162.276        1459.232          34.000
  20461708.479     4327217.584       -2649.245          53.000
  23579136.822    -4359913.675        1944.632          43.000
  19267248.969    -2097356.762         118.409          53.000
  23687737.083     6646192.424       -3279.158          51.000
  22972599.469    -7308975.427        4105.632          48.000
  21788120.456    -6043085.680        2234.018          51.000
  23766892.423     -658938.839        -433.358          45.000
  22354218.930    -6257589.441        2577.149          52.000
  21347642.607    -4050408.994        1549.294          51.000
  21369743.622    -2103686.465          79.388          50.000
  22156858.395     5690060.188       -3083.084          49.000
  24438978.362    -3519910.730        1219.780          28.000
  21626134.406     6940657.935       -3725.901          49.000
  24931171.594    -2681196.489        3538.450          43.000
  25243875.064     -955582.558        3478.759          45.000
  23914999.927    -7078850.530        2957.052          46.000
 13 11  2 21 41 37.0000000  0 21G 7R 2R18R 9G 8R 1R10R17G 5R 3G15G16
                                G18G21G26G29G 9R24G27G22G 6
  25289102.169      -35720.246        -540.267          39.000
  19509821.355    -4671029.982        1369.712          55.000
  21640473.539    -8460558.748        3565.350          49.000
  23571895.539      784450.558       -1296.817          45.000
  25343857.251    -1572621.445        1458.942          35.000
  20462203.916     4329866.982       -2649.614          52.000
  23578770.185    -4361858.059        1944.024          43.000
  19267226.276    -2097474.849         117.711          53.000
  23688363.714     6649471.538       -3279.204          51.000
  22971833.531    -7313081.058        4105.524          48.000
  21787694.673    -6045319.541        2233.643          51.000
  23766973.298     -658505.144        -434.033          45.000
  22353730.498    -6260166.555        2577.048          52.000
  21347348.304    -4051958.244        1549.078          51.000
  21369727.969    -2103765.503          78.673          49.000
  22157445.821     5693143.331       -3083.281          49.000
  24438744.493    -3521129.922        1218.460          27.000
  21626830.261     6944383.970       -3726.244          49.000
  24930494.894    -2684734.915        3538.440          43.000
  25243211.016     -959061.343        3478.828          45.000
  23914438.268    -7081807.462        2956.803          45.000
 13 11  2 21 41 38.0000000  0 21G 7R 2R18R 9G 8R 1R10R17G 5R 3G15G16
                                G18G21G26G29G 9R24G27G22G 6
  25289204.916      -35179.609        -540.924          39.000
  19509565.470    -4672399.283        1369.039          55.000
  21639808.811    -8464123.823        3564.998          49.000
  23572138.737      785747.793       -1297.509          45.000
  25343581.425    -1574080.032        1458.424          34.000
  20462700.425     4332516.922       -2650.094          52.000
  23578408.016    -4363801.649        1943.372          43.000
  19267206.441    -2097592.106         116.957          53.000
  23688985.449     6652750.824       -3279.222          51.000
  22971070.488    -7317186.397        4105.366          48.000
  21787270.391    -6047552.824        2233.166          51.000
  23767056.747     -658070.775        -434.505          45.000
  22353239.315    -6262743.351        2576.792          52.000
  21347052.679    -4053507.160        1548.901          51.000
  21369710.565    -2103843.683          77.931          50.000
  22158030.317     5696226.879       -3083.609          49.000
  24438509.015    -3522348.573        1218.530          27.000
  21627525.581     6948110.463       -3726.605          49.000
  24929824.448    -2688273.108        3538.290          43.000
  25242551.327     -962540.024        3478.776          45.000
  23913874.215    -7084764.025        2956.491          45.000
 13 11  2 21 41 39.0000000  0 21G 7R 2R18R 9G 8R 1R10R17G 5R 3G15G16
                                G18G21G26G29G 9R24G27G22G 6
  25289305.054      -34638.394        -541.234          39.000
  19509310.586    -4673767.897        1368.451          55.000
  21639139.473    -8467688.558        3564.776          49.000
  23572382.506      787045.818       -1298.241          45.000
  25343306.385    -1575538.106        1458.013          35.000
  20463195.897     4335167.357       -2650.474          53.000
  23578042.630    -4365744.492        1942.673          43.000
  19267186.356    -2097708.600         116.300          53.000
  23689610.436     6656030.250       -3279.359          52.000
  22970301.870    -7321291.503        4105.219          48.000
  21786845.966    -6049785.567        2232.656          51.000
  23767137.801     -657635.762        -435.101          45.000
  22352749.310    -6265319.863        2576.523          52.000
  21346758.055    -4055055.788        1548.687          51.000
  21369696.412    -2103921.056          77.174          49.000
  22158617.386     5699310.778       -3083.895          49.000
  24438276.932                        1217.633          26.000
  21628225.010     6951837.359       -3726.916          49.000
  24929150.393    -2691811.118        3538.126          43.000
  25241887.850     -966018.650        3478.724          45.000
  23913312.091    -7087720.250        2956.242          45.000
 13 11  2 21 41 40.0000000  0 21G 7R 2R18R 9G 8R 1R10R17G 5R 3G15G16
                                G18G21G26G29G 9R24G27G22G 6
  25289409.230      -34096.536        -542.468          39.000
  19509054.917    -4675135.753        1367.236          55.000
  21638473.423    -8471252.923        3563.936          49.000
  23572628.884      788344.645       -1299.494          45.000
  25343029.022    -1576995.664        1457.152          35.000
  20463691.762     4337818.324       -2651.466          52.000
  23577678.888    -4367686.571        1941.489          43.000
  19267162.805    -2097824.311         115.096          53.000
  23690235.458     6659309.817       -3279.889          51.000
  22969535.325    -7325396.373        4104.464          48.000
  21786420.755    -6052017.754        2231.666          51.000
  23767218.783     -657200.095        -436.210          45.000
  22352258.913    -6267896.104        2575.823          52.000
  21346464.360    -4056604.103        1547.918          51.000
  21369680.938    -2103997.612          75.937          49.000
  22159204.312     5702395.045       -3084.714          49.000
  24438042.133                        1217.303          25.000
  21628920.365     6955564.679       -3727.781          49.000
  24928479.554    -2695348.924        3537.396          43.000
  25241225.696     -969497.217        3478.329          46.000
  23912750.039    -7090676.150        2955.531          45.000
 13 11  2 21 41 41.0000000  0 21G 7R 2R18R 9G 8R 1R10R17G 5R 3G15G16
                                G18G21G26G29G 9R24G27G22G 6
  25289514.693      -33553.935        -542.977          39.000
  19508799.854    -4676502.701        1366.539          55.000
  21637805.443    -8474816.762        3563.547          49.000
  23572873.690      789644.459       -1300.345          45.000
  25342750.801    -1578452.504        1456.527          35.000
  20464188.271     4340469.980       -2651.972          52.000
  23577315.254    -4369627.741        1940.765          43.000
  19267143.685    -2097939.047         114.261          53.000
  23690858.158     6662589.697       -3280.039          51.000
  22968769.244    -7329500.851        4104.308          48.000
  21785996.401    -6054249.235        2231.168          51.000
  23767303.625     -656763.628        -436.757          45.000
  22351769.052    -6270471.890        2575.570          52.000
  21346169.950    -4058151.965        1547.618          51.000
  21369667.179    -2104073.201          75.129          49.000
  22159791.488     5705479.833       -3085.043          49.000
  24437806.869                        1217.731          24.000
  21629620.760     6959292.605       -3728.225          49.000
  24927806.535    -2698886.391        3537.296          43.000
  25240565.650     -972975.552        3478.217          45.000
  23912187.486    -7093631.556        2955.140          45.000
 13 11  2 21 41 42.0000000  0 21G 7R 2R18R 9G 8R 1R10R17G 5R 3G15G16
                                G18G21G26G29G 9R24G27G22G 6
  25289618.084      -33010.693        -543.490          39.000
  19508545.435    -4677868.893        1365.841          56.000
  21637137.499    -8478380.198        3563.198          49.000
  23573114.636      790945.082       -1301.069          45.000
  25342473.653    -1579908.788        1455.975          35.000
  20464686.817     4343122.195       -2652.466          53.000
  23576953.084    -4371568.114        1940.024          43.000
  19267122.778    -2098052.923         113.495          53.000
  23691482.144     6665869.767       -3280.175          51.000
  22968002.806    -7333605.037        4104.059          48.000
  21785572.155    -6056480.111        2230.550          51.000
  23767387.538     -656326.437        -437.502          45.000
  22351277.653    -6273047.356        2575.290          52.000
  21345876.397    -4059699.477        1547.305          51.000
  21369653.241    -2104147.913          74.233          49.000
  22160378.450     5708565.041       -3085.469          49.000
  24437572.106                        1213.517          22.000
  21630320.761     6963020.986       -3728.589          49.000
  24927131.194    -2702423.619        3537.075          43.000
  25239905.997     -976453.766        3478.093          45.000
  23911624.898    -7096586.571        2954.825          45.000
 13 11  2 21 41 43.0000000  0 21G 7R 2R18R 9G 8R 1R10R17G 5R 3G15G16
                                G18G21G26G29G 9R24G27G22G 6
  25289719.794      -32466.705        -544.064          39.000
  19508289.586    -4679234.272        1365.260          55.000
  21636471.521    -8481943.155        3563.039          49.000
  23573358.190      792246.647       -1301.710          45.000
  25342197.970    -1581364.408        1455.585          35.000
  20465184.826     4345775.046       -2652.808          52.000
  23576590.486    -4373507.617        1939.350          43.000
  19267103.444    -2098165.828         112.769          53.000
  23692107.167     6669150.091       -3280.177          51.000
  22967236.010    -7337708.842        4103.944          48.000
  21785148.623    -6058710.333        2230.221          51.000
  23767470.951     -655888.497        -438.054          45.000
  22350788.793    -6275622.417        2575.213          52.000
  21345581.951    -4061246.581        1547.188          51.000
  21369638.267    -2104221.693          73.591          49.000
  22160965.626     5711650.721       -3085.591          49.000
  24437339.880                        1214.173          22.000
  21631018.117     6966749.888       -3728.851          49.000
  24926458.496    -2705960.526        3537.029          43.000
  25239242.913     -979931.814        3478.255          45.000
  23911063.524    -7099541.128        2954.636          45.000
 13 11  2 21 41 44.0000000  0 21G 7R 2R18R 9G 8R 1R10R17G 5R 3G15G16
                                G18G21G26G29G 9R24G27G22G 6
  25289823.041      -31922.298        -544.546          39.000
  19508034.488    -4680599.103        1364.536          55.000
  21635805.614    -8485505.897        3562.605          49.000
  23573602.138      793548.881       -1302.605          45.000
  25341922.036    -1582819.664        1455.023          35.000
  20465679.762     4348428.239       -2653.373          53.000
  23576223.385    -4375446.541        1938.646          43.000
  19267082.466    -2098278.093         111.980          53.000
  23692731.225     6672430.409       -3280.296          51.000
  22966470.465    -7341812.558        4103.663          47.000
  21784724.448    -6060940.157        2229.635          51.000
  23767556.186     -655450.072        -438.424          45.000
  22350300.647    -6278197.346        2574.800          52.000
  21345287.720    -4062793.527        1546.850          51.000
  21369624.436    -2104294.810          72.767          49.000
  22161551.551     5714736.611       -3086.019          49.000
  24437107.905                        1214.199          21.000
  21631716.724     6970479.031       -3729.266          49.000
  24925786.049    -2709497.405        3536.895          43.000
  25238579.043     -983409.949        3478.173          45.000
  23910502.330    -7102495.512        2954.317          45.000
 13 11  2 21 41 45.0000000  0 21G 7R 2R18R 9G 8R 1R10R17G 5R 3G15G16
                                G18G21G26G29G 9R24G27G22G 6
  25289927.468      -31377.339        -545.397          39.000
  19507778.854    -4681963.268        1363.641          55.000
  21635138.563    -8489068.329        3562.053          49.000
  23573847.694      794851.866       -1303.573          45.000
  25341648.354    -1584274.461        1454.427          35.000
  20466176.557     4351081.879       -2654.082          53.000
  23575861.323    -4377384.760        1937.678          43.000
  19267063.739    -2098389.632         110.962          53.000
  23693356.390     6675710.818       -3280.641          51.000
  22965703.849    -7345916.096        4103.248          47.000
  21784300.524    -6063169.488        2228.917          51.000
  23767642.172     -655011.009        -439.698          45.000
  22349810.142    -6280772.050        2574.397          52.000
  21344993.310    -4064340.231        1546.405          51.000
  21369610.105    -2104367.147          71.747          49.000
  22162139.549     5717822.810       -3086.520          49.000
  24436879.110                        1211.573          21.000
  21632416.190     6974208.518       -3729.877          50.000
  24925112.101    -2713034.127        3536.524          43.000
  25237917.854     -986888.064        3477.923          45.000
  23909938.169    -7105449.603        2953.777          45.000
 13 11  2 21 41 46.0000000  0 21G 7R 2R18R 9G 8R 1R10R17G 5R 3G15G16
                                G18G21G26G29G 9R24G27G22G 6
  25290031.537      -30831.544        -546.026          39.000
  19507524.292    -4683326.461        1362.838          55.000
  21634473.478    -8492630.158        3561.618          49.000
  23574091.571      796155.892       -1304.424          45.000
  25341369.955    -1585728.467        1453.679          35.000
  20466675.567     4353736.251       -2654.616          53.000
  23575501.298    -4379321.999        1936.836          43.000
  19267044.548    -2098500.149         110.123          54.000
  23693979.805     6678991.615       -3280.853          51.000
  22964936.767    -7350019.177        4102.944          47.000
  21783876.706    -6065398.042        2228.316          51.000
  23767725.084     -654571.111        -440.129          45.000
  22349321.281    -6283346.236        2574.051          52.000
  21344697.006    -4065886.401        1546.034          51.000
  21369595.738    -2104438.439          70.922          49.000
  22162726.118     5720909.602       -3086.929          49.000
  24436657.462                        1217.014          22.000
  21633113.903     6977938.659       -3730.344          50.000
  24924441.512    -2716570.435        3536.166          43.000
  25237257.379     -990365.884        3477.804          46.000
  23909377.296    -7108403.151        2953.447          45.000
 13 11  2 21 41 47.0000000  0 21G 7R 2R18R 9G 8R 1R10R17G 5R 3G15G16
                                G18G21G26G29G 9R24G27G22G 6
  25290137.000      -30285.349        -546.461          40.000
  19507269.444    -4684689.147        1362.372          55.000
  21633805.355    -8496191.830        3561.488          49.000
  23574336.662      797460.542       -1305.029          45.000
  25341089.876    -1587182.197        1453.577          35.000
  20467170.468     4356390.931       -2654.952          53.000
  23575135.912    -4381258.681        1936.254          43.000
  19267024.570    -2098610.063         109.516          54.000
  23694604.256     6682272.355       -3280.804          51.000
  22964171.365    -7354122.217        4102.886          47.000
  21783452.281    -6067626.253        2227.948          51.000
  23767809.533     -654130.758        -440.604          45.000
  22348830.741    -6285920.348        2573.955          52.000
  21344403.811    -4067432.483        1545.920          51.000
  21369581.943    -2104509.111          70.237          49.000
  22163314.830     5723996.554       -3087.120          49.000
  24436414.336                        1223.835          21.000
  21633816.299     6981669.022       -3730.562          50.000
  24923767.850    -2720106.751        3536.174          43.000
  25236596.868     -993843.838        3477.918          46.000
  23908815.137    -7111356.560        2953.203          45.000
 13 11  2 21 41 48.0000000  0 21G 7R 2R18R 9G 8R 1R10R17G 5R 3G15G16
                                G18G21G26G29G 9R24G27G22G 6
  25290240.748      -29738.510        -546.950          39.000
  19507014.346    -4686051.100        1361.839          55.000
  21633139.341    -8499753.105        3561.293          49.000
  23574582.647      798766.014       -1305.647          45.000
  25340815.372    -1588635.325        1453.095          35.000
  20467669.264     4359046.143       -2655.242          53.000
  23574771.634    -4383194.591        1935.791          42.000
  19267003.842    -2098719.123         108.879          54.000
  23695227.527     6685553.275       -3280.769          51.000
  22963404.999    -7358224.968        4102.833          47.000
  21783028.785    -6069853.883        2227.556          51.000
  23767895.304     -653689.709        -441.189          45.000
  22348341.094    -6288494.140        2573.852          52.000
  21344110.152    -4068978.233        1545.819          51.000
  21369569.078    -2104578.931          69.634          49.000
  22163902.471     5727083.903       -3087.302          49.000
  24436218.492                        1212.984           1.000
  21634513.727     6985399.854       -3730.820          50.000
  24923093.902    -2723642.844        3536.158          43.000
  25235933.820     -997321.702        3478.091          46.000
  23908252.191    -7114309.609        2953.040          45.000
 13 11  2 21 41 49.0000000  0 21G 7R 2R18R 9G 8R 1R10R17G 5R 3G15G16
                                G18G21G26G29G 9R24G27G22G 6
  25290345.996      -29191.163        -547.583          39.000
  19506759.676    -4687412.408        1361.033          55.000
  21632473.113    -8503314.086        3560.902          49.000
  23574829.168      800072.211       -1306.469          45.000
  25340536.651    -1590088.004        1452.528          35.000
  20468167.202     4361701.801       -2655.847          53.000
  23574410.680    -4385129.798        1934.942          42.000
  19266985.723    -2098827.457         108.033          54.000
  23695853.515     6688834.277       -3281.019          51.000
  22962638.525    -7362327.515        4102.463          47.000
  21782604.718    -6072081.029        2226.971          51.000
  23767977.144     -653248.092        -441.824          45.000
  22347852.233    -6291067.721        2573.531          52.000
  21343815.563    -4070523.754        1545.501          51.000
  21369555.283    -2104647.995          68.726          49.000
  22164490.469     5730171.553       -3087.747          49.000
  24436023.612                        1211.984           1.000
  21635213.049     6989131.045       -3731.337          50.000
  24922418.239    -2727178.808        3535.894          43.000
  25235272.238    -1000799.554        3477.885          45.000
  23907690.997    -7117262.382        2952.737          45.000
 13 11  2 21 41 50.0000000  0 21G 7R 2R18R 9G 8R 1R10R17G 5R 3G15G16
                                G18G21G26G29G 9R24G27G22G 6
  25290447.921      -28643.061        -548.392          40.000
  19506504.757    -4688772.855        1360.050          55.000
  21631806.312    -8506874.534        3560.232          49.000
  23575074.439      801379.352       -1307.552          45.000
  25340261.039    -1591539.993        1451.645          35.000
  20468663.246     4364358.127       -2656.615          53.000
  23574047.152    -4387064.093        1933.885          42.000
  19266966.496    -2098934.853         106.963          54.000
  23696478.216     6692115.573       -3281.396          51.000
  22961871.837    -7366429.646        4102.005          47.000
  21782181.186    -6074307.465        2226.116          51.000
  23768060.950     -652805.656        -442.833          45.000
  22347362.300    -6293640.861        2572.969          52.000
  21343522.404    -4072068.812        1544.875          51.000
  21369543.561    -2104716.083          67.647          49.000
  22165077.681     5733259.722       -3088.426          49.000
  24435810.399                        1217.463          22.000
  21635913.801     6992862.817       -3732.014          50.000
  24921748.150    -2730714.421        3535.454          43.000
  25234609.583    -1004277.189        3477.537          45.000
  23907128.480    -7120214.656        2952.087          45.000
 13 11  2 21 41 51.0000000  0 21G 7R 2R18R 9G 8R 1R10R17G 5R 3G15G16
                                G18G21G26G29G 9R24G27G22G 6
  25290554.778      -28094.395        -548.890          40.000
  19506251.660    -4690132.621        1359.498          56.000
  21631140.655    -8510434.680        3560.104          49.000
  23575320.423      802687.254       -1308.276          45.000
  25339983.819    -1592991.537        1451.482          35.000
  20469161.327     4367014.918       -2656.943          53.000
  23573685.912    -4388997.699        1933.401          42.000
  19266946.911    -2099041.493         106.306          54.000
  23697102.131     6695396.958       -3281.277          51.000
  22961106.614    -7370531.598        4101.920          47.000
  21781757.869    -6076533.410        2225.793          51.000
  23768144.113     -652362.631        -443.230          45.000
  22346871.117    -6296213.773        2572.902          52.000
  21343226.636    -4073613.627        1544.800          51.000
  21369530.588    -2104783.416          67.042          49.000
  22165664.821     5736348.194       -3088.523          49.000
  24435549.797                        1209.984           1.000
  21636614.016     6996594.930       -3732.172          50.000
  24921075.310    -2734249.890        3535.488          43.000
  25233949.323    -1007754.813        3477.681          45.000
  23906566.463    -7123166.642        2952.017          45.000
 13 11  2 21 41 52.0000000  0 21G 7R 2R18R 9G 8R 1R10R17G 5R 3G15G16
                                G18G21G26G29G 9R24G27G22G 6
  25290659.490      -27545.170        -549.333          40.000
  19505997.491    -4691491.664        1358.785          55.000
  21630474.605    -8513994.479        3559.719          49.000
  23575565.551      803995.946       -1309.010          45.000
  25339704.276    -1594442.552        1450.937          34.000
  20469660.373     4369672.201       -2657.396          53.000
  23573324.314    -4390930.600        1932.730          42.000
  19266927.112    -2099147.366         105.597          53.000
  23697726.510     6698678.460       -3281.377          51.000
  22960342.141    -7374633.353        4101.785          47.000
  21781333.980    -6078758.837        2225.310          51.000
  23768229.205     -651918.992        -443.777          45.000
  22346380.683    -6298786.435        2572.667          52.000
  21342933.226    -4075158.177        1544.585          51.000
  21369518.866    -2104849.951          66.257          49.000
  22166253.892     5739436.994       -3088.814          49.000
  24435300.667                        1209.638          13.000
  21637311.980     7000327.420       -3732.571          50.000
  24920399.933    -2737785.200        3535.354          43.000
  25233287.633    -1011232.407        3477.703          45.000
  23906005.769    -7126118.328        2951.713          45.000
 13 11  2 21 41 53.0000000  0 21G 7R 2R18R 9G 8R 1R10R17G 5R 3G15G16
                                G18G21G26G29G 9R24G27G22G 6
  25290764.310      -26995.425        -549.999          40.000
  19505743.679    -4692850.060        1358.163          56.000
  21629806.697    -8517554.007        3559.470          49.000
  23575811.786      805305.389       -1309.723          45.000
  25339429.236    -1595893.152        1450.611          34.000
  20470155.810     4372329.928       -2657.875          53.000
  23572962.038    -4392862.820        1932.041          41.000
  19266908.850    -2099252.497         104.832          54.000
  23698350.854     6701960.032       -3281.498          51.000
  22959576.525    -7378734.957        4101.566          48.000
  21780911.842    -6080983.788        2224.835          51.000
  23768312.939     -651474.768        -444.374          45.000
  22345892.180    -6301358.888        2572.461          51.000
  21342638.209    -4076702.496        1544.334          51.000
  21369505.428    -2104915.744          65.507          49.000
  22166841.175     5742526.087       -3089.102          48.000
  24435087.276                        1213.140           1.000
  21638009.801     7004060.238       -3732.922          50.000
  24919729.487    -2741320.391        3535.270          43.000
  25232627.587    -1014710.002        3477.674          46.000
  23905442.859    -7129069.764        2951.398          45.000
 13 11  2 21 41 54.0000000  0 21G 7R 2R18R 9G 8R 1R10R17G 5R 3G15G16
                                G18G21G26G29G 9R24G27G22G 6
  25290868.165      -26445.152        -550.618          40.000
  19505488.903    -4694207.814        1357.372          55.000
  21629141.290    -8521113.195        3558.898          49.000
  23576060.165      806615.595       -1310.657          46.000
  25339156.162    -1597343.186        1449.694          34.000
  20470654.498     4374988.129       -2658.517          53.000
  23572600.691    -4394794.320        1931.014          41.000
  19266889.909    -2099356.848         103.857          54.000
  23698975.126     6705241.714       -3281.806          51.000
  22958811.516    -7382836.364        4101.152          48.000
  21780487.989    -6083208.217        2224.117          51.000
  23768397.317     -651029.931        -445.140          45.000
  22345402.855    -6303931.089        2572.020          52.000
  21342345.014    -4078246.546        1543.850          51.000
  21369494.778    -2104980.750          64.543          49.000
  22167429.352     5745615.513       -3089.629          49.000
  24434892.896                        1208.984           1.000
  21638707.122     7007793.427       -3733.475          50.000
  24919057.290    -2744855.418        3534.960          43.000
  25231966.040    -1018187.574        3477.539          45.000
  23904882.415    -7132020.912        2950.936          45.000
 13 11  2 21 41 55.0000000  0 21G 7R 2R18R 9G 8R 1R10R17G 5R 3G15G16
                                G18G21G26G29G 9R24G27G22G 6
  25290972.091      -25894.162        -551.153          40.000
  19505235.985    -4695564.784        1356.789          55.000
  21628475.598    -8524671.942        3558.736          49.000
  23576305.293      807926.678       -1311.281          46.000
  25338880.764    -1598792.662        1449.385          34.000
  20471153.151     4377646.921       -2658.829          53.000
  23572234.519    -4396724.976        1930.477          41.000
  19266870.253    -2099460.315         103.261          54.000
  23699600.006     6708523.616       -3281.802          51.000
  22958047.723    -7386937.429        4101.129          48.000
  21780064.672    -6085432.032        2223.814          52.000
  23768481.444     -650584.357        -445.704          45.000
  22344912.565    -6306502.943        2571.924          52.000
  21342051.068    -4079790.229        1543.738          50.000
  21369479.482    -2105044.857          63.904          48.000
  22168017.350     5748705.375       -3089.818          49.000
  24434632.795                        1207.984           1.000
  21639407.302     7011527.142       -3733.778          50.000
  24918384.021    -2748390.156        3534.721          43.000
  25231301.526    -1021664.992        3477.593          45.000
  23904318.469    -7134971.631        2950.729          45.000
 13 11  2 21 41 56.0000000  0 21G 7R 2R18R 9G 8R 1R10R17G 5R 3G15G16
                                G18G21G26G29G 9R24G27G22G 6
  25291076.160      -25342.528        -551.938          40.000
  19504981.280    -4696920.963        1355.793          55.000
  21627808.690    -8528230.272        3558.106          49.000
  23576551.992      809238.619       -1312.326          46.000
  25338604.902    -1600241.572        1448.672          34.000
  20471651.268     4380306.259       -2659.594          53.000
  23571876.209    -4398654.828        1929.436          41.000
  19266851.455    -2099562.922         102.194          54.000
  23700224.421     6711805.710       -3282.189          51.000
  22957281.678    -7391038.165        4100.574          48.000
  21779641.176    -6087655.240        2222.901          51.000
  23768567.859     -650138.095        -446.614          45.000
  22344423.239    -6309074.456        2571.358          52.000
  21341755.944    -4081333.553        1543.155          50.000
  21369468.404    -2105108.108          62.833          48.000
  22168606.098     5751795.646       -3090.457          49.000
  24434432.983                        1207.984           1.000
  21640102.907     7015261.322       -3734.414          50.000
  24917711.574    -2751924.679        3534.312          43.000
  25230638.979    -1025142.300        3477.236          45.000
  23903758.489    -7137921.962        2950.159          45.000
 13 11  2 21 41 57.0000000  0 21G 7R 2R18R 9G 8R 1R10R17G 5R 3G15G16
                                G18G21G26G29G 9R24G27G22G 6
  25291182.088      -24790.262        -552.490          40.000
  19504729.219    -4698276.321        1354.950          55.000
  21627143.534    -8531788.169        3557.678          49.000
  23576797.834      810551.429       -1313.225          46.000
  25338330.291    -1601689.866        1448.037          34.000
  20472149.314     4382966.164       -2660.217          52.000
  23571513.754    -4400583.844        1928.603          41.000
  19266834.015    -2099664.656         101.298          54.000
  23700848.371     6715088.015       -3282.360          51.000
  22956516.526    -7395138.594        4100.251          48.000
  21779219.396    -6089877.836        2222.312          51.000
  23768652.915     -649691.112        -447.343          45.000
  22343935.808    -6311645.620        2571.022          52.000
  21341464.643    -4082876.516        1542.786          51.000
  21369457.825    -2105170.468          61.975          48.000
  22169193.810     5754886.353       -3090.906          49.000
  24434173.168                        1206.984           1.000
  21640804.088     7018995.991       -3734.940          50.000
  24917037.662    -2755458.940        3534.209          43.000
  25229977.646    -1028619.479        3477.125          45.000
  23903197.545    -7140871.901        2949.766          44.000
 13 11  2 21 41 58.0000000  0 21G 7R 2R18R 9G 8R 1R10R17G 5R 3G15G16
                                G18G21G26G29G 9R24G27G22G 6
  25291289.230      -24237.389        -553.157          41.000
  19504475.122    -4699630.967        1354.345          55.000
  21626476.590    -8535345.698        3557.352          49.000
  23577044.391      811865.067       -1314.034          45.000
  25338051.677    -1603137.624        1447.575          34.000
  20472648.932     4385626.570       -2660.615          53.000
  23571153.157    -4402512.119        1927.869          40.000
  19266815.788    -2099765.586         100.542          54.000
  23701474.216     6718370.456       -3282.460          51.000
  22955751.446    -7399238.788        4100.056          48.000
  21778796.114    -6092099.891        2221.821          51.000
  23768739.044     -649243.491        -447.965          45.000
  22343446.733    -6314216.499        2570.767          52.000
  21341170.876    -4084419.180        1542.550          51.000
  21369444.888    -2105232.008          61.119          49.000
  22169781.880     5757977.410       -3091.236          49.000
  24433973.607                        1206.984           1.000
  21641502.230     7022731.072       -3735.299          50.000
  24916366.930    -2758992.998        3533.961          43.000
  25229316.743    -1032096.591        3477.106          45.000
  23902633.849    -7143821.494        2949.447          44.000
 13 11  2 21 41 59.0000000  0 21G 7R 2R18R 9G 8R 1R10R17G 5R 3G15G16
                                G18G21G26G29G 9R24G27G22G 6
  25291393.764      -23683.873        -553.957          41.000
  19504221.703    -4700984.884        1353.572          56.000
  21625811.684    -8538902.810        3556.927          49.000
  23577291.555      813179.582       -1314.911          45.000
  25337775.708    -1604584.813        1447.035          35.000
  20473146.191     4388287.536       -2661.232          52.000
  23570789.737    -4404439.569        1927.113          40.000
  19266796.168    -2099865.680          99.685          54.000
  23702098.452     6721653.102       -3282.745          50.000
  22954987.117    -7403338.711        4099.791          48.000
  21778372.940    -6094321.337        2221.126          51.000
  23768822.278     -648795.164        -448.709          45.000
  22342956.586    -6316787.042        2570.397          52.000
  21340877.109    -4085961.484        1542.129          51.000
  21369434.989    -2105292.673          60.198          49.000
  22170370.307     5761068.884       -3091.695          49.000
  24433714.077                        1204.984           1.000
  21642201.803     7026466.615       -3735.754          51.000
  24915693.339    -2762526.810        3533.707          43.000
  25228654.695    -1035573.580        3476.872          45.000
  23902075.620    -7146770.695        2948.965          44.000
 13 11  2 21 42  0.0000000  0 21G 7R 2R18R 9G 8R 1R10R17G 5R 3G15G16
                                G18G21G26G29G 9R24G27G22G 6
  25291501.371      -23129.740        -554.397          41.000
  19503967.820    -4702338.106        1352.977          55.000
  21625145.991    -8542459.552        3556.619          49.000
  23577536.433      814494.893       -1315.574          46.000
  25337498.845    -1606031.478        1446.557          34.000
  20473644.486     4390949.015       -2661.627          53.000
  23570430.676    -4406366.254        1926.422          41.000
  19266778.120    -2099964.980          98.993          54.000
  23702723.797     6724935.876       -3282.728          51.000
  22954220.250    -7407438.393        4099.687          48.000
  21777950.480    -6096542.244        2220.746          52.000
  23768908.156     -648346.195        -449.193          45.000
  22342468.189    -6319357.309        2570.287          52.000
  21340584.736    -4087503.500        1541.977          51.000
  21369422.302    -2105352.546          59.639          49.000
  22170958.841     5764160.718       -3091.892          49.000
  24433514.873                        1204.984           1.000
  21642902.912     7030202.566       -3736.041          50.000
  24915021.249    -2766060.424        3533.631          43.000
  25227993.256    -1039050.521        3477.020          46.000
  23901513.461    -7149719.580        2948.824          45.000
 13 11  2 21 42  1.0000000  0 21G 7R 2R18R 9G 8R 1R10R17G 5R 3G15G16
                                G18G21G26G29G 9R24G27G22G 6
  25291607.549      -22575.128        -554.982          41.000
  19503715.581    -4703690.732        1352.268          55.000
  21624477.940    -8546016.066        3556.361          49.000
  23577784.562      815810.847       -1316.338          45.000
  25337219.910    -1607477.749        1446.212          35.000
  20474144.247     4393610.874       -2662.106          53.000
  23570067.506    -4408292.333        1925.824          40.000
  19266760.930    -2100063.615          98.263          54.000
  23703348.998     6728218.670       -3282.826          51.000
  22953454.705    -7411537.950        4099.439          48.000
  21777527.914    -6098762.732        2220.275          51.000
  23768991.890     -647896.706        -449.741          45.000
  22341977.685    -6321927.424        2570.071          52.000
  21340289.111    -4089045.347        1541.748          51.000
  21369412.688    -2105411.709          58.810          49.000
  22171546.803     5767252.774       -3092.204          49.000
  24433255.558                        1203.984           1.000
  21643601.090     7033938.783       -3736.412          50.000
  24914347.337    -2769593.995        3533.526          43.000
  25227331.530    -1042527.523        3476.989          45.000
  23900951.230    -7152668.260        2948.563          44.000
 13 11  2 21 42  2.0000000  0 21G 7R 2R18R 9G 8R 1R10R17G 5R 3G15G16
                                G18G21G26G29G 9R24G27G22G 6
  25291712.011      -22019.882        -555.344          41.000
  19503462.484    -4705042.532        1351.623          55.000
  21623815.035    -8549572.146        3556.131          49.000
  23578030.118      817127.646       -1316.934          46.000
  25336942.368    -1608923.422        1445.585          34.000
  20474642.614     4396273.308       -2662.496          53.000
  23569706.838    -4410217.580        1925.076          41.000
  19266743.383    -2100161.379          97.549          54.000
  23703973.592     6731501.665       -3282.862          51.000
  22952689.446    -7415637.186        4099.245          48.000
  21777105.919    -6100982.610        2219.784          51.000
  23769077.197     -647446.510        -450.299          45.000
  22341489.110    -6324497.195        2569.815          52.000
  21339996.917    -4090586.835        1541.557          51.000
  21369401.967    -2105470.005          58.085          49.000
  22172134.837     5770345.251       -3092.454          49.000
  24433056.497                        1203.984           1.000
  21644301.985     7037675.469       -3736.701          50.000
  24913677.856    -2773127.302        3533.581          43.000
  25226669.768    -1046004.397        3476.990          45.000
  23900392.180    -7155616.540        2948.270          45.000
 13 11  2 21 42  3.0000000  0 21G 7R 2R18R 9G 8R 1R10R17G 5R 3G15G16
                                G18G21G26G29G 9R24G27G22G 6
  25291817.760      -21464.061        -556.278          41.000
  19503208.494    -4706393.645        1350.671          55.000
  21623149.128    -8553127.875        3555.441          49.000
  23578279.176      818445.238       -1318.111          46.000
  25336670.938    -1610368.584        1444.769          35.000
  20475140.052     4398936.215       -2663.230          53.000
  23569345.526    -4412142.096        1923.973          41.000
  19266725.693    -2100258.369          96.509          54.000
  23704596.256     6734784.782       -3283.302          51.000
  22951924.866    -7419736.207        4098.783          47.000
  21776682.888    -6103201.959        2218.953          52.000
  23769160.681     -646995.691        -451.203          45.000
  22341000.285    -6327066.710        2569.250          52.000
  21339704.008    -4092128.042        1540.941          51.000
  21369391.281    -2105527.499          56.952          49.000
  22172723.979     5773438.077       -3093.096          49.000
  24432808.117                        1202.277          20.000
  21645004.487     7041412.546       -3737.425          51.000
  24913007.017    -2776660.415        3532.764          43.000
  25226006.506    -1049481.241        3476.692          45.000
  23899830.485    -7158564.508        2947.654          45.000
 13 11  2 21 42  4.0000000  0 21G 7R 2R18R 9G 8R 1R10R17G 5R 3G15G16
                                G18G21G26G29G 9R24G27G22G 6
  25291925.761      -20907.511        -556.652          41.000
  19502956.040    -4707743.911        1350.159          55.000
  21622483.828    -8556683.082        3555.243          49.000
  23578523.875      819763.806       -1318.741          46.000
  25336395.755    -1611813.093        1444.435          35.000
  20475638.634     4401599.797       -2663.587          53.000
  23568984.179    -4414065.714        1923.439          41.000
  19266707.609    -2100354.394          95.859          54.000
  23705223.316     6738068.192       -3283.198          51.000
  22951159.286    -7423834.844        4098.762          47.000
  21776259.821    -6105420.608        2218.635          51.000
  23769248.418     -646544.064        -451.654          45.000
  22340511.424    -6329635.785        2569.195          52.000
  21339409.169    -4093668.802        1540.879          51.000
  21369381.274    -2105584.017          56.331          49.000
  22173311.477     5776531.414       -3093.260          49.000
  24432610.379                        1201.083           1.000
  21645703.452     7045150.179       -3737.613          51.000
  24912332.676    -2780193.205        3532.871          43.000
  25225346.853    -1052957.857        3476.821          45.000
  23899268.182    -7161511.986        2947.559          45.000
 13 11  2 21 42  5.0000000  0 21G 7R 2R18R 9G 8R 1R10R17G 5R 3G15G16
                                G18G21G26G29G 9R24G27G22G 6
  25292031.402      -20350.460        -556.993          41.000
  19502703.372    -4709093.612        1349.755          55.000
  21621817.564    -8560238.050        3555.170          49.000
  23578774.327      821083.076       -1319.279          46.000
  25336123.681    -1613257.160        1444.076          35.000
  20476138.430     4404263.768       -2663.808          52.000
  23568627.692    -4415988.674        1922.923          41.000
  19266690.705    -2100449.726          95.311          54.000
  23705847.695     6741351.641       -3283.170          50.000
  22950394.492    -7427933.358        4098.766          47.000
  21775839.148    -6107638.812        2218.279          51.000
  23769333.117     -646091.904        -452.048          45.000
  22340021.849    -6332204.686        2569.104          52.000
  21339117.153    -4095209.369        1540.767          51.000
  21369369.731    -2105639.831          55.783          49.000
  22173901.011     5779625.003       -3093.405          49.000
  24432393.234                        1205.561          19.000
  21646404.740     7048888.124       -3737.740          51.000
  24911659.300    -2783725.923        3533.033          43.000
  25224683.555    -1056434.522        3476.978          45.000
  23898707.917    -7164459.240        2947.428          45.000
 13 11  2 21 42  6.0000000  0 21G 7R 2R18R 9G 8R 1R10R17G 5R 3G15G16
                                G18G21G26G29G 9R24G27G22G 6
  25292136.615      -19792.969        -557.534          41.000
  19502452.420    -4710442.773        1349.004          55.000
  21621152.801    -8563792.833        3554.781          49.000
  23579020.026      822403.005       -1320.105          46.000
  25335851.107    -1614700.885        1443.664          35.000
  20476638.656     4406928.060       -2664.338          52.000
  23568269.597    -4417911.074        1922.258          41.000
  19266672.943    -2100544.449          94.538          54.000
  23706471.717     6744635.051       -3283.306          51.000
  22949626.803    -7432031.803        4098.544          47.000
  21775417.689    -6109856.653        2217.777          51.000
  23769419.818     -645639.260        -453.148          45.000
  22339532.738    -6334773.495        2568.875          52.000
  21338823.780    -4096749.816        1540.504          50.000
  21369359.796    -2105695.007          54.986          49.000
  22174489.331     5782718.774       -3093.784          49.000
  24432181.093                        1209.499          19.000
  21647102.954     7052626.306       -3738.169          51.000
  24910988.962    -2787258.611        3532.784          43.000
  25224023.152    -1059911.291        3476.910          45.000
  23898148.795    -7167406.354        2947.159          45.000
 13 11  2 21 42  7.0000000  0 21G 7R 2R18R 9G 8R 1R10R17G 5R 3G15G16
                                G18G21G26G29G 9R24G27G22G 6
  25292244.222      -19234.622        -558.747          41.000
  19502200.073    -4711790.902        1347.697          55.000
  21620487.287    -8567346.999        3553.903          49.000
  23579269.192      823724.008       -1321.443          46.000
  25335575.102    -1616143.857        1442.820          35.000
  20477135.379     4409593.117       -2665.397          53.000
  23567909.929    -4419832.454        1920.881          41.000
  19266657.326    -2100638.092          93.180          53.000
  23707097.097     6747918.853       -3283.900          51.000
  22948863.795    -7436129.721        4097.724          47.000
  21774995.516    -6112073.688        2216.745          52.000
  23769505.482     -645185.745        -453.914          44.000
  22339044.735    -6337341.765        2568.096          52.000
  21338531.407    -4098289.712        1539.723          51.000
  21369347.859    -2105749.102          53.618          49.000
  22175078.437     5785813.157       -3094.581          49.000
  24431917.382                        1199.984           1.000
  21647802.848     7056365.178       -3739.148          51.000
  24910315.013    -2790790.858        3532.153          43.000
  25223362.141    -1063387.753        3476.414          45.000
  23897586.958    -7170352.853        2946.279          45.000
 13 11  2 21 42  8.0000000  0 21G 7R 2R18R 9G 8R 1R10R17G 5R 3G15G16
                                G18G21G26G29G 9R24G27G22G 6
  25292350.400      -18675.622        -559.424          41.000
  19501947.691    -4713138.246        1346.875          55.000
  21619823.238    -8570900.756        3553.416          49.000
  23579515.284      825045.841       -1322.355          46.000
  25335297.882    -1617586.219        1441.971          35.000
  20477635.497     4412258.712       -2665.965          52.000
  23567549.582    -4421753.055        1920.078          41.000
  19266639.421    -2100730.891          92.277          53.000
  23707721.191     6751202.844       -3284.164          51.000
  22948099.287    -7440227.367        4097.380          47.000
  21774574.021    -6114290.139        2216.098          52.000
  23769590.824     -644731.534        -454.536          44.000
  22338554.945    -6339909.705        2567.686          52.000
  21338237.855    -4099829.263        1539.294          50.000
  21369338.532    -2105802.346          52.764          49.000
  22175669.509     5788907.942       -3095.100          49.000
  24431703.883                        1192.875          14.000
  21648502.956     7060104.502       -3739.626          51.000
  24909644.496    -2794322.854        3531.738          43.000
  25222700.451    -1066864.099        3476.180          45.000
  23897027.764    -7173298.994        2945.965          45.000
 13 11  2 21 42  9.0000000  0 21G 7R 2R18R 9G 8R 1R10R17G 5R 3G15G16
                                G18G21G26G29G 9R24G27G22G 6
  25292455.899      -18115.952        -560.034          41.000
  19501695.917    -4714484.826        1346.200          55.000
  21619157.117    -8574454.088        3553.108          49.000
  23579766.022      826368.472       -1323.012          46.000
  25335024.665    -1619028.006        1441.562          35.000
  20478134.471     4414924.874       -2666.477          53.000
  23567189.379    -4423672.851        1919.394          41.000
  19266620.480    -2100822.842          91.513          54.000
  23708346.356     6754487.029       -3284.280          51.000
  22947333.492    -7444324.711        4097.183          48.000
  21774153.099    -6116505.980        2215.514          52.000
  23769679.276     -644276.605        -455.273          45.000
  22338066.048    -6342477.314        2567.399          51.000
  21337943.302    -4101368.469        1539.010          51.000
  21369328.418    -2105854.713          51.862          49.000
  22176257.078     5792003.140       -3095.413          49.000
  24431494.887                        1192.531          14.000
  21649203.029     7063844.299       -3740.062          51.000
  24908972.049    -2797854.608        3531.578          43.000
  25222038.439    -1070340.322        3476.144          45.000
  23896465.641    -7176244.736        2945.537          44.000
 13 11  2 21 42 10.0000000  0 21G 7R 2R18R 9G 8R 1R10R17G 5R 3G15G16
                                G18G21G26G29G 9R24G27G22G 6
  25292563.184      -17555.622        -560.496          41.000
  19501445.858    -4715830.672        1345.561          55.000
  21618492.568    -8578006.982        3552.797          49.000
  23580014.544      827691.967       -1323.801          46.000
  25334752.877    -1620469.196        1440.952          35.000
  20478633.768     4417591.618       -2666.938          53.000
  23566830.890    -4425591.818        1918.643          41.000
  19266605.005    -2100913.929          90.754          54.000
  23708971.558     6757771.422       -3284.362          51.000
  22946568.913    -7448421.746        4096.918          48.000
  21773730.675    -6118721.206        2215.047          52.000
  23769766.334     -643820.974        -455.889          45.000
  22337578.653    -6345044.575        2567.215          52.000
  21337651.143    -4102907.303        1538.757          51.000
  21369317.839    -2105906.199          51.171          49.000
  22176846.720     5795098.763       -3095.711          49.000
  24431275.599                        1194.446          14.000
  21649903.173     7067584.561       -3740.415          51.000
  24908297.672    -2801386.107        3531.494          43.000
  25221377.321    -1073816.415        3476.113          45.000
  23895905.161    -7179190.081        2945.255          44.000
 13 11  2 21 42 11.0000000  0 21G 7R 2R18R 9G 8R 1R10R17G 5R 3G15G16
                                G18G21G26G29G 9R24G27G22G 6
  25292671.113      -16994.711        -561.201          42.000
  19501191.975    -4717175.878        1344.920          55.000
  21617827.554    -8581559.561        3552.491          49.000
  23580264.461      829016.204       -1324.604          46.000
  25334475.407    -1621909.918        1440.484          35.000
  20479134.744     4420258.826       -2667.390          53.000
  23566469.364    -4427510.092        1917.993          41.000
  19266588.852    -2101004.252          90.006          54.000
  23709596.580     6761055.915       -3284.503          51.000
  22945803.833    -7452518.582        4096.744          47.000
  21773309.395    -6120935.923        2214.484          52.000
  23769852.498     -643364.731        -456.436          45.000
  22337087.755    -6347611.586        2566.938          52.000
  21337359.056    -4104445.890        1538.535          51.000
  21369307.976    -2105956.917          50.365          49.000
  22177436.290     5798194.710       -3096.049          49.000
  24431020.250                        1195.896           1.000
  21650600.208     7071325.176       -3740.729          51.000
  24907628.120    -2804917.434        3531.171          43.000
  25220714.273    -1077292.482        3476.163          46.000
  23895344.002    -7182135.122        2944.956          45.000
 13 11  2 21 42 12.0000000  0 21G 7R 2R18R 9G 8R 1R10R17G 5R 3G15G16
                                G18G21G26G29G 9R24G27G22G 6
  25292778.685      -16433.273        -561.665          42.000
  19500940.843    -4718520.395        1344.258          55.000
  21617162.791    -8585111.826        3552.216          49.000
  23580510.088      830341.224       -1325.314          46.000
  25334203.190    -1623350.154        1440.095          35.000
  20479630.966     4422926.500       -2667.817          53.000
  23566112.019    -4429427.646        1917.297          42.000
  19266572.055    -2101093.804          89.294          54.000
  23710221.567     6764340.496       -3284.556          51.000
  22945040.468    -7456615.217        4096.599          48.000
  21772888.329    -6123150.146        2214.053          52.000
  23769939.163     -642907.879        -457.111          45.000
  22336601.861    -6350178.367        2566.723          52.000
  21337065.539    -4105984.218        1538.315          51.000
  21369300.757    -2106006.860          49.688          49.000
  22178026.075     5801290.961       -3096.341          49.000
  24430756.718                        1196.985           1.000
  21651299.923     7075066.154       -3741.089          51.000
  24906954.529    -2808448.646        3531.289          43.000
  25220055.192    -1080768.533        3476.173          46.000
  23894783.522    -7185079.885        2944.729          45.000
 13 11  2 21 42 13.0000000  0 21G 7R 2R18R 9G 8R 1R10R17G 5R 3G15G16
                                G18G21G26G29G 9R24G27G22G 6
  25292885.720      -15871.182        -562.326          41.000
  19500690.320    -4719864.076        1343.400          55.000
  21616496.812    -8588663.652        3551.749          49.000
  23580760.576      831667.136       -1326.202          46.000
  25333928.114    -1624789.801        1439.540          35.000
  20480133.408     4425594.752       -2668.404          53.000
  23565755.640    -4431344.367        1916.316          41.000
  19266556.723    -2101182.462          88.344          53.000
  23710846.983     6767625.284       -3284.769          51.000
  22944275.566    -7460711.538        4096.279          48.000
  21772465.798    -6125363.758        2213.457          52.000
  23770028.866     -642450.334        -457.730          45.000
  22336112.071    -6352744.805        2566.385          52.000
  21336773.095    -4107522.185        1537.913          51.000
  21369288.606    -2106055.911          48.672          49.000
  22178615.074     5804387.640       -3096.786          50.000
  24430559.337                        1195.985           1.000
  21651998.280     7078807.610       -3741.576          51.000
  24906282.976    -2811979.568        3530.806          43.000
  25219391.823    -1084244.442        3475.926          46.000
  23894223.793    -7188024.244        2944.217          45.000
 13 11  2 21 42 14.0000000  0 21G 7R 2R18R 9G 8R 1R10R17G 5R 3G15G16
                                G18G21G26G29G 9R24G27G22G 6
  25292991.291      -15308.536        -562.869          41.000
  19500438.688    -4721207.101        1342.798          55.000
  21615833.872    -8592215.193        3551.471          49.000
  23581009.349      832993.795       -1326.931          46.000
  25333652.217    -1626229.004        1439.151          35.000
  20480632.489     4428263.420       -2668.782          53.000
  23565395.972    -4433260.422        1915.817          42.000
  19266540.999    -2101270.399          87.700          54.000
  23711471.791     6770910.143       -3284.843          51.000
  22943510.451    -7464807.699        4096.203          48.000
  21772045.233    -6127576.892        2212.966          52.000
  23770115.137     -641992.205        -458.331          45.000
  22335624.890    -6355311.030        2566.198          52.000
  21336481.901    -4109059.926        1537.711          51.000
  21369281.208    -2106104.227          48.047          49.000
  22179204.537     5807484.600       -3097.023          50.000
  24430301.665                        1195.985           1.000
  21652699.782     7082549.393       -3741.871          51.000
  24905609.778    -2815510.390        3530.778          43.000
  25218731.348    -1087720.368        3475.976          46.000
  23893664.385    -7190968.337        2944.028          45.000
 13 11  2 21 42 15.0000000  0 21G 7R 2R18R 9G 8R 1R10R17G 5R 3G15G16
                                G18G21G26G29G 9R24G27G22G 6
  25293098.755      -14745.259        -563.388          42.000
  19500187.414    -4722549.359        1341.994          55.000
  21615168.715    -8595766.318        3551.044          49.000
  23581257.120      834321.306       -1327.836          46.000
  25333379.607    -1627667.607        1438.708          35.000
  20481132.286     4430932.636       -2669.386          53.000
  23565041.129    -4435175.661        1914.948          42.000
  19266524.202    -2101357.486          86.785          53.000
  23712097.993     6774195.202       -3285.048          51.000
  22942746.050    -7468903.542        4095.801          47.000
  21771624.775    -6129789.426        2212.371          52.000
  23770203.589     -641533.369        -459.037          45.000
  22335135.600    -6357876.918        2565.844          52.000
  21336188.421    -4110597.314        1537.358          51.000
  21369271.773    -2106151.667          47.148          49.000
  22179794.537     5810581.991       -3097.527          50.000
  24430104.534                        1193.985           1.000
  21653397.996     7086291.636       -3742.395          51.000
  24904941.870    -2819040.958        3530.579          43.000
  25218073.732    -1091196.165        3475.847          46.000
  23893103.084    -7193912.055        2943.751          45.000
 13 11  2 21 42 16.0000000  0 21G 7R 2R18R 9G 8R 1R10R17G 5R 3G15G16
                                G18G21G26G29G 9R24G27G22G 6
  25293206.255      -14181.413        -564.199          42.000
  19499936.711    -4723890.937        1341.035          55.000
  21614504.273    -8599317.069        3550.333          49.000
  23581505.822      835649.605       -1328.916          46.000
  25333106.818    -1629105.692        1437.649          35.000
  20481630.975     4433602.337       -2670.143          53.000
  23564682.784    -4437090.154        1913.954          42.000
  19266508.084    -2101443.808          85.728          53.000
  23712722.945     6777480.394       -3285.455          51.000
  22941981.184    -7472999.161        4095.299          47.000
  21771204.102    -6132001.423        2211.570          52.000
  23770289.646     -641073.896        -459.937          45.000
  22334648.812    -6360442.531        2565.292          52.000
  21335895.261    -4112134.409        1536.746          51.000
  21369263.375    -2106198.293          46.039          50.000
  22180384.000     5813679.713       -3098.084          50.000
  24429847.256                        1193.985           1.000
  21654098.462     7090034.290       -3743.117          51.000
  24904267.421    -2822571.348        3530.176          43.000
  25217408.969    -1094671.921        3475.583          45.000
  23892544.569    -7196855.421        2943.051          45.000
 13 11  2 21 42 17.0000000  0 21G 7R 2R18R 9G 8R 1R10R17G 5R 3G15G16
                                G18G21G26G29G 9R24G27G22G 6
  25293313.612      -13616.920        -564.689          41.000
  19499685.938    -4725231.787        1340.506          55.000
  21613838.223    -8602867.408        3550.180          49.000
  23581756.095      836978.753       -1329.570          46.000
  25332832.279    -1630543.211        1437.339          35.000
  20482129.663     4436272.578       -2670.493          53.000
  23564323.402    -4439003.860        1913.372          42.000
  19266493.967    -2101529.314          85.090          53.000
  23713347.681     6780765.769       -3285.396          51.000
  22941214.496    -7477094.508        4095.174          47.000
  21770784.002    -6134212.828        2211.207          52.000
  23770377.454     -640613.723        -460.528          45.000
  22334160.809    -6363007.822        2565.232          52.000
  21335603.710    -4113671.169        1536.714          51.000
  21369255.191    -2106244.068          45.407          50.000
  22180974.571     5816777.842       -3098.265          50.000
  24429650.375                        1192.985           1.000
  21654797.534     7093777.395       -3743.292          51.000
  24903595.653    -2826101.482        3530.047          43.000
  25216748.708    -1098147.565        3475.639          46.000
  23891982.088    -7199798.403        2942.913          45.000
 13 11  2 21 42 18.0000000  0 21G 7R 2R18R 9G 8R 1R10R17G 5R 3G15G16
                                G18G21G26G29G 9R24G27G22G 6
  25293421.291      -13051.855        -565.212          41.000
  19499436.200    -4726571.968        1339.890          55.000
  21613175.604    -8606417.432        3549.911          49.000
  23582005.296      838308.640       -1330.194          46.000
  25332555.666    -1631980.236        1436.676          34.000
  20482629.710     4438943.266       -2670.877          52.000
  23563964.878    -4440916.848        1912.619          42.000
  19266477.706    -2101614.062          84.395          53.000
  23713972.954     6784051.227       -3285.443          51.000
  22940452.811    -7481189.678        4095.101          47.000
  21770363.007    -6136423.739        2210.740          52.000
  23770464.262     -640152.973        -461.055          45.000
  22333672.127    -6365572.885        2565.037          52.000
  21335311.230    -4115207.675        1536.432          51.000
  21369245.184    -2106289.060          44.655          50.000
  22181563.463     5819876.276       -3098.554          50.000
  24429393.240                        1192.985           1.000
  21655499.107     7097520.858       -3743.617          50.000
  24902923.564    -2829631.484        3529.942          43.000
  25216085.231    -1101623.203        3475.725          45.000
  23891424.110    -7202741.103        2942.682          44.000
 13 11  2 21 42 19.0000000  0 21G 7R 2R18R 9G 8R 1R10R17G 5R 3G15G16
                                G18G21G26G29G 9R24G27G22G 6
  25293526.718      -12486.128        -565.644          41.000
  19499186.320    -4727911.322        1339.414          55.000
  21612510.090    -8609966.988        3549.781          49.000
  23582257.035      839639.407       -1330.799          46.000
  25332282.806    -1633416.689        1436.706          34.000
  20483131.294     4441614.560       -2671.105          52.000
  23563604.781    -4442828.995        1912.151          42.000
  19266462.768    -2101697.906          83.903          53.000
  23714598.156     6787336.923       -3285.356          50.000
  22939685.658    -7485284.499        4095.183          47.000
  21769943.979    -6138634.007        2210.432          52.000
  23770553.143     -639691.480        -461.440          45.000
  22333184.446    -6368137.579        2564.977          52.000
  21335018.285    -4116743.798        1536.388          51.000
  21369238.001    -2106333.160          44.115          49.000
  22182152.605     5822975.160       -3098.657          50.000
  24429196.609                        1191.985           1.000
  21656198.394     7101264.824       -3743.708          50.000
  24902251.938    -2833161.206        3530.088          43.000
  25215425.829    -1105098.690        3475.878          45.000
  23890862.665    -7205683.403        2942.554          44.000
 13 11  2 21 42 20.0000000  0 21G 7R 2R18R 9G 8R 1R10R17G 5R 3G15G16
                                G18G21G26G29G 9R24G27G22G 6
  25293634.397      -11919.816        -566.725          41.000
  19498935.510    -4729249.988        1338.299          55.000
  21611847.507    -8613516.214        3549.047          49.000
  23582505.129      840970.945       -1332.010          45.000
  25332011.804    -1634852.617        1435.889          34.000
  20483631.233     4444286.350       -2672.038          53.000
  23563245.399    -4444740.417        1911.167          43.000
  19266446.650    -2101780.957          82.640          54.000
  23715222.678     6790622.731       -3285.905          51.000
  22938922.508    -7489379.085        4094.444          47.000
  21769524.200    -6140843.756        2209.433          53.000
  23770641.594     -639229.372        -462.451          45.000
  22332696.085    -6370702.007        2564.248          52.000
  21334726.449    -4118279.646        1535.685          51.000
  21369229.423    -2106376.455          42.853          49.000
  22182742.211     5826074.369       -3099.339          49.000
  24428939.688                        1191.985           1.000
  21656900.503     7105009.187       -3744.594          51.000
  24901582.029    -2836690.748        3529.466          43.000
  25214762.602    -1108574.122        3475.401          45.000
  23890304.544    -7208625.400        2941.801          45.000
 13 11  2 21 42 21.0000000  0 21G 7R 2R18R 9G 8R 1R10R17G 5R 3G15G16
                                G18G21G26G29G 9R24G27G22G 6
  25293742.183      -11352.818        -567.130          41.000
  19498686.344    -4730587.845        1337.708          55.000
  21611181.671    -8617064.962        3548.748          49.000
  23582752.829      842303.396       -1332.668          45.000
  25331739.516    -1636287.920        1435.254          34.000
  20484129.886     4446958.757       -2672.445          52.000
  23562890.735    -4446650.971        1910.443          42.000
  19266433.034    -2101863.124          81.989          54.000
  23715849.809     6793908.781       -3285.940          51.000
  22938158.535    -7493473.342        4094.376          48.000
  21769102.955    -6143052.850        2208.975          53.000
  23770730.511     -638766.502        -462.984          45.000
  22332208.583    -6373266.061        2564.102          52.000
  21334435.041    -4119815.084        1535.438          51.000
  21369220.918    -2106418.838          42.119          49.000
  22183332.353     5829174.051       -3099.698          49.000
  24428708.606                        1202.423          24.000
  21657602.935     7108754.058       -3744.894          51.000
  24900911.083    -2840219.986        3529.215          43.000
  25214101.091    -1112049.390        3475.343          45.000
  23889743.064    -7211566.955        2941.570          44.000
 13 11  2 21 42 22.0000000  0 21G 7R 2R18R 9G 8R 1R10R17G 5R 3G15G16
                                G18G21G26G29G 9R24G27G22G 6
  25293849.254      -10785.210        -567.646          41.000
  19498435.999    -4731924.968        1336.989          55.000
  21610518.766    -8620613.360        3548.462          50.000
  23583004.246      843636.666       -1333.406          45.000
  25331465.727    -1637722.679        1434.709          34.000
  20484631.184     4449631.677       -2672.908          52.000
  23562533.926    -4448560.761        1909.620          42.000
  19266418.810    -2101944.500          81.269          54.000
  23716474.653     6797194.971       -3286.013          51.000
  22937393.205    -7497567.336        4094.159          47.000
  21768682.533    -6145261.404        2208.544          52.000
  23770817.068     -638303.000        -463.526          45.000
  22331721.080    -6375829.829        2563.875          52.000
  21334142.989    -4121350.241        1535.229          51.000
  21369215.664    -2106460.407          41.412          49.000
  22183921.388     5832274.087       -3100.032          49.000
  24428516.979                        1190.985           1.000
  21658303.865     7112499.332       -3745.219          51.000
  24900238.600    -2843749.050        3529.253          43.000
  25213440.688    -1115524.607        3475.434          45.000
  23889185.086    -7214508.173        2941.320          44.000
 13 11  2 21 42 23.0000000  0 21G 7R 2R18R 9G 8R 1R10R17G 5R 3G15G16
                                G18G21G26G29G 9R24G27G22G 6
  25293959.005      -10217.152        -568.112          40.000
  19498185.726    -4733261.485        1336.395          55.000
  21609854.253    -8624161.509        3548.205          49.000
  23583254.520      844970.625       -1334.186          45.000
  25331195.405    -1639157.031        1434.216          34.000
  20485132.374     4452304.988       -2673.338          52.000
  23562176.367    -4450469.898        1908.926          42.000
  19266405.694    -2102025.189          80.541          54.000
  23717098.997     6800481.191       -3286.130          51.000
  22936628.768    -7501661.191        4093.926          47.000
  21768262.075    -6147469.519        2208.062          52.000
  23770906.735     -637838.960        -464.138          45.000
  22331233.327    -6378393.428        2563.612          52.000
  21333851.045    -4122885.204        1535.030          51.000
  21369205.658    -2106501.271          40.677          49.000
  22184511.065     5835374.364       -3100.285          49.000
  24428277.248                        1191.113           1.000
  21659004.188     7116244.906       -3745.557          51.000
  24899566.332    -2847278.033        3529.016          43.000
  25212776.675    -1118999.873        3475.421          45.000
  23888624.427    -7217449.140        2940.898          45.000
 13 11  2 21 42 24.0000000  0 21G 7R 2R18R 9G 8R 1R10R17G 5R 3G15G16
                                G18G21G26G29G 9R24G27G22G 6
  25294066.934       -9648.497        -568.774          40.000
  19497935.166    -4734597.327        1335.768          55.000
  21609189.418    -8627709.296        3547.794          50.000
  23583504.186      846305.351       -1334.909          46.000
  25330921.115    -1640590.893        1433.744          34.000
  20485632.278     4454978.779       -2673.798          52.000
  23561817.521    -4452378.316        1908.360          42.000
  19266389.612    -2102105.094          79.725          54.000
  23717724.877     6803767.529       -3286.201          51.000
  22935864.903    -7505754.833        4093.740          47.000
  21767841.974    -6149677.107        2207.518          52.000
  23770992.899     -637374.294        -464.809          45.000
  22330744.252    -6380956.772        2563.390          52.000
  21333559.065    -4124419.892        1534.732          50.000
  21369198.045    -2106541.348          39.839          49.000
  22185100.457     5838474.982       -3100.609          49.000
  24428024.830                        1190.005          25.000
  21659704.189     7119990.869       -3745.917          51.000
  24898894.027    -2850806.848        3528.922          43.000
  25212118.844    -1122475.088        3475.354          44.000
  23888064.555    -7220389.818        2940.780          45.000
 13 11  2 21 42 25.0000000  0 21G 7R 2R18R 9G 8R 1R10R17G 5R 3G15G16
                                G18G21G26G29G 9R24G27G22G 6
  25294173.862       -9079.292        -569.577          40.000
  19497684.214    -4735932.515        1334.776          55.000
  21608526.406    -8631256.786        3547.252          50.000
  23583756.890      847640.806       -1335.920          46.000
  25330650.435    -1642024.284        1433.256          34.000
  20486134.397     4457652.991       -2674.507          52.000
  23561457.246    -4454286.040        1907.316          41.000
  19266375.639    -2102184.248          78.678          54.000
  23718350.472     6807053.950       -3286.577          51.000
  22935099.394    -7509848.294        4093.246          48.000
  21767422.088    -6151884.211        2206.801          52.000
  23771082.066     -636909.054        -465.650          45.000
  22330258.286    -6383519.905        2562.953          52.000
  21333266.728    -4125954.338        1534.288          51.000
  21369192.041    -2106580.668          38.856          50.000
  22185691.779     5841575.892       -3101.104          50.000
  24427787.494                        1194.611          25.000
  21660405.155     7123737.182       -3746.590          51.000
  24898223.046    -2854335.515        3528.523          43.000
  25211454.474    -1125950.305        3475.183          45.000
  23887507.292    -7223330.203        2940.191          45.000
 13 11  2 21 42 26.0000000  0 21G 7R 2R18R 9G 8R 1R10R17G 5R 3G15G16
                                G18G21G26G29G 9R24G27G22G 6
  25294282.256       -8509.453        -570.287          40.000
  19497435.549    -4737266.943        1334.035          55.000
  21607861.071    -8634803.881        3546.906          50.000
  23584006.127      848977.125       -1336.786          45.000
  25330379.862    -1643457.081        1432.523          34.000
  20486634.230     4460327.729       -2675.034          53.000
  23561100.652    -4456192.971        1906.490          41.000
  19266361.522    -2102262.556          77.862          54.000
  23718975.745     6810340.545       -3286.722          51.000
  22934335.922    -7513941.470        4092.974          48.000
  21767003.917    -6154090.731        2206.188          52.000
  23771171.375     -636443.119        -466.312          46.000
  22329769.247    -6386082.718        2562.622          52.000
  21332975.070    -4127488.449        1533.892          51.000
  21369183.822    -2106619.136          37.979          50.000
  22186283.637     5844677.201       -3101.543          50.000
  24427561.129                        1189.916          23.000
  21661108.337     7127483.936       -3747.026          51.000
  24897552.350    -2857863.950        3528.238          43.000
  25210793.749    -1129425.412        3475.048          45.000
  23886948.706    -7226270.228        2939.850          45.000
 13 11  2 21 42 27.0000000  0 21G 7R 2R18R 9G 8R 1R10R17G 5R 3G15G16
                                G18G21G26G29G 9R24G27G22G 6
  25294391.972       -7938.912        -570.511          40.000
  19497187.741    -4738600.596        1333.635          55.000
  21607197.487    -8638350.515        3546.765          50.000
  23584257.437      850314.328       -1337.265          45.000
  25330108.039    -1644889.287        1432.229          34.000
  20487136.885     4463003.037       -2675.209          53.000
  23560740.520    -4458099.079        1906.112          41.000
  19266346.798    -2102339.975          77.362          53.000
  23719601.697     6813627.354       -3286.544          51.000
  22933571.664    -7518034.335        4093.117          48.000
  21766582.565    -6156296.624        2205.976          52.000
  23771259.184     -635976.460        -466.641          46.000
  22329283.209    -6388645.162        2562.618          52.000
  21332683.733    -4129022.184        1533.911          51.000
  21369177.067    -2106656.714          37.481          50.000
  22186871.956     5847778.943       -3101.625          50.000
  24427332.656                        1187.617          23.000
  21661806.694     7131231.171       -3747.089          51.000
  24896879.867    -2861392.122        3528.423          43.000
  25210131.988    -1132900.352        3475.238          45.000
  23886386.868    -7229209.857        2939.885          45.000
 13 11  2 21 42 28.0000000  0 21G 7R 2R18R 9G 8R 1R10R17G 5R 3G15G16
                                G18G21G26G29G 9R24G27G22G 6
  25294499.007       -7367.764        -571.345          40.000
  19496939.040    -4739933.491        1332.664          55.000
  21606533.224    -8641896.749        3546.196          49.000
  23584508.747      851652.358       -1338.275          45.000
  25329836.394    -1646320.954        1431.545          34.000
  20487635.967     4465678.884       -2675.941          52.000
  23560385.534    -4460004.369        1905.093          40.000
  19266332.824    -2102416.551          76.314          53.000
  23720226.112     6816914.346       -3286.914          51.000
  22932807.621    -7522126.926        4092.564          48.000
  21766162.929    -6158501.930        2205.212          53.000
  23771348.028     -635509.124        -467.593          46.000
  22328795.563    -6391207.292        2562.126          52.000
  21332391.861    -4130555.575        1533.430          51.000
  21369169.741    -2106693.431          36.489          50.000
  22187465.351     5850881.080       -3102.189          50.000
  24427114.010                        1188.175          23.000
  21662510.054     7134978.842       -3747.745          51.000
  24896209.886    -2864920.060        3527.966          43.000
  25209469.261    -1136375.196        3474.902          45.000
  23885829.140    -7232149.101        2939.295          44.000
 13 11  2 21 42 29.0000000  0 21G 7R 2R18R 9G 8R 1R10R17G 5R 3G15G16
                                G18G21G26G29G 9R24G27G22G 6
  25294608.151       -6796.058        -571.806          39.000
  19496688.659    -4741265.692        1331.967          55.000
  21605870.247    -8645442.640        3545.806          49.000
  23584759.163      852991.136       -1339.060          45.000
  25329566.965    -1647752.098        1430.943          34.000
  20488138.694     4468355.205       -2676.481          52.000
  23560028.796    -4461908.950        1904.344          40.000
  19266320.173    -2102492.370          75.553          53.000
  23720851.778     6820201.434       -3287.049          51.000
  22932044.077    -7526219.316        4092.386          47.000
  21765743.079    -6160706.719        2204.670          53.000
  23771438.160     -635041.174        -468.124          46.000
  22328307.846    -6393769.181        2561.900          52.000
  21332101.132    -4132088.705        1533.120          50.000
  21369163.987    -2106729.358          35.657          50.000
  22188055.172     5853983.540       -3102.503          50.000
  24426891.434                        1188.481          24.000
  21663209.162     7138726.881       -3748.109          51.000
  24895537.296    -2868447.833        3527.875          43.000
  25208809.752    -1139850.011        3474.865          45.000
  23885268.446    -7235088.043        2938.947          44.000
 13 11  2 21 42 30.0000000  0 21G 7R 2R18R 9G 8R 1R10R17G 5R 3G15G16
                                G18G21G26G29G 9R24G27G22G 6
  25294716.473       -6223.797        -572.445          39.000
  19496440.065    -4742597.227        1331.154          55.000
  21605205.841    -8648988.208        3545.353          50.000
  23585010.866      854330.672       -1339.894          45.000
  25329296.035    -1649182.763        1430.274          34.000
  20488639.313     4471031.986       -2677.032          52.000
  23559668.057    -4463812.815        1903.403          40.000
  19266308.129    -2102567.443          74.669          53.000
  23721477.658     6823488.618       -3287.256          50.000
  22931280.034    -7530311.497        4092.052          47.000
  21765324.908    -6162911.000        2204.051          52.000
  23771527.183     -634572.619        -468.901          46.000
  22327819.522    -6396330.828        2561.544          52.000
  21331808.044    -4133621.578        1532.762          51.000
  21369157.268    -2106764.525          34.857          50.000
  22188645.528     5857086.310       -3102.919          50.000
  24426665.748                        1193.943          25.000
  21663908.841     7142475.296       -3748.614          51.000
  24894865.671    -2871975.450        3527.552          43.000
  25208146.704    -1143324.807        3474.807          45.000
  23884709.825    -7238026.675        2938.414          45.000
 13 11  2 21 42 31.0000000  0 21G 7R 2R18R 9G 8R 1R10R17G 5R 3G15G16
                                G18G21G26G29G 9R24G27G22G 6
  25294824.009       -5650.794        -572.955          39.000
  19496190.328    -4743927.935        1330.578          55.000
  21604541.936    -8652533.305        3545.121          50.000
  23585263.320      855671.143       -1340.657          45.000
  25329023.067    -1650612.787        1429.831          34.000
  20489140.932     4473709.376       -2677.369          52.000
  23559308.496    -4465715.828        1902.738          39.000
  19266292.047    -2102641.629          74.022          54.000
  23722103.181     6826776.050       -3287.302          51.000
  22930516.312    -7534403.290        4091.907          47.000
  21764904.986    -6165114.619        2203.604          52.000
  23771617.422     -634103.300        -469.423          46.000
  22327333.484    -6398892.081        2561.337          52.000
  21331515.957    -4135154.041        1532.522          51.000
  21369149.835    -2106798.752          34.009          50.000
  22189234.849     5860189.553       -3103.142          50.000
  24426435.095                        1185.991          24.000
  21664610.415     7146224.224       -3748.925          51.000
  24894193.938    -2875502.766        3527.422          43.000
  25207487.587    -1146799.420        3474.819          44.000
  23884152.704    -7240964.857        2938.216          45.000
 13 11  2 21 42 32.0000000  0 21G 7R 2R18R 9G 8R 1R10R17G 5R 3G15G16
                                G18G21G26G29G 9R24G27G22G 6
  25294936.941       -5077.192        -574.040          39.000
  19495940.090    -4745257.935        1329.598          55.000
  21603879.316    -8656078.063        3544.540          50.000
  23585514.487      857012.384       -1341.674          45.000
  25328751.387    -1652042.336        1429.375          34.000
  20489641.265     4476387.250       -2678.164          52.000
  23558952.331    -4467618.127        1901.949          39.000
  19266280.289    -2102715.014          72.943          54.000
  23722729.061     6830063.581       -3287.617          51.000
  22929752.482    -7538494.854        4091.422          47.000
  21764485.028    -6167317.731        2202.797          53.000
  23771705.909     -633633.386        -470.168          46.000
  22326845.660    -6401453.097        2560.865          53.000
  21331224.227    -4136686.244        1532.063          51.000
  21369143.259    -2106832.203          33.051          50.000
  22189824.705     5863293.116       -3103.786          50.000
  24426221.167                        1189.398          24.000
  21665310.345     7149973.533       -3749.544          51.000
  24893525.744    -2879029.914        3526.962          43.000
  25206826.683    -1150274.007        3474.491          44.000
  23883591.474    -7243902.742        2937.693          45.000
 13 11  2 21 42 33.0000000  0 21G 7R 2R18R 9G 8R 1R10R17G 5R 3G15G16
                                G18G21G26G29G 9R24G27G22G 6
  25295044.048       -4503.061        -574.399          39.000
  19495690.924    -4746587.245        1329.027          55.000
  21603216.090    -8659622.485        3544.300          50.000
  23585764.081      858354.401       -1342.413          45.000
  25328477.312    -1653471.357        1428.912          34.000
  20490143.313     4479065.598       -2678.569          52.000
  23558590.018    -4469519.672        1901.258          39.000
  19266268.282    -2102787.590          72.224          54.000
  23723353.763     6833351.242       -3287.700          50.000
  22928988.331    -7542586.197        4091.253          48.000
  21764065.642    -6169520.305        2202.353          52.000
  23771796.862     -633162.831        -470.727          46.000
  22326359.086    -6404013.836        2560.656          52.000
  21330932.069    -4138218.157        1531.796          51.000
  21369138.327    -2106864.844          32.212          50.000
  22190417.599     5866397.020       -3104.031          50.000
  24426000.770                        1194.624          24.000
  21666009.810     7153723.222       -3749.824          50.000
  24892851.653    -2882556.886        3526.921          43.000
  25206164.886    -1153748.542        3474.512          44.000
  23883030.923    -7246840.318        2937.406          45.000
 13 11  2 21 42 34.0000000  0 21G 7R 2R18R 9G 8R 1R10R17G 5R 3G15G16
                                G18G21G26G29G 9R24G27G22G 6
  25295152.370       -3928.245        -574.906          39.000
  19495442.867    -4747915.751        1328.287          55.000
  21602550.433    -8663166.432        3543.928          50.000
  23586014.855      859697.313       -1343.190          45.000
  25328209.562    -1654899.758        1428.314          34.000
  20490644.646     4481744.552       -2679.081          52.000
  23558234.890    -4471420.343        1900.357          39.000
  19266254.701    -2102859.250          71.426          54.000
  23723981.644     6836639.142       -3287.818          51.000
  22928223.430    -7546677.220        4091.025          48.000
  21763645.470    -6171722.220        2201.831          52.000
  23771885.064     -632691.529        -471.386          46.000
  22325871.941    -6406574.185        2560.371          52.000
  21330640.268    -4139749.669        1531.514          51.000
  21369131.215    -2106896.573          31.522          50.000
  22191005.383     5869501.388       -3104.354          49.000
  24425811.001                        1181.985           1.000
  21666712.634     7157473.429       -3750.262          50.000
  24892182.065    -2886083.573        3526.858          43.000
  25205503.661    -1157222.920        3474.493          45.000
  23882475.446    -7249777.460        2937.166          45.000
 13 11  2 21 42 35.0000000  0 21G 7R 2R18R 9G 8R 1R10R17G 5R 3G15G16
                                G18G21G26G29G 9R24G27G22G 6
  25295262.122       -3352.712        -575.618          39.000
  19495193.594    -4749243.438        1327.438          54.000
  21601889.136    -8666709.898        3543.410          49.000
  23586265.772      861041.121       -1344.028          45.000
  25327941.527    -1656327.517        1427.580          34.000
  20491147.981     4484424.119       -2679.738          52.000
  23557878.009    -4473320.164        1899.595          39.000
  19266241.514    -2102930.011          70.508          54.000
  23724606.774     6839927.285       -3288.102          51.000
  22927459.887    -7550767.889        4090.646          47.000
  21763226.870    -6173923.481        2201.111          52.000
  23771976.661     -632219.485        -472.104          46.000
  22325384.010    -6409134.144        2559.907          52.000
  21330349.217    -4141280.771        1531.046          51.000
  21369124.568    -2106927.376          30.557          50.000
  22191597.956     5872606.226       -3104.929          49.000
  24425573.879                        1180.590          20.000
  21667415.065     7161224.156       -3750.832          50.000
  24891511.155    -2889609.916        3526.168          43.000
  25204842.971    -1160697.126        3474.290          45.000
  23881914.752    -7252714.151        2936.696          45.000
 13 11  2 21 42 36.0000000  0 21G 7R 2R18R 9G 8R 1R10R17G 5R 3G15G16
                                G18G21G26G29G 9R24G27G22G 6
  25295372.874       -2776.641        -576.117          40.000
  19494945.286    -4750570.443        1326.947          54.000
  21601225.588    -8670253.043        3543.253          50.000
  23586518.833      862385.690       -1344.682          45.000
  25327667.774    -1657754.817        1427.394          34.000
  20491649.314     4487104.139       -2679.978          52.000
  23557523.488    -4475219.262        1898.971          39.000
  19266227.969    -2103000.058          69.988          54.000
  23725232.583     6843215.519       -3288.009          51.000
  22926696.451    -7554858.355        4090.638          47.000
  21762806.233    -6176124.236        2200.743          52.000
  23772065.898     -631746.808        -472.869          46.000
  22324897.758    -6411693.867        2559.876          52.000
  21330057.523    -4142811.637        1531.036          50.000
  21369118.278    -2106957.399          29.860          50.000
  22192186.204     5875711.368       -3105.045          49.000
  24425334.935                        1186.672          22.000
  21668118.855     7164975.239       -3750.949          50.000
  24890838.922    -2893136.160        3526.416          43.000
  25204182.354    -1164171.307        3474.463          45.000
  23881356.095    -7255650.556        2936.556          45.000
 13 11  2 21 42 37.0000000  0 21G 7R 2R18R 9G 8R 1R10R17G 5R 3G15G16
                                G18G21G26G29G 9R24G27G22G 6
  25295482.375       -2200.058        -576.903          39.000
  19494696.478    -4751896.766        1325.867          55.000
  21600562.790    -8673795.876        3542.550          50.000
  23586773.610      863731.015       -1345.849          45.000
  25327396.343    -1659181.613        1426.272          33.000
  20492150.647     4489784.608       -2680.807          52.000
  23557165.857    -4477117.663        1897.948          40.000
  19266215.782    -2103069.388          68.861          54.000
  23725858.106     6846503.839       -3288.536          51.000
  22925933.265    -7558948.630        4090.095          47.000
  21762389.671    -6178324.500        2199.896          52.000
  23772155.172     -631273.585        -473.608          46.000
  22324409.612    -6414253.369        2559.264          52.000
  21329765.615    -4144342.248        1530.359          51.000
  21369113.525    -2106986.663          28.766          50.000
  22192777.204     5878816.813       -3105.714          49.000
  24425105.889                        1180.452          22.000
  21668819.571     7168726.671       -3751.756          50.000
  24890167.297    -2896662.245        3525.865          43.000
  25203517.733    -1167645.486        3474.013          45.000
  23880797.938    -7258586.666        2935.851          45.000
 13 11  2 21 42 38.0000000  0 21G 7R 2R18R 9G 8R 1R10R17G 5R 3G15G16
                                G18G21G26G29G 9R24G27G22G 6
  25295594.593       -1622.709        -577.717          39.000
  19494448.777    -4753222.277        1325.196          55.000
  21599898.027    -8677338.240        3542.224          49.000
  23587024.240      865077.255       -1346.577          45.000
  25327127.879    -1660607.820        1426.013          33.000
  20492651.516     4492465.684       -2681.284          52.000
  23556810.871    -4479015.211        1897.250          40.000
  19266203.024    -2103137.800          68.069          54.000
  23726483.629     6849792.390       -3288.581          51.000
  22925170.257    -7563038.574        4089.855          47.000
  21761969.963    -6180524.119        2199.421          52.000
  23772248.305     -630799.600        -474.219          46.000
  22323923.288    -6416812.488        2559.035          52.000
  21329474.135    -4145872.470        1530.140          50.000
  21369106.913    -2107015.017          28.005          50.000
  22193368.812     5881922.718       -3106.046          49.000
  24424883.277                        1175.949          21.000
  21669520.072     7172478.609       -3752.144          51.000
  24889495.636    -2900188.029        3525.690          43.000
  25202859.510    -1171119.501        3474.059          45.000
  23880240.603    -7261522.343        2935.559          45.000
 13 11  2 21 42 39.0000000  0 21G 7R 2R18R 9G 8R 1R10R17G 5R 3G15G16
                                G18G21G26G29G 9R24G27G22G 6
  25295705.595       -1044.777        -577.884          39.000
  19494200.827    -4754547.088        1324.707          55.000
  21599236.944    -8680880.230        3542.042          49.000
  23587279.196      866424.336       -1347.242          45.000
  25326857.449    -1662033.466        1425.584          33.000
  20493155.422     4495147.262       -2681.617          52.000
  23556457.565    -4480911.989        1896.637          40.000
  19266191.087    -2103205.377          67.401          53.000
  23727110.224     6853081.074       -3288.566          51.000
  22924406.821    -7567128.290        4089.875          47.000
  21761552.364    -6182723.177        2199.005          52.000
  23772339.187     -630324.976        -474.711          46.000
  22323435.643    -6419371.326        2558.887          52.000
  21329182.799    -4147402.396        1530.086          51.000
  21369102.089    -2107042.552          27.343          50.000
  22193959.561     5885028.974       -3106.209          49.000
  24424660.486                        1173.388          22.000
  21670224.326     7176230.950       -3752.330          50.000
  24888826.799    -2903713.631        3525.616          43.000
  25202195.783    -1174593.450        3474.128          45.000
  23879682.304    -7264457.681        2935.408          45.000
 13 11  2 21 42 40.0000000  0 21G 7R 2R18R 9G 8R 1R10R17G 5R 3G15G16
                                G18G21G26G29G 9R24G27G22G 6
  25295814.453        -466.283        -578.553          39.000
  19493953.984    -4755871.217        1323.981          55.000
  21598572.788    -8684421.876        3541.680          49.000
  23587532.435      867772.195       -1348.032          45.000
  25326582.874    -1663458.571        1424.894          33.000
  20493656.184     4497829.312       -2682.087          52.000
  23556105.867    -4482808.034        1895.872          40.000
  19266179.651    -2103272.166          66.599          53.000
  23727736.712     6856369.882       -3288.690          50.000
  22923643.314    -7571217.777        4089.519          47.000
  21761134.693    -6184921.713        2198.480          52.000
  23772428.425     -629849.713        -475.378          46.000
  22322949.677    -6421929.908        2558.632          52.000
  21328891.927    -4148932.037        1529.675          51.000
  21369097.800    -2107069.313          26.610          50.000
  22194551.098     5888135.575       -3106.581          49.000
  24424440.483                        1179.801          22.000
  21670927.579     7179983.685       -3752.702          51.000
  24888155.888    -2907239.057        3525.547          43.000
  25201536.237    -1178067.359        3474.087          45.000
  23879124.361    -7267392.714        2935.075          45.000
 13 11  2 21 42 41.0000000  0 21G 7R 2R18R 9G 8R 1R10R17G 5R 3G15G16
                                G18G21G26G29G 9R24G27G22G 6
  25295923.740         112.972        -579.549          39.000
  19493705.390    -4757194.491        1322.924          55.000
  21597910.205    -8687963.010        3540.933          49.000
  23587784.389      869120.987       -1349.147          45.000
  25326310.443    -1664883.060        1424.289          33.000
  20494157.767     4500512.010       -2682.926          52.000
  23555752.275    -4484703.175        1894.688          41.000
  19266167.607    -2103338.000          65.465          53.000
  23728360.305     6859658.970       -3289.106          51.000
  22922878.877    -7575306.861        4088.962          47.000
  21760717.166    -6187119.549        2197.583          52.000
  23772518.378     -629373.674        -476.356          46.000
  22322460.387    -6424488.054        2558.003          52.000
  21328600.805    -4150461.234        1529.050          51.000
  21369092.225    -2107095.088          25.401          50.000
  22195141.919     5891242.678       -3107.285          49.000
  24424233.738                        1182.577          23.000
  21671629.189     7183736.990       -3753.503          51.000
  24887484.513    -2910764.131        3525.034          43.000
  25200874.083    -1181541.043        3473.610          45.000
  23878565.668    -7270327.260        2934.389          45.000
 13 11  2 21 42 42.0000000  0 21G 7R 2R18R 9G 8R 1R10R17G 5R 3G15G16
                                G18G21G26G29G 9R24G27G22G 6
  25296035.529         692.799        -579.901          40.000
  19493456.689    -4758517.053        1322.303          55.000
  21597246.800    -8691503.803        3540.717          49.000
  23588038.486      870470.531       -1349.827          45.000
  25326036.618    -1666307.025        1423.828          32.000
  20494661.245     4503195.178       -2683.291          52.000
  23555397.682    -4486597.612        1894.135          41.000
  19266154.098    -2103403.073          64.784          54.000
  23728986.758     6862948.181       -3289.130          51.000
  22922114.154    -7579395.702        4088.801          47.000
  21760299.317    -6189316.860        2197.188          52.000
  23772609.224     -628897.011        -476.832          46.000
  22321975.494    -6427045.937        2557.843          52.000
  21328310.504    -4151990.151        1528.869          50.000
  21369088.330    -2107120.076          24.738          50.000
  22195732.454     5894350.111       -3107.505          49.000
  24424019.739                        1185.047          24.000
  21672331.120     7187490.681       -3753.799          51.000
  24886815.533    -2914289.043        3524.966          43.000
  25200214.144    -1185014.693        3473.698          45.000
  23878007.297    -7273261.489        2934.167          45.000
 13 11  2 21 42 43.0000000  0 21G 7R 2R18R 9G 8R 1R10R17G 5R 3G15G16
                                G18G21G26G29G 9R24G27G22G 6
  25296146.031        1273.115        -580.474          39.000
  19493210.740    -4759838.968        1321.695          54.000
  21596584.002    -8695044.306        3540.418          50.000
  23588290.332      871820.765       -1350.506          45.000
  25325763.686    -1667730.524        1423.234          32.000
  20495161.863     4505878.750       -2683.669          52.000
  23555044.268    -4488491.363        1893.525          41.000
  19266143.699    -2103467.431          64.061          54.000
  23729613.317     6866237.448       -3289.262          50.000
  22921348.681    -7583484.361        4088.645          47.000
  21759881.432    -6191513.711        2196.762          52.000
  23772699.105     -628419.781        -477.392          46.000
  22321488.563    -6429603.625        2557.622          52.000
  21328019.096    -4153518.863        1528.679          50.000
  21369082.504    -2107144.329          23.940          50.000
  22196325.349     5897457.818       -3107.748          49.000
  24423790.694                        1176.283          22.000
  21673033.730     7191244.685       -3754.063          51.000
  24886144.444    -2917813.825        3524.824          43.000
  25199552.490    -1188488.361        3473.748          45.000
  23877448.676    -7276195.472        2933.881          45.000
 13 11  2 21 42 44.0000000  0 21G 7R 2R18R 9G 8R 1R10R17G 5R 3G15G16
                                G18G21G26G29G 9R24G27G22G 6
  25296256.497        1854.022        -580.901          39.000
  19492960.931    -4761160.212        1321.163          54.000
  21595920.775    -8698584.462        3540.271          49.000
  23588545.859      873171.769       -1351.083          45.000
  25325492.649    -1669153.568        1423.202          32.000
  20495666.592     4508562.795       -2683.996          52.000
  23554694.965    -4490384.396        1892.942          42.000
  19266132.584    -2103531.005          63.480          53.000
  23730239.984     6869526.823       -3289.154          51.000
  22920587.818    -7587572.793        4088.608          47.000
  21759461.331    -6193710.027        2196.320          52.000
  23772791.095     -627941.917        -477.856          46.000
  22321001.989    -6432161.054        2557.584          52.000
  21327728.689    -4155047.291        1528.534          50.000
  21369078.537    -2107167.782          23.350          50.000
  22196915.205     5900565.861       -3107.927          49.000
  24423571.798                        1177.303          23.000
  21673735.589     7194999.079       -3754.321          51.000
  24885473.712    -2921338.438        3524.676          43.000
  25198892.622    -1191961.985        3473.905          44.000
  23876889.876    -7279129.134        2933.735          45.000
 13 11  2 21 42 45.0000000  0 21G 7R 2R18R 9G 8R 1R10R17G 5R 3G15G16
                                G18G21G26G29G 9R24G27G22G 6
  25296369.108        2435.346        -581.466          40.000
  19492715.303    -4762480.941        1320.526          54.000
  21595258.228    -8702124.417        3539.919          49.000
  23588801.779      874523.419       -1351.932          45.000
  25325223.792    -1670576.199        1422.582          31.000
  20496167.246     4511247.169       -2684.469          52.000
  23554340.872    -4492276.849        1892.292          42.000
  19266121.327    -2103593.942          62.678          54.000
  23730865.149     6872816.171       -3289.271          50.000
  22919825.168    -7591661.174        4088.377          47.000
  21759044.482    -6195905.963        2195.795          52.000
  23772881.977     -627463.577        -478.584          46.000
  22320514.629    -6434718.358        2557.325          52.000
  21327439.354    -4156575.588        1528.280          50.000
  21369073.212    -2107190.591          22.486          50.000
  22197509.064     5903674.089       -3108.239          49.000
  24423363.838                        1181.463          22.000
  21674438.628     7198753.693       -3754.644          51.000
  24884799.943    -2924863.058        3524.763          43.000
  25198230.075    -1195435.710        3473.824          44.000
  23876332.076    -7282062.613        2933.441          45.000
 13 11  2 21 42 46.0000000  0 21G 7R 2R18R 9G 8R 1R10R17G 5R 3G15G16
                                G18G21G26G29G 9R24G27G22G 6
  25296479.252        3017.472        -582.244          40.000
  19492469.997    -4763800.706        1319.441          54.000
  21594593.035    -8705663.774        3539.192          49.000
  23589053.447      875876.110       -1353.089          46.000
  25324948.287    -1671998.098        1421.719          31.000
  20496669.973     4513932.276       -2685.348          52.000
  23553982.670    -4494168.328        1891.214          42.000
  19266109.748    -2103655.872          61.561          53.000
  23731491.208     6876105.884       -3289.727          50.000
  22919061.374    -7595749.108        4087.830          47.000
  21758626.597    -6198101.126        2194.915          52.000
  23772972.465     -626984.385        -479.421          46.000
  22320028.592    -6437275.164        2556.725          52.000
  21327148.124    -4158103.368        1527.715          51.000
  21369068.995    -2107212.366          21.445          50.000
  22198101.422     5906782.901       -3108.923          49.000
  24423144.014                        1180.017          23.000
  21675140.023     7202508.935       -3755.399          51.000
  24884130.533    -2928387.209        3524.026          43.000
  25197568.742    -1198909.150        3473.546          44.000
  23875774.098    -7284995.566        2932.872          45.000
 13 11  2 21 42 47.0000000  0 21G 7R 2R18R 9G 8R 1R10R17G 5R 3G15G16
                                G18G21G26G29G 9R24G27G22G 6
  25296589.218        3600.149        -582.793          40.000
  19492221.904    -4765119.736        1318.859          54.000
  21593932.167    -8709202.782        3538.974          49.000
  23589310.868      877229.606       -1353.796          46.000
  25324675.892    -1673419.488        1421.171          31.000
  20497174.845     4516617.862       -2685.655          52.000
  23553628.506    -4496059.063        1890.534          42.000
  19266100.348    -2103717.027          60.897          54.000
  23732118.125     6879395.715       -3289.759          50.000
  22918298.903    -7599836.823        4087.769          47.000
  21758207.104    -6200295.768        2194.519          52.000
  23773065.420     -626504.565        -479.989          46.000
  22319541.733    -6439831.716        2556.553          52.000
  21326858.753    -4159630.860        1527.449          51.000
  21369065.779    -2107233.339          20.709          50.000
  22198692.065     5909892.039       -3109.181          49.000
  24422907.714                        1180.364          20.000
  21675843.526     7206264.558       -3755.686          51.000
  24883461.660    -2931911.223        3524.050          43.000
  25196906.945    -1202382.547        3473.466          44.000
  23875217.335    -7287928.205        2932.622          45.000
 13 11  2 21 42 48.0000000  0 21G 7R 2R18R 9G 8R 1R10R17G 5R 3G15G16
                                G18G21G26G29G 9R24G27G22G 6
  25296702.043        4183.287        -582.963          40.000
  19491976.526    -4766438.141        1318.442          54.000
  21593271.621    -8712741.530        3538.920          50.000
  23589563.500      878583.794       -1354.216          46.000
  25324403.603    -1674840.426        1421.037          31.000
  20497676.500     4519303.849       -2685.855          52.000
  23553278.987    -4497949.146        1890.040          42.000
  19266087.947    -2103777.457          60.405          53.000
  23732743.076     6882685.576       -3289.575          50.000
  22917535.360    -7603924.391        4087.844          47.000
  21757790.577    -6202489.967        2194.287          52.000
  23773157.410     -626024.211        -480.295          46.000
  22319055.838    -6442388.093        2556.648          52.000
  21326567.310    -4161158.171        1527.548          50.000
  21369062.205    -2107253.611          20.228          50.000
  22199283.851     5913001.418       -3109.153          49.000
  24422667.161                        1185.939          16.000
  21676543.670     7210020.487       -3755.770          51.000
  24882789.642    -2935435.122        3524.208          43.000
  25196244.469    -1205855.995        3473.805          44.000
  23874658.285    -7290860.610        2932.654          45.000
 13 11  2 21 42 49.0000000  0 21G 7R 2R18R 9G 8R 1R10R17G 5R 3G15G16
                                G18G21G26G29G 9R24G27G22G 6
  25296812.760        4767.037        -583.886          40.000
  19491728.719    -4767755.883        1317.486          54.000
  21592607.215    -8716279.932        3538.327          50.000
  23589817.026      879938.753       -1355.216          46.000
  25324129.528    -1676260.890        1420.251          30.000
  20498178.762     4521990.327       -2686.611          52.000
  23552930.220    -4499838.492        1889.169          43.000
  19266077.226    -2103837.083          59.377          53.000
  23733367.777     6885975.549       -3289.883          51.000
  22916773.532    -7608011.720        4087.299          48.000
  21757372.835    -6204683.643        2193.595          52.000
  23773247.863     -625543.219        -481.214          46.000
  22318569.944    -6444944.218        2556.144          53.000
  21326276.938    -4162685.199        1527.048          51.000
  21369057.595    -2107273.082          19.191          50.000
  22199875.816     5916111.128       -3109.735          50.000
  24422408.739                        1171.985           1.000
  21677249.104     7213776.814       -3756.413          51.000
  24882118.660    -2938958.868        3523.834          43.000
  25195584.852    -1209329.391        3473.530          44.000
  23874100.343    -7293792.691        2932.127          45.000
 13 11  2 21 42 50.0000000  0 21G 7R 2R18R 9G 8R 1R10R17G 5R 3G15G16
                                G18G21G26G29G 9R24G27G22G 6
  25296923.476        5351.499        -584.697          40.000
  19491484.270    -4769072.871        1316.672          55.000
  21591945.061    -8719817.897        3537.813          50.000
  23590070.444      881294.553       -1356.151          46.000
  25323861.707    -1677680.746        1419.682          30.000
  20498682.025     4524677.384       -2687.351          53.000
  23552575.019    -4501726.978        1888.103          43.000
  19266066.683    -2103895.849          58.358          54.000
  23733995.480     6889265.746       -3290.263          51.000
  22916010.060    -7612098.727        4086.884          48.000
  21756956.380    -6206876.685        2192.782          52.000
  23773339.459     -625061.510        -482.081          46.000
  22318082.941    -6447499.971        2555.605          53.000
  21325985.852    -4164211.847        1526.508          51.000
  21369053.842    -2107291.659          18.167          50.000
  22200467.388     5919221.278       -3110.331          50.000
  24422184.912                        1173.153          16.000
  21677950.963     7217533.625       -3757.007          51.000
  24881450.466    -2942482.313        3523.374          43.000
  25194925.342    -1212802.650        3473.156          44.000
  23873543.472    -7296724.349        2931.442          45.000
 13 11  2 21 42 51.0000000  0 21G 7R 2R18R 9G 8R 1R10R17G 5R 3G15G16
                                G18G21G26G29G 9R24G27G22G 6
  25297035.658        5936.591        -585.280          40.000
  19491238.000    -4770389.117        1315.966          55.000
  21591283.192    -8723355.435        3537.421          50.000
  23590323.219      882651.195       -1356.965          45.000
  25323589.920    -1679099.992        1419.038          30.000
  20499184.824     4527364.986       -2687.799          52.000
  23552221.499    -4503614.655        1887.396          44.000
  19266057.034    -2103953.789          57.579          54.000
  23734621.682     6892556.119       -3290.363          51.000
  22915247.374    -7616185.438        4086.682          47.000
  21756539.174    -6209069.131        2192.271          52.000
  23773430.842     -624579.112        -482.623          46.000
  22317597.654    -6450055.408        2555.389          53.000
  21325696.624    -4165738.151        1526.238          51.000
  21369050.018    -2107309.375          17.422          50.000
  22201060.926     5922331.819       -3110.620          49.000
  24421958.583                        1174.864           1.000
  21678655.181     7221290.903       -3757.398          51.000
  24880779.877    -2946005.540        3523.313          43.000
  25194262.651    -1216275.796        3473.183          44.000
  23872985.101    -7299655.655        2931.243          45.000
 13 11  2 21 42 52.0000000  0 21G 7R 2R18R 9G 8R 1R10R17G 5R 3G15G16
                                G18G21G26G29G 9R24G27G22G 6
  25297146.660        6522.484        -585.984          40.000
  19490991.085    -4771704.382        1315.046          55.000
  21590620.466    -8726892.374        3536.925          50.000
  23590579.711      884008.851       -1357.852          45.000
  25323312.020    -1680518.503        1418.104          30.000
  20499689.159     4530053.308       -2688.405          53.000
  23551868.764    -4505501.343        1886.467          43.000
  19266045.669    -2104010.698          56.688          53.000
  23735246.812     6895846.863       -3290.664          50.000
  22914486.619    -7620271.674        4086.311          47.000
  21756122.969    -6211260.795        2191.502          52.000
  23773521.724     -624095.842        -483.426          46.000
  22317110.688    -6452610.337        2554.930          52.000
  21325405.930    -4167263.921        1525.734          51.000
  21369047.481    -2107326.053          16.406          49.000
  22201650.889     5925442.945       -3111.135          49.000
  24421771.494                        1170.985           1.000
  21679356.933     7225048.815       -3757.938          51.000
  24880109.253    -2949528.312        3522.737          43.000
  25193601.569    -1219748.645        3472.895          44.000
  23872427.981    -7302586.377        2930.713          45.000
 13 11  2 21 42 53.0000000  0 21G 7R 2R18R 9G 8R 1R10R17G 5R 3G15G16
                                G18G21G26G29G 9R24G27G22G 6
  25297258.592        7108.815        -586.608          40.000
  19490744.922    -4773019.040        1314.360          55.000
  21589960.098    -8730429.091        3536.626          50.000
  23590834.095      885367.153       -1358.550          45.000
  25323044.807    -1681936.673        1417.863          30.000
  20500192.244     4532741.970       -2688.814          53.000
  23551512.277    -4507387.444        1885.868          44.000
  19266034.841    -2104066.920          55.897          53.000
  23735874.158     6899137.596       -3290.773          50.000
  22913722.968    -7624357.819        4086.134          47.000
  21755705.548    -6213452.060        2191.037          53.000
  23773615.143     -623612.074        -484.038          46.000
  22316624.329    -6455165.134        2554.713          52.000
  21325115.058    -4168789.543        1525.488          51.000
  21369045.515    -2107342.061          15.624          50.000
  22202244.677     5928554.280       -3111.469          49.000
  24421518.862                        1168.985           1.000
  21680058.829     7228806.978       -3758.264          51.000
  24879437.449    -2953051.066        3522.632          43.000
  25192941.273    -1223221.599        3472.940          44.000
  23871870.038    -7305516.901        2930.324          45.000
 13 11  2 21 42 54.0000000  0 21G 7R 2R18R 9G 8R 1R10R17G 5R 3G15G16
                                G18G21G26G29G 9R24G27G22G 6
  25297368.522        7695.483        -587.298          40.000
  19490499.437    -4774333.246        1313.609          55.000
  21589295.978    -8733965.713        3536.184          50.000
  23591090.337      886725.997       -1359.473          45.000
  25322779.559    -1683354.562        1417.520          30.000
  20500694.863     4535430.845       -2689.368          52.000
  23551161.294    -4509273.041        1884.959          44.000
  19266026.335    -2104122.612          55.056          53.000
  23736499.860     6902428.188       -3290.894          51.000
  22912957.959    -7628444.002        4085.839          47.000
  21755289.343    -6215643.042        2190.482          52.000
  23773706.132     -623127.931        -484.676          46.000
  22316137.898    -6457719.916        2554.402          52.000
  21324825.795    -4170315.140        1525.210          51.000
  21369042.299    -2107357.527          14.833          49.000
  22202835.248     5931665.697       -3111.818          49.000
  24421326.591                        1168.985           1.000
  21680763.833     7232565.264       -3758.745          51.000
  24878767.647    -2956573.894        3522.514          43.000
  25192279.404    -1226694.755        3472.932          44.000
  23871312.382    -7308447.359        2930.068          45.000
 13 11  2 21 42 55.0000000  0 21G 7R 2R18R 9G 8R 1R10R17G 5R 3G15G16
                                G18G21G26G29G 9R24G27G22G 6
  25297480.096        8282.899        -587.542          40.000
  19490253.452    -4775646.593        1313.198          54.000
  21588634.645    -8737501.787        3536.127          50.000
  23591342.433      888085.831       -1360.107          45.000
  25322508.093    -1684771.750        1417.103          30.000
  20501199.520     4538120.401       -2689.612          52.000
  23550807.487    -4511157.708        1884.442          43.000
  19266015.506    -2104177.345          54.525          54.000
  23737126.026     6905719.096       -3290.821          50.000
  22912195.810    -7632529.729        4085.775          47.000
  21754871.708    -6217833.299        2190.162          52.000
  23773798.622     -622642.968        -485.129          46.000
  22315651.753    -6460274.249        2554.404          52.000
  21324536.102    -4171840.261        1525.135          51.000
  21369038.475    -2107372.002          14.267          50.000
  22203428.392     5934777.649       -3111.976          49.000
  24421074.066                        1167.985           1.000
  21681468.730     7236324.125       -3758.873          51.000
  24878097.487    -2960096.359        3522.575          43.000
  25191618.751    -1230167.679        3473.147          44.000
  23870754.261    -7311377.292        2929.895          45.000
 13 11  2 21 42 56.0000000  0 21G 7R 2R18R 9G 8R 1R10R17G 5R 3G15G16
                                G18G21G26G29G 9R24G27G22G 6
  25297591.313        8870.803        -587.978          40.000
  19490008.647    -4776959.375        1312.545          54.000
  21587973.349    -8741037.605        3535.726          50.000
  23591597.138      889446.383       -1360.902          46.000
  25322238.735    -1686188.532        1416.732          30.000
  20501704.177     4540810.352       -2690.074          52.000
  23550454.395    -4513041.718        1883.791          43.000
  19266004.821    -2104231.417          53.815          54.000
  23737751.692     6909010.030       -3290.867          50.000
  22911432.159    -7636615.313        4085.597          47.000
  21754454.288    -6220023.122        2189.695          52.000
  23773893.221     -622157.470        -485.720          46.000
  22315165.073    -6462828.395        2554.130          52.000
  21324246.195    -4173365.196        1524.891          51.000
  21369037.224    -2107385.759          13.517          49.000
  22204021.608     5937889.845       -3112.280          49.000
  24420851.382                        1168.825          24.000
  21682171.305     7240083.286       -3759.263          51.000
  24877426.505    -2963618.726        3522.489          44.000
  25190958.169    -1233640.618        3473.012          44.000
  23870196.747    -7314307.007        2929.737          46.000
 13 11  2 21 42 57.0000000  0 21G 7R 2R18R 9G 8R 1R10R17G 5R 3G15G16
                                G18G21G26G29G 9R24G27G22G 6
  25297703.388        9459.225        -588.626          40.000
  19489761.697    -4778271.584        1311.916          54.000
  21587312.266    -8744573.185        3535.457          50.000
  23591853.951      890807.597       -1361.478          45.000
  25321967.484    -1687604.883        1416.022          30.000
  20502204.939     4543500.681       -2690.528          52.000
  23550099.659    -4514925.100        1883.044          43.000
  19265996.172    -2104284.826          53.045          53.000
  23738379.002     6912300.976       -3290.919          50.000
  22910671.010    -7640700.791        4085.403          47.000
  21754036.796    -6222212.509        2189.192          52.000
  23773985.282     -621671.451        -486.270          46.000
  22314679.464    -6465382.387        2553.930          52.000
  21323954.251    -4174889.955        1524.685          51.000
  21369034.008    -2107398.819          12.731          49.000
  22204613.538     5941002.270       -3112.499          49.000
  24420631.307                        1169.695          25.000
  21682874.951     7243842.724       -3759.614          51.000
  24876757.810    -2967140.987        3522.266          43.000
  25190296.765    -1237113.633        3473.091          43.000
  23869639.448    -7317236.492        2929.384          46.000
 13 11  2 21 42 58.0000000  0 21G 7R 2R18R 9G 8R 1R10R17G 5R 3G15G16
                                G18G21G26G29G 9R24G27G22G 6
  25297815.426       10048.400        -589.734          40.000
  19489517.356    -4779582.852        1310.618          54.000
  21586648.003    -8748108.196        3534.567          50.000
  23592109.085      892169.793       -1362.824          46.000
  25321697.018    -1689020.528        1415.070          30.000
  20502710.025     4546191.710       -2691.566          52.000
  23549748.569    -4516807.527        1881.763          43.000
  19265987.631    -2104337.213          51.669          53.000
  23739004.382     6915592.255       -3291.683          50.000
  22909907.860    -7644785.847        4084.601          47.000
  21753622.449    -6224401.160        2188.077          52.000
  23774077.450     -621184.591        -487.575          46.000
  22314193.641    -6467935.903        2553.050          52.000
  21323663.844    -4176414.222        1523.812          51.000
  21369032.650    -2107410.876          11.325          49.000
  22205204.538     5944115.253       -3113.503          49.000
  24420411.411                        1167.790          26.000
  21683578.633     7247602.766       -3760.557          51.000
  24876086.471    -2970662.895        3521.475          43.000
  25189635.861    -1240586.385        3472.344          43.000
  23869082.471    -7320165.477        2928.529          45.000
 13 11  2 21 42 59.0000000  0 21G 7R 2R18R 9G 8R 1R10R17G 5R 3G15G16
                                G18G21G26G29G 9R24G27G22G 6
  25297925.750       10638.215        -589.968          40.000
  19489272.514    -4780893.348        1310.317          54.000
  21585985.456    -8751642.799        3534.567          50.000
  23592364.648      893532.807       -1363.246          46.000
  25321429.805    -1690435.570        1414.925          29.000
  20503213.502     4548883.266       -2691.635          52.000
  23549391.903    -4518689.171        1881.426          43.000
  19265977.267    -2104388.755          51.329          53.000
  23739631.728     6918883.690       -3291.329          50.000
  22909147.033    -7648870.636        4084.831          47.000
  21753205.493    -6226589.235        2187.998          52.000
  23774170.441     -620697.065        -487.714          46.000
  22313708.140    -6470489.111        2553.231          52.000
  21323373.258    -4177938.161        1523.924          51.000
  21369032.006    -2107422.099          10.956          50.000
  22205798.147     5947228.607       -3113.358          49.000
  24420191.015                        1162.391          26.000
  21684283.387     7251363.226       -3760.484          52.000
  24875416.597    -2974184.574        3521.668          43.000
  25188973.456    -1244059.058        3472.827          43.000
  23868524.600    -7323094.089        2928.633          45.000
 13 11  2 21 43  0.0000000  0 21G 7R 2R18R 9G 8R 1R10R17G 5R 3G15G16
                                G18G21G26G29G 9R24G27G22G 6
  25298038.825       11228.683        -590.551          40.000
  19489027.709    -4782203.068        1309.558          55.000
  21585325.374    -8755176.984        3534.188          50.000
  23592619.925      894896.683       -1364.042          45.000
  25321160.519    -1691850.094        1414.317          29.000
  20503718.552     4551575.377       -2692.132          52.000
  23549040.491    -4520570.005        1880.624          43.000
  19265968.082    -2104439.445          50.503          53.000
  23740256.464     6922175.312       -3291.505          50.000
  22908383.454    -7652955.111        4084.561          47.000
  21752789.395    -6228776.704        2187.374          52.000
  23774263.038     -620208.851        -488.370          46.000
  22313222.924    -6473041.993        2552.958          52.000
  21323085.137    -4179461.769        1523.671          51.000
  21369028.039    -2107432.458          10.167          50.000
  22206391.327     5950342.369       -3113.745          49.000
  24419971.547                        1163.629          27.000
  21684986.712     7255124.160       -3760.929          52.000
  24874746.795    -2977705.988        3521.418          43.000
  25188312.302    -1247531.618        3472.754          43.000
  23867967.229    -7326022.303        2928.216          45.000
 13 11  2 21 43  1.0000000  0 21G 7R 2R18R 9G 8R 1R10R17G 5R 3G15G16
                                G18G21G26G29G 9R24G27G22G 6
  25298149.934       11819.753        -591.169          40.000
  19488781.688    -4783512.054        1308.757          55.000
  21584662.004    -8758710.760        3533.755          50.000
  23592876.238      896261.389       -1364.962          45.000
  25320890.518    -1693264.033        1414.007          29.000
  20504220.922     4554268.031       -2692.834          52.000
  23548687.685    -4522450.046        1879.869          42.000
  19265959.719    -2104489.327          49.605          53.000
  23740883.810     6925467.106       -3291.736          50.000
  22907621.161    -7657039.289        4084.179          47.000
  21752371.939    -6230963.593        2186.743          52.000
  23774356.135     -619719.958        -489.062          46.000
  22312736.244    -6475594.555        2552.540          52.000
  21322793.622    -4180985.037        1523.261          51.000
  21369028.147    -2107441.962           9.215          50.000
  22206984.149     5953456.519       -3114.197          49.000
  24419745.468    -3621345.9361       1163.013          28.000
  21685691.502     7258885.541       -3761.468          51.000
  24874077.314    -2981227.195        3521.200          43.000
  25187650.148    -1251004.066        3472.531          43.000
  23867410.073    -7328950.157        2927.754          46.000
 13 11  2 21 43  2.0000000  0 21G 7R 2R18R 9G 8R 1R10R17G 5R 3G15G16
                                G18G21G26G29G 9R24G27G22G 6
  25298261.294       12411.372        -591.858          40.000
  19488537.776    -4784820.438        1308.124          55.000
  21584002.066    -8762244.231        3533.365          50.000
  23593131.658      897626.798       -1365.730          45.000
  25320620.052    -1694677.502        1413.438          29.000
  20504726.079     4556961.098       -2693.231          52.000
  23548333.271    -4524329.400        1879.097          42.000
  19265950.320    -2104538.463          48.799          53.000
  23741508.368     6928758.961       -3291.825          50.000
  22906857.904    -7661123.304        4084.007          47.000
  21751955.877    -6233150.003        2186.214          52.000
  23774447.946     -619230.491        -489.680          46.000
  22312250.778    -6478146.917        2552.313          52.000
  21322504.644    -4182508.073        1522.949          51.000
  21369025.967    -2107450.728           8.479          50.000
  22207575.793     5956570.952       -3114.549          49.000
  24419518.639    -3622508.596        1162.420          28.000
  21686396.328     7262647.243       -3761.790          51.000
  24873404.867    -2984748.285        3521.160          44.000
  25186991.246    -1254476.528        3472.569          43.000
  23866852.560    -7331877.745        2927.574          46.000
 13 11  2 21 43  3.0000000  0 21G 7R 2R18R 9G 8R 1R10R17G 5R 3G15G16
                                G18G21G26G29G 9R24G27G22G 6
  25298373.690       13003.488        -592.241          40.000
  19488293.756    -4786128.196        1307.692          55.000
  21583339.196    -8765777.435        3533.322          50.000
  23593386.613      898992.896       -1366.240          46.000
  25320356.448    -1696090.528        1412.947          29.000
  20505229.521     4559654.557       -2693.382          52.000
  23547981.251    -4526208.101        1878.694          42.000
  19265940.564    -2104586.866          48.318          53.000
  23742137.000     6932050.860       -3291.709          50.000
  22906093.145    -7665207.183        4084.123          47.000
  21751540.779    -6235335.948        2185.940          52.000
  23774543.617     -618740.469        -490.098          46.000
  22311767.099    -6480699.088        2552.354          52.000
  21322213.808    -4184030.910        1522.990          51.000
  21369025.002    -2107458.762           7.944          50.000
  22208169.151     5959685.643       -3114.549          49.000
  24419291.774    -3623670.686        1161.938          28.000
  21687099.831     7266409.241       -3761.855          52.000
  24872737.423    -2988269.242        3521.171          43.000
  25186327.376    -1257949.014        3472.765          43.000
  23866296.225    -7334805.086        2927.508          46.000
 13 11  2 21 43  4.0000000  0 21G 7R 2R18R 9G 8R 1R10R17G 5R 3G15G16
                                G18G21G26G29G 9R24G27G22G 6
  25298488.267       13596.185        -593.133          40.000
  19488047.235    -4787435.220        1306.579          55.000
  21582679.400    -8769310.281        3532.558          50.000
  23593642.784      900359.742       -1367.347          46.000
  25320086.126    -1697503.067        1412.001          29.000
  20505734.178     4562348.483       -2694.218          52.000
  23547627.837    -4528086.053        1877.535          42.000
  19265931.915    -2104634.477          47.146          53.000
  23742763.524     6935342.867       -3292.125          50.000
  22905329.674    -7669290.825        4083.484          47.000
  21751124.753    -6237521.368        2185.093          52.000
  23774635.178     -618249.834        -490.960          46.000
  22311280.133    -6483250.995        2551.722          52.000
  21321924.544    -4185553.466        1522.357          51.000
  21369023.679    -2107466.007           6.817          50.000
  22208761.796     5962800.670       -3115.270          49.000
  24419067.160    -3624832.179        1161.571          29.000
  21687804.657     7270171.614       -3762.664          52.000
  24872066.298    -2991790.046        3520.714          44.000
  25185670.367    -1261421.459        3472.371          43.000
  23865739.069    -7337732.116        2926.836          46.000
 13 11  2 21 43  5.0000000  0 21G 7R 2R18R 9G 8R 1R10R17G 5R 3G15G16
                                G18G21G26G29G 9R24G27G22G 6
  25298601.127       14189.671        -593.581          40.000
  19487803.609    -4788741.299        1305.887          55.000
  21582016.960    -8772842.550        3532.251          50.000
  23593899.776      901727.611       -1368.030          45.000
  25319823.272    -1698914.885        1411.938          29.000
  20506238.478     4565043.113       -2694.678          52.000
  23547275.568    -4529963.057        1876.845          42.000
  19265924.839    -2104681.096          46.420          53.000
  23743389.190     6938635.228       -3292.256          50.000
  22904570.705    -7673373.994        4083.239          47.000
  21750708.476    -6239706.024        2184.530          53.000
  23774729.634     -617758.336        -491.612          46.000
  22310794.417    -6485802.407        2551.406          53.000
  21321635.352    -4187075.517        1522.089          51.000
  21369022.143    -2107472.225           5.990          50.000
  22209352.402     5965916.259       -3115.594          49.000
  24418844.691    -3625992.725        1160.612          30.000
  21688506.159     7273934.589       -3763.004          51.000
  24871396.675    -2995310.413        3520.406          43.000
  25185007.784    -1264893.623        3472.367          43.000
  23865183.200    -7340658.591        2926.421          46.000
 13 11  2 21 43  6.0000000  0 21G 7R 2R18R 9G 8R 1R10R17G 5R 3G15G16
                                G18G21G26G29G 9R24G27G22G 6
  25298713.631       14783.797        -594.332          40.000
  19487559.340    -4790046.642        1305.104          55.000
  21581355.342    -8776374.419        3531.777          50.000
  23594156.375      903096.330       -1369.037          46.000
  25319552.592    -1700326.133        1411.197          29.000
  20506743.242     4567738.267       -2695.281          52.000
  23546924.763    -4531839.247        1875.906          42.000
  19265916.405    -2104726.899          45.523          53.000
  23744016.822     6941927.762       -3292.498          50.000
  22903806.840    -7677456.890        4082.860          47.000
  21750292.557    -6241890.094        2183.866          52.000
  23774822.588     -617266.169        -492.345          46.000
  22310309.380    -6488353.508        2551.096          53.000
  21321345.409    -4188597.227        1521.653          51.000
  21369020.570    -2107477.594           5.062          50.000
  22209947.405     5969032.237       -3116.026          49.000
  24418625.474                        1161.481          30.000
  21689210.091     7277698.009       -3763.516          51.000
  24870726.944    -2998830.569        3520.119          44.000
  25184347.738    -1268365.690        3472.058          42.000
  23864625.651    -7343584.680        2926.033          46.000
 13 11  2 21 43  7.0000000  0 21G 7R 2R18R 9G 8R 1R10R17G 5R 3G15G16
                                G18G21G26G29G 9R24G27G22G 6
  25298828.564       15378.461        -594.853          40.000
  19487316.392    -4791351.350        1304.410          55.000
  21580693.366    -8779905.972        3531.423          50.000
  23594412.760      904465.817       -1369.762          46.000
  25319275.623    -1701736.889        1410.421          28.000
  20507246.612     4570433.874       -2695.748          52.000
  23546572.672    -4533714.736        1875.189          42.000
  19265908.256    -2104771.969          44.749          53.000
  23744642.881     6945220.384       -3292.603          50.000
  22903044.547    -7681539.612        4082.667          47.000
  21749876.494    -6244073.656        2183.373          52.000
  23774916.436     -616773.395        -493.017          47.000
  22309823.593    -6490904.372        2550.821          53.000
  21321056.253    -4190118.687        1521.362          51.000
  21369017.604    -2107482.194           4.245          50.000
  22210538.798     5972148.518       -3116.392          49.000
  24418407.079                        1159.009          30.000
  21689914.310     7281461.795       -3763.890          52.000
  24870056.962    -3002350.580        3520.059          44.000
  25183687.370    -1271837.741        3472.137          43.000
  23864068.602    -7346510.479        2925.631          46.000
 13 11  2 21 43  8.0000000  0 21G 7R 2R18R 9G 8R 1R10R17G 5R 3G15G16
                                G18G21G26G29G 9R24G27G22G 6
  25298942.211       15973.706        -595.614          40.000
  19487071.551    -4792655.337        1303.589          55.000
  21580032.391    -8783437.133        3530.952          49.000
  23594670.181      905836.135       -1370.716          46.000
  25319005.622    -1703147.077        1409.511          28.000
  20507752.591     4573130.008       -2696.445          52.000
  23546220.509    -4535589.437        1874.321          42.000
  19265898.857    -2104816.203          43.795          53.000
  23745268.904     6948513.152       -3292.847          50.000
  22902280.218    -7685622.062        4082.309          47.000
  21749460.789    -6246256.654        2182.689          52.000
  23775010.678     -616279.973        -493.773          46.000
  22309338.592    -6493454.949        2550.399          53.000
  21320767.954    -4191639.844        1521.031          51.000
  21369018.104    -2107485.958           3.310          50.000
  22211134.730     5975265.156       -3116.860          49.000
  24418190.113                        1158.335          31.000
  21690619.421     7285226.011       -3764.431          51.000
  24869386.481    -3005870.362        3519.605          44.000
  25183024.537    -1275309.711        3471.804          42.000
  23863511.195    -7349435.919        2925.293          46.000
 13 11  2 21 43  9.0000000  0 21G 7R 2R18R 9G 8R 1R10R17G 5R 3G15G16
                                G18G21G26G29G 9R24G27G22G 6
  25299054.429       16569.481        -595.764          40.000
  19486827.067    -4793958.614        1303.184          55.000
  21579369.843    -8786967.952        3530.920          50.000
  23594928.710      907207.222       -1371.166          46.000
  25318737.193    -1704556.809        1409.625          28.000
  20508255.211     4575826.612       -2696.565          52.000
  23545867.560    -4537463.410        1873.875          41.000
  19265892.210    -2104859.628          43.287          53.000
  23745896.321     6951806.026       -3292.698          50.000
  22901519.676    -7689704.290        4082.336          47.000
  21749045.049    -6248439.109        2182.467          52.000
  23775104.276     -615785.933        -494.123          46.000
  22308851.733    -6496005.267        2550.438          52.000
  21320476.868    -4193160.726        1520.992          51.000
  21369018.676    -2107488.945           2.833          49.000
  22211727.660     5978382.120       -3116.841          49.000
  24417974.327                        1158.122          30.000
  21691323.461     7288990.586       -3764.518          52.000
  24868718.573    -3009390.000        3519.812          44.000
  25182364.848    -1278781.660        3472.249          42.000
  23862953.860    -7352361.064        2925.292          46.000
 13 11  2 21 43 10.0000000  0 21G 7R 2R18R 9G 8R 1R10R17G 5R 3G15G16
                                G18G21G26G29G 9R24G27G22G 6
  25299168.862       17165.932        -596.882          40.000
  19486582.833    -4795261.138        1302.039          55.000
  21578711.334    -8790498.359        3530.047          50.000
  23595184.880      908579.129       -1372.435          46.000
  25318466.406    -1705965.929        1408.857          28.000
  20508761.834     4578523.753       -2697.518          52.000
  23545513.575    -4539336.576        1872.664          41.000
  19265883.347    -2104902.211          42.054          53.000
  23746521.308     6955099.068       -3293.247          50.000
  22900756.919    -7693786.239        4081.688          47.000
  21748630.273    -6250620.983        2181.482          52.000
  23775198.624     -615291.218        -495.154          46.000
  22308367.411    -6498555.266        2549.711          53.000
  21320187.604    -4194681.272        1520.266          51.000
  21369017.497    -2107491.076           1.581          50.000
  22212317.803     5981499.476       -3117.680          49.000
  24417753.894                        1156.524          30.000
  21692029.180     7292755.592       -3765.375          51.000
  24868046.840    -3012909.392        3519.177          44.000
  25181705.767    -1282253.487        3471.683          43.000
  23862397.991    -7355285.847        2924.483          46.000
 13 11  2 21 43 11.0000000  0 21G 7R 2R18R 9G 8R 1R10R17G 5R 3G15G16
                                G18G21G26G29G 9R24G27G22G 6
  25299283.974       17763.040        -597.329          41.000
  19486339.707    -4796562.834        1301.412          55.000
  21578050.180    -8794028.288        3529.804          49.000
  23595441.944      909951.891       -1373.046          46.000
  25318196.870    -1707374.452        1408.155          28.000
  20509267.420     4581221.494       -2697.920          52.000
  23545167.309    -4541208.893        1872.062          41.000
  19265878.022    -2104943.902          41.393          53.000
  23747148.154     6958392.347       -3293.269          50.000
  22899995.484    -7697867.846        4081.532          47.000
  21748215.211    -6252802.209        2181.049          53.000
  23775292.830     -614795.759        -495.623          47.000
  22307881.302    -6501104.890        2549.590          53.000
  21319897.625    -4196201.419        1520.107          51.000
  21369017.175    -2107492.296           0.941          50.000
  22212912.519     5984617.282       -3117.863          49.000
  24417533.176                        1156.292          30.000
  21692729.110     7296521.103       -3765.617          51.000
  24867377.467    -3016428.484        3519.147          44.000
  25181046.114    -1285725.160        3471.714          43.000
  23861843.086    -7358210.178        2924.204          46.000
 13 11  2 21 43 12.0000000  0 21G 7R 2R18R 9G 8R 1R10R17G 5R 3G15G16
                                G18G21G26G29G 9R24G27G22G 6
  25299396.156       18360.717        -597.821          40.000
  19486096.331    -4797863.859        1300.863          55.000
  21577387.704    -8797557.873        3529.631          49.000
  23595699.008      911325.410       -1373.780          46.000
  25317932.944    -1708782.419        1407.862          27.000
  20509770.719     4583919.685       -2698.248          52.000
  23544816.790    -4543080.441        1871.382          41.000
  19265868.945    -2104984.842          40.722          53.000
  23747774.784     6961685.737       -3293.273          50.000
  22899231.047    -7701949.236        4081.490          47.000
  21747799.220    -6254982.917        2180.628          52.000
  23775386.964     -614299.679        -496.252          47.000
  22307397.301    -6503654.255        2549.416          53.000
  21319608.612    -4197721.293        1519.916          51.000
  21369016.389    -2107492.723           0.213          50.000
  22213506.236     5987735.427       -3118.183          49.000
  24417308.348                        1155.788          29.000
  21693434.900     7300286.995       -3765.914          51.000
  24866705.699    -3019947.407        3518.955          44.000
  25180384.639    -1289196.788        3471.750          43.000
  23861285.108    -7361134.198        2924.026          46.000
 13 11  2 21 43 13.0000000  0 21G 7R 2R18R 9G 8R 1R10R17G 5R 3G15G16
                                G18G21G26G29G 9R24G27G22G 6
  25299509.517       18959.020        -598.608          41.000
  19485853.670    -4799164.113        1299.829          55.000
  21576727.693    -8801087.016        3528.860          50.000
  23595958.537      912699.799       -1374.888          46.000
  25317662.479    -1710189.857        1406.851          28.000
  20510277.949     4586618.428       -2699.044          52.000
  23544464.556    -4544951.191        1870.329          41.000
  19265863.227    -2105024.936          39.600          53.000
  23748402.023     6964979.320       -3293.688          50.000
  22898469.863    -7706030.292        4080.825          47.000
  21747385.803    -6257163.015        2179.843          53.000
  23775482.277     -613802.903        -497.150          47.000
  22306911.907    -6506203.290        2548.848          53.000
  21319320.813    -4199240.813        1519.334          51.000
  21369015.674    -2107492.273          -0.942          50.000
  22214100.023     5990853.968       -3118.735          49.000
  24417084.592    -3635254.3291       1154.716          30.000
  21694142.478     7304053.364       -3766.666          52.000
  24866039.256    -3023466.083        3518.574          44.000
  25179726.023    -1292668.295        3471.356          43.000
  23860727.738    -7364057.824        2923.399          46.000
 13 11  2 21 43 14.0000000  0 21G 7R 2R18R 9G 8R 1R10R17G 5R 3G15G16
                                G18G21G26G29G 9R24G27G22G 6
  25299624.093       19557.816        -598.895          40.000
  19485608.650    -4800463.787        1299.447          55.000
  21576067.433    -8804615.921        3528.865          50.000
  23596214.851      914074.877       -1375.353          46.000
  25317396.659    -1711596.901        1406.896          27.000
  20510780.891     4589317.518       -2699.161          52.000
  23544112.250    -4546821.306        1869.885          41.000
  19265855.185    -2105064.365          39.169          53.000
  23749028.368     6968272.908       -3293.489          50.000
  22897708.857    -7710111.254        4081.010          47.000
  21746971.599    -6259342.690        2179.574          52.000
  23775575.696     -613305.616        -497.434          46.000
  22306427.085    -6508752.164        2548.875          53.000
  21319031.978    -4200760.159        1519.368          51.000
  21369016.961    -2107491.141          -1.399          50.000
  22214692.667     5993972.733       -3118.759          49.000
  24416864.803    -3636408.979        1154.096          29.000
  21694846.303     7307820.013       -3766.683          52.000
  24865369.703    -3026984.685        3518.701          44.000
  25179063.403    -1296139.870        3471.679          43.000
  23860172.154    -7366981.245        2923.457          46.000
 13 11  2 21 43 15.0000000  0 21G 7R 2R18R 9G 8R 1R10R17G 5R 3G15G16
                                G18G21G26G29G 9R24G27G22G 6
  25299738.276       20157.170        -599.439          40.000
  19485366.668    -4801762.756        1298.786          55.000
  21575407.423    -8808144.481        3528.554          49.000
  23596472.808      915450.727       -1376.062          46.000
  25317132.305    -1713003.410        1406.303          28.000
  20511286.620     4592017.077       -2699.636          52.000
  23543764.448    -4548690.690        1869.200          41.000
  19265848.109    -2105103.002          38.368          53.000
  23749655.499     6971566.602       -3293.595          50.000
  22896946.529    -7714191.993        4080.828          47.000
  21746557.216    -6261521.838        2179.031          52.000
  23775669.437     -612807.706        -498.078          46.000
  22305941.941    -6511300.793        2548.645          53.000
  21318742.393    -4202279.232        1519.042          51.000
  21369019.212    -2107489.232          -2.199          49.000
  22215285.990     5997091.830       -3119.118          49.000
  24416638.188    -3637562.978        1153.897          28.000
  21695552.773     7311587.044       -3767.030          52.000
  24864697.149    -3030503.108        3518.454          44.000
  25178404.823    -1299611.398        3471.668          43.000
  23859615.212    -7369904.371        2923.104          46.000
 13 11  2 21 43 16.0000000  0 21G 7R 2R18R 9G 8R 1R10R17G 5R 3G15G16
                                G18G21G26G29G 9R24G27G22G 6
  25299851.852       20757.253        -600.448          40.000
  19485122.469    -4803060.895        1297.805          55.000
  21574745.912    -8811672.553        3527.923          50.000
  23596730.444      916827.460       -1377.068          46.000
  25316859.123    -1714409.261        1405.878          27.000
  20511792.206     4594717.252       -2700.421          52.000
  23543413.143    -4550559.203        1868.262          41.000
  19265841.819    -2105140.702          37.330          53.000
  23750283.095     6974860.546       -3294.057          50.000
  22896184.308    -7718272.361        4080.277          47.000
  21746142.083    -6263700.322        2178.212          52.000
  23775765.823     -612309.047        -498.942          46.000
  22305458.691    -6513849.022        2548.079          52.000
  21318452.486    -4203797.901        1518.561          51.000
  21369016.246    -2107486.387          -3.276          49.000
  22215878.849     6000211.391       -3119.755          49.000
  24416419.650    -3638716.220        1153.108          28.000
  21696255.919     7315354.591       -3767.752          52.000
  24864029.419    -3034021.229        3518.050          43.000
  25177745.670    -1303082.750        3471.298          43.000
  23859060.451    -7372827.030        2922.419          46.000
 13 11  2 21 43 17.0000000  0 21G 7R 2R18R 9G 8R 1R10R17G 5R 3G15G16
                                G18G21G26G29G 9R24G27G22G 6
  25299966.071       21357.927        -600.912          40.000
  19484880.023    -4804358.348        1297.151          55.000
  21574084.293    -8815200.261        3527.582          50.000
  23596987.757      918204.974       -1377.871          46.000
  25316598.235    -1715814.591        1404.862          28.000
  20512298.328     4597417.900       -2700.845          52.000
  23543067.877    -4552426.952        1867.384          41.000
  19265836.387    -2105177.614          36.604          53.000
  23750909.797     6978154.612       -3294.051          50.000
  22895423.445    -7722352.483        4080.017          47.000
  21745728.915    -6265878.266        2177.739          52.000
  23775860.064     -611809.747        -499.594          46.000
  22304972.332    -6516396.984        2547.879          53.000
  21318163.687    -4205316.274        1518.318          51.000
  21369018.140    -2107482.744          -3.949          50.000
  22216472.100     6003331.289       -3120.020          49.000
  24416198.968    -3639868.836        1152.472          27.000
  21696961.030     7319122.505       -3768.040          52.000
  24863360.117    -3037539.160        3517.903          43.000
  25177084.945    -1306554.048        3471.292          43.000
  23858504.938    -7375749.365        2922.189          46.000
 13 11  2 21 43 18.0000000  0 21G 7R 2R18R 9G 8R 1R10R17G 5R 3G15G16
                                G18G21G26G29G 9R24G27G22G 6
  25300081.647       21959.185        -601.657          40.000
  19484639.398    -4805655.127        1296.368          55.000
  21573422.317    -8818727.639        3527.086          50.000
  23597247.001      919583.257       -1378.725          46.000
  25316331.165    -1717219.480        1404.516          28.000
  20512804.450     4600119.013       -2701.420          52.000
  23542718.895    -4554294.005        1866.590          41.000
  19265827.739    -2105213.758          35.646          53.000
  23751536.142     6981448.772       -3294.320          50.000
  22894659.830    -7726432.393        4079.654          47.000
  21745313.568    -6268055.697        2177.074          52.000
  23775956.914     -611309.846        -500.279          46.000
  22304488.367    -6518944.707        2547.522          53.000
  21317874.888    -4206834.386        1517.868          51.000
  21369019.713    -2107478.314          -4.900          50.000
  22217067.246     6006451.507       -3120.469          48.000
  24415985.290                        1160.956          27.000
  21697667.965     7322890.772       -3768.559          52.000
  24862690.565    -3041056.925        3517.566          44.000
  25176421.540    -1310025.321        3471.106          43.000
  23857946.317    -7378671.393        2921.745          46.000
 13 11  2 21 43 19.0000000  0 21G 7R 2R18R 9G 8R 1R10R17G 5R 3G15G16
                                G18G21G26G29G 9R24G27G22G 6
  25300193.936       22561.091        -601.704          40.000
  19484396.987    -4806951.116        1296.111          55.000
  21572763.165    -8822254.593        3527.278          50.000
  23597502.671      920962.422       -1379.099          46.000
  25316065.167    -1718623.747        1404.453          28.000
  20513310.358     4602820.679       -2701.433          52.000
  23542369.377    -4556160.241        1866.385          41.000
  19265821.056    -2105249.057          35.386          53.000
  23752163.416     6984743.120       -3293.920          50.000
  22893897.930    -7730512.024        4080.105          47.000
  21744899.328    -6270232.523        2177.084          52.000
  23776050.083     -610809.252        -500.440          46.000
  22304003.545    -6521492.094        2547.710          52.000
  21317586.267    -4208352.151        1518.134          51.000
  21369020.356    -2107473.023          -5.196          50.000
  22217660.569     6009572.122       -3120.242          49.000
  24415760.390                        1174.484          28.000
  21698374.363     7326659.476       -3768.438          52.000
  24862018.475    -3044574.442        3517.921          43.000
  25175764.567    -1313496.488        3471.735          43.000
  23857391.055    -7381593.021        2921.867          46.000
 13 11  2 21 43 20.0000000  0 21G 7R 2R18R 9G 8R 1R10R17G 5R 3G15G16
                                G18G21G26G29G 9R24G27G22G 6
  25300308.655       23163.459        -602.556          40.000
  19484152.324    -4808246.522        1295.098          55.000
  21572103.619    -8825781.317        3526.610          50.000
  23597763.916      922342.240       -1380.126          46.000
  25315799.097    -1720027.633        1403.726          28.000
  20513815.444     4605522.705       -2702.216          52.000
  23542018.787    -4558025.853        1865.384          41.000
  19265815.909    -2105283.672          34.261          53.000
  23752788.868     6988037.477       -3294.364          50.000
  22893135.173    -7734591.527        4079.468          47.000
  21744483.730    -6272408.930        2176.222          52.000
  23776144.646     -610308.143        -501.353          45.000
  22303518.901    -6524039.319        2547.162          52.000
  21317298.326    -4209869.740        1517.531          51.000
  21369022.572    -2107467.033          -6.323          49.000
  22218255.286     6012692.969       -3120.975          48.000
  24415576.125                        1151.985           1.000
  21699077.652     7330428.446       -3769.125          52.000
  24861351.139    -3048091.891        3517.450          43.000
  25175101.877    -1316967.693        3471.268          43.000
  23856834.864    -7384514.439        2921.309          46.000
 13 11  2 21 43 21.0000000  0 21G 7R 2R18R 9G 8R 1R10R17G 5R 3G15G16
                                G18G21G26G29G 9R24G27G22G 6
  25300424.125       23766.436        -603.052          40.000
  19483910.807    -4809541.211        1294.410          55.000
  21571440.964    -8829307.673        3526.234          50.000
  23598021.123      923722.845       -1380.892          46.000
  25315534.314    -1721430.979        1403.301          29.000
  20514320.530     4608225.235       -2702.692          52.000
  23541667.625    -4559890.694        1864.495          40.000
  19265809.548    -2105317.488          33.486          53.000
  23753416.428     6991331.961       -3294.459          50.000
  22892372.952    -7738670.792        4079.200          47.000
  21744070.241    -6274584.774        2175.651          52.000
  23776239.566     -609806.391        -501.992          46.000
  22303034.079    -6526586.269        2546.927          53.000
  21317008.955    -4211387.028        1517.234          51.000
  21369022.572    -2107460.233          -7.113          49.000
  22218849.895     6015814.158       -3121.243          48.000
  24415356.586                        1160.358          27.000
  21699782.799     7334197.832       -3769.545          52.000
  24860683.552    -3051609.140        3517.288          43.000
  25174441.473    -1320438.839        3471.164          43.000
  23856277.851    -7387435.531        2921.067          45.000
 13 11  2 21 43 22.0000000  0 21G 7R 2R18R 9G 8R 1R10R17G 5R 3G15G16
                                G18G21G26G29G 9R24G27G22G 6
  25300539.202       24370.178        -604.067          40.000
  19483670.290    -4810835.048        1293.400          55.000
  21570783.277    -8832833.510        3525.569          50.000
  23598282.368      925104.377       -1382.047          46.000
  25315265.885    -1722833.634        1402.210          29.000
  20514827.116     4610928.423       -2703.528          52.000
  23541318.464    -4561754.651        1863.434          40.000
  19265803.294    -2105350.381          32.407          52.000
  23754044.488     6994626.732       -3294.898          50.000
  22891614.019    -7742749.656        4078.597          46.000
  21743655.465    -6276759.929        2174.836          52.000
  23776334.415     -609303.842        -502.934          46.000
  22302551.294    -6529132.787        2546.338          52.000
  21316720.978    -4212903.865        1516.621          50.000
  21369022.965    -2107452.469          -8.203          49.000
  22219442.575     6018935.847       -3121.907          49.000
  24415121.180                        1149.554          26.000
  21700487.982     7337967.779       -3770.257          52.000
  24860014.178    -3055126.047        3516.771          43.000
  25173781.427    -1323909.789        3470.900          43.000
  23855724.090    -7390356.129        2920.366          45.000
 13 11  2 21 43 23.0000000  0 21G 7R 2R18R 9G 8R 1R10R17G 5R 3G15G16
                                G18G21G26G29G 9R24G27G22G 6
  25300652.134       24974.573        -604.656          39.000
  19483427.200    -4812128.091        1292.678          55.000
  21570123.517    -8836358.879        3525.197          50.000
  23598541.469      926486.791       -1382.787          46.000
  25315003.175    -1724235.725        1401.919          29.000
  20515335.347     4613632.196       -2704.024          53.000
  23540966.016    -4563617.752        1862.818          40.000
  19265797.754    -2105382.395          31.624          52.000
  23754671.513     6997921.728       -3295.057          49.000
  22890851.119    -7746828.161        4078.376          46.000
  21743243.227    -6278934.436        2174.247          52.000
  23776432.552     -608800.570        -503.531          45.000
  22302065.256    -6531678.936        2546.011          52.000
  21316431.392    -4214420.321        1516.332          51.000
  21369025.431    -2107443.803          -9.038          49.000
  22220037.399     6022057.977       -3122.273          49.000
  24414890.169                        1148.104          26.000
  21701192.486     7341738.238       -3770.671          52.000
  24859343.554    -3058642.664        3516.510          43.000
  25173119.666    -1327380.582        3470.829          43.000
  23855167.970    -7393276.309        2920.030          46.000
 13 11  2 21 43 24.0000000  0 21G 7R 2R18R 9G 8R 1R10R17G 5R 3G15G16
                                G18G21G26G29G 9R24G27G22G 6
  25300768.676       25579.429        -605.196          40.000
  19483185.253    -4813420.582        1292.105          55.000
  21569463.543    -8839884.033        3524.946          50.000
  23598800.034      927869.858       -1383.506          46.000
  25314742.609    -1725637.383        1401.359          29.000
  20515839.289     4616336.304       -2704.364          52.000
  23540619.178    -4565480.235        1862.030          40.000
  19265788.999    -2105413.742          30.931          53.000
  23755297.715     7001216.705       -3295.102          49.000
  22890089.077    -7750906.576        4078.219          46.000
  21742828.523    -6281108.549        2173.773          52.000
  23776527.257     -608296.800        -504.109          46.000
  22301580.934    -6534224.951        2545.815          52.000
  21316142.629    -4215936.629        1516.137          51.000
  21369027.754    -2107434.468          -9.782          49.000
  22220631.508     6025180.307       -3122.525          49.000
  24414664.233                        1147.759          27.000
  21701897.169     7345508.949       -3770.927          52.000
  24858676.789    -3062159.234        3516.404          43.000
  25172460.049    -1330851.447        3470.713          43.000
  23854610.742    -7396196.320        2919.783          46.000
 13 11  2 21 43 25.0000000  0 21G 7R 2R18R 9G 8R 1R10R17G 5R 3G15G16
                                G18G21G26G29G 9R24G27G22G 6
  25300883.430       26185.102        -605.693          40.000
  19482943.163    -4814712.113        1291.342          55.000
  21568801.924    -8843408.586        3524.533          50.000
  23599060.314      929253.950       -1384.310          46.000
  25314482.543    -1727038.262        1400.493          30.000
  20516346.341     4619041.144       -2704.931          52.000
  23540270.339    -4567341.729        1861.290          40.000
  19265785.389    -2105444.012          30.020          53.000
  23755924.739     7004512.038       -3295.274          50.000
  22889327.320    -7754984.526        4077.939          46.000
  21742415.641    -6283281.890        2173.243          52.000
  23776623.786     -607792.167        -504.786          46.000
  22301096.970    -6536770.463        2545.552          52.000
  21315854.259    -4217452.405        1515.767          51.000
  21369030.541    -2107424.088         -10.626          49.000
  22221225.403     6028303.214       -3122.873          49.000
  24414448.554                        1147.051          27.000
  21702601.888     7349280.303       -3771.388          52.000
  24858005.986    -3065675.375        3516.127          43.000
  25171799.181    -1334322.046        3470.787          43.000
  23854054.480    -7399115.761        2919.401          46.000
 13 11  2 21 43 26.0000000  0 21G 7R 2R18R 9G 8R 1R10R17G 5R 3G15G16
                                G18G21G26G29G 9R24G27G22G 6
  25300996.791       26791.593        -606.584          40.000
  19482701.717    -4816002.709        1290.493          55.000
  21568144.880    -8846932.562        3523.969          50.000
  23599320.094      930639.035       -1385.253          46.000
  25314209.004    -1728438.473        1400.075          30.000
  20516851.927     4621746.663       -2705.527          53.000
  23539920.428    -4569202.260        1860.299          40.000
  19265779.957    -2105473.275          29.067          53.000
  23756552.156     7007807.707       -3295.492          50.000
  22888566.779    -7759062.037        4077.594          46.000
  21742002.938    -6285454.472        2172.522          52.000
  23776719.635     -607286.675        -505.627          46.000
  22300612.326    -6539315.486        2545.095          53.000
  21315567.640    -4218967.686        1515.353          51.000
  21369031.184    -2107412.694         -11.609          50.000
  22221818.512     6031426.684       -3123.448          49.000
  24414228.050                        1146.113          27.000
  21703307.607     7353052.245       -3771.922          52.000
  24857337.113    -3069191.125        3515.908          43.000
  25171136.383    -1337792.360        3470.521          42.000
  23853501.469    -7402034.650        2918.947          46.000
 13 11  2 21 43 27.0000000  0 21G 7R 2R18R 9G 8R 1R10R17G 5R 3G15G16
                                G18G21G26G29G 9R24G27G22G 6
  25301113.726       27398.639        -607.283          40.000
  19482459.056    -4817292.647        1289.726          55.000
  21567482.583    -8850456.215        3523.564          50.000
  23599579.409      932024.884       -1386.139          46.000
  25313940.790    -1729838.178        1399.486          30.000
  20517358.764     4624452.625       -2706.090          52.000
  23539569.444    -4571062.081        1859.596          40.000
  19265773.095    -2105501.797          28.209          53.000
  23757179.108     7011103.460       -3295.748          49.000
  22887805.773    -7763139.327        4077.226          46.000
  21741588.448    -6287626.554        2171.912          53.000
  23776815.914     -606780.607        -506.351          46.000
  22300128.218    -6541860.278        2544.770          53.000
  21315277.268    -4220482.716        1514.996          51.000
  21369033.936    -2107400.539         -12.388          50.000
  22222411.442     6034550.443       -3123.832          49.000
  24414006.582                        1145.244          27.000
  21704010.539     7356824.516       -3772.358          52.000
  24856667.954    -3072706.716        3515.565          43.000
  25170477.588    -1341262.658        3470.305          43.000
  23852943.777    -7404953.249        2918.529          46.000
 13 11  2 21 43 28.0000000  0 21G 7R 2R18R 9G 8R 1R10R17G 5R 3G15G16
                                G18G21G26G29G 9R24G27G22G 6
  25301230.697       28006.165        -607.571          40.000
  19482217.252    -4818581.945        1289.076          55.000
  21566822.501    -8853979.578        3523.266          50.000
  23599837.331      933411.438       -1386.809          46.000
  25313676.257    -1731237.470        1399.247          30.000
  20517865.672     4627158.986       -2706.476          52.000
  23539222.928    -4572921.224        1858.819          40.000
  19265770.522    -2105529.627          27.548          53.000
  23757806.204     7014399.248       -3295.684          50.000
  22887042.587    -7767216.453        4077.113          46.000
  21741174.780    -6289798.176        2171.500          52.000
  23776911.978     -606273.978        -506.874          46.000
  22299643.932    -6544404.880        2544.623          53.000
  21314989.791    -4221997.542        1514.849          51.000
  21369036.152    -2107387.665         -13.092          49.000
  22223005.265     6037674.471       -3124.060          49.000
  24413790.760                        1144.787          27.000
  21704718.223     7360597.090       -3772.618          52.000
  24855997.151    -3076222.218        3515.629          43.000
  25169815.183    -1344733.002        3470.503          43.000
  23852389.301    -7407871.608        2918.330          46.000
 13 11  2 21 43 29.0000000  0 21G 7R 2R18R 9G 8R 1R10R17G 5R 3G15G16
                                G18G21G26G29G 9R24G27G22G 6
  25301347.239       28614.467        -608.584          40.000
  19481977.057    -4819870.357        1288.037          55.000
  21566163.956    -8857502.398        3522.624          50.000
  23600096.967      934798.977       -1387.977          46.000
  25313407.042    -1732636.015        1398.387          30.000
  20518372.688     4629866.023       -2707.324          53.000
  23538875.304    -4574779.436        1857.798          40.000
  19265765.697    -2105556.499          26.478          53.000
  23758432.870     7017695.354       -3296.178          49.000
  22886281.188    -7771293.159        4076.564          46.000
  21740761.255    -6291969.073        2170.644          52.000
  23777009.471     -605766.551        -507.737          46.000
  22299158.002    -6546949.031        2544.022          53.000
  21314703.065    -4223511.888        1514.208          51.000
  21369037.582    -2107373.791         -14.222          49.000
  22223600.125     6040799.021       -3124.720          49.000
  24413574.080                        1144.140          27.000
  21705423.978     7364370.234       -3773.342          52.000
  24855329.957    -3079737.333        3515.041          43.000
  25169155.566    -1348203.082        3470.040          43.000
  23851832.324    -7410789.447        2917.681          46.000
 13 11  2 21 43 30.0000000  0 21G 7R 2R18R 9G 8R 1R10R17G 5R 3G15G16
                                G18G21G26G29G 9R24G27G22G 6
  25301462.673       29223.373        -609.174          40.000
  19481734.967    -4821158.041        1287.367          55.000
  21565503.731    -8861024.817        3522.243          50.000
  23600358.320      936187.341       -1388.716          46.000
  25313147.012    -1734034.024        1397.667          30.000
  20518879.561     4632573.592       -2707.793          53.000
  23538523.356    -4576636.859        1856.944          40.000
  19265760.301    -2105582.522          25.624          53.000
  23759061.646     7020991.617       -3296.338          50.000
  22885520.754    -7775369.595        4076.317          46.000
  21740347.552    -6294139.390        2170.028          52.000
  23777106.714     -605258.450        -508.313          45.000
  22298674.216    -6549492.860        2543.655          53.000
  21314414.158    -4225025.914        1513.899          51.000
  21369039.261    -2107359.072         -15.123          50.000
  22224196.021     6043923.954       -3125.105          49.000
  24413353.254                        1143.461          27.000
  21706130.162     7368143.817       -3773.753          52.000
  24854660.369    -3083252.210        3514.775          43.000
  25168495.699    -1351673.077        3469.887          43.000
  23851277.884    -7413706.912        2917.232          46.000
 13 11  2 21 43 31.0000000  0 21G 7R 2R18R 9G 8R 1R10R17G 5R 3G15G16
                                G18G21G26G29G 9R24G27G22G 6
  25301577.428       29832.860        -609.453          40.000
  19481493.128    -4822445.035        1287.018          55.000
  21564843.292    -8864546.874        3522.230          50.000
  23600619.279      937576.505       -1389.182          46.000
  25312883.015    -1735431.472        1397.293          30.000
  20519384.289     4635281.651       -2707.897          53.000
  23538173.695    -4578493.532        1856.748          40.000
  19265757.764    -2105607.730          25.154          53.000
  23759687.848     7024288.006       -3296.097          50.000
  22884759.283    -7779445.813        4076.479          46.000
  21739935.349    -6296309.164        2169.900          52.000
  23777202.027     -604749.697        -508.731          46.000
  22298191.824    -6552036.425        2543.792          53.000
  21314125.895    -4226539.643        1513.957          51.000
  21369044.122    -2107343.553         -15.552          49.000
  22224790.095     6047049.222       -3125.090          48.000
  24413137.968    -3655969.4001       1142.818          27.000
  21706838.204     7371917.801       -3773.790          52.000
  24853990.709    -3086766.922        3514.984          43.000
  25167833.652    -1355143.023        3470.227          43.000
  23850721.335    -7416624.034        2917.263          46.000
 13 11  2 21 43 32.0000000  0 21G 7R 2R18R 9G 8R 1R10R17G 5R 3G15G16
                                G18G21G26G29G 9R24G27G22G 6
  25301695.613       30442.951        -610.366          39.000
  19481251.610    -4823731.290        1285.973          55.000
  21564185.819    -8868068.539        3521.513          50.000
  23600877.093      938966.469       -1390.296          46.000
  25312610.691    -1736828.439        1396.898          29.000
  20519892.305     4637990.212       -2708.717          52.000
  23537828.215    -4580349.416        1855.545          41.000
  19265753.225    -2105632.119          24.036          53.000
  23760314.800     7027584.561       -3296.565          50.000
  22883996.490    -7783521.746        4075.835          45.000
  21739522.718    -6298478.374        2169.015          52.000
  23777300.772     -604240.291        -509.658          45.000
  22297706.072    -6554579.694        2543.218          53.000
  21313837.739    -4228053.061        1513.355          51.000
  21369048.589    -2107327.197         -16.669          50.000
  22225386.313     6050174.859       -3125.724          49.000
  24412920.145                        1140.975          26.000
  21707544.388     7375692.213       -3774.554          52.000
  24853323.337    -3090281.378        3514.436          43.000
  25167176.786    -1358612.875        3469.934          43.000
  23850167.288    -7419540.787        2916.639          45.000
 13 11  2 21 43 33.0000000  0 21G 7R 2R18R 9G 8R 1R10R17G 5R 3G15G16
                                G18G21G26G29G 9R24G27G22G 6
  25301811.547       31053.688        -611.006          40.000
  19481011.093    -4825016.766        1285.157          55.000
  21563525.809    -8871589.788        3521.085          50.000
  23601136.909      940357.256       -1391.131          46.000
  25312346.980    -1738224.765        1396.017          30.000
  20520400.036     4640699.298       -2709.287          53.000
  23537481.556    -4582204.502        1854.730          41.000
  19265749.615    -2105655.680          23.194          53.000
  23760942.146     7030881.306       -3296.814          49.000
  22883237.200    -7787597.401        4075.566          46.000
  21739110.336    -6300646.981        2168.334          52.000
  23777397.550     -603730.206        -510.422          46.000
  22297222.894    -6557122.630        2542.794          53.000
  21313550.048    -4229566.128        1512.950          51.000
  21369050.018    -2107309.982         -17.588          50.000
  22225980.815     6053300.887       -3126.153          49.000
  24412705.038                        1138.845          26.000
  21708250.357     7379467.074       -3775.037          53.000
  24852653.463    -3093795.637        3514.139          43.000
  25166514.239    -1362082.623        3469.709          43.000
  23849611.597    -7422457.177        2916.265          45.000
 13 11  2 21 43 34.0000000  0 21G 7R 2R18R 9G 8R 1R10R17G 5R 3G15G16
                                G18G21G26G29G 9R24G27G22G 6
  25301926.624       31664.867        -611.595          40.000
  19480771.076    -4826301.712        1284.612          55.000
  21562865.978    -8875110.826        3520.857          50.000
  23601399.405      941748.636       -1391.708          46.000
  25312078.802    -1739620.786        1395.880          30.000
  20520905.586     4643408.694       -2709.633          52.000
  23537136.470    -4584059.002        1854.083          41.000
  19265743.039    -2105678.620          22.531          53.000
  23761569.420     7034178.013       -3296.791          50.000
  22882476.837    -7791672.967        4075.450          46.000
  21738697.169    -6302815.203        2167.923          52.000
  23777493.721     -603219.641        -510.852          46.000
  22296738.215    -6559665.453        2542.640          53.000
  21313263.072    -4231079.068        1512.811          52.000
  21369053.199    -2107292.121         -18.246          49.000
  22226575.353     6056427.113       -3126.436          49.000
  24412490.717                        1141.196          25.000
  21708959.615     7383242.172       -3775.312          53.000
  24851986.734    -3097309.842        3514.069          43.000
  25165856.837    -1365552.459        3469.715          43.000
  23849055.978    -7425373.375        2916.022          46.000
 13 11  2 21 43 35.0000000  0 21G 7R 2R18R 9G 8R 1R10R17G 5R 3G15G16
                                G18G21G26G29G 9R24G27G22G 6
  25302045.417       32276.716        -611.985          40.000
  19480530.059    -4827585.861        1283.920          55.000
  21562207.111    -8878631.396        3520.498          50.000
  23601658.899      943140.909       -1392.567          45.000
  25311817.092    -1741016.172        1395.134          30.000
  20521413.853     4646118.658       -2710.098          52.000
  23536790.061    -4585912.657        1853.333          41.000
  19265740.359    -2105700.682          21.782          53.000
  23762197.588     7037474.932       -3296.904          49.000
  22881715.688    -7795748.205        4075.200          46.000
  21738285.252    -6304982.788        2167.414          52.000
  23777591.787     -602708.354        -511.461          46.000
  22296255.787    -6562207.907        2542.436          52.000
  21312975.237    -4232591.623        1512.518          51.000
  21369058.274    -2107273.361         -19.069          49.000
  22227170.785     6059553.764       -3126.727          49.000
  24412277.432                        1141.275          25.000
  21709664.405     7387017.761       -3775.698          53.000
  24851316.646    -3100823.758        3513.852          43.000
  25165196.005    -1369022.161        3469.774          42.000
  23848500.394    -7428289.157        2915.717          46.000
 13 11  2 21 43 36.0000000  0 21G 7R 2R18R 9G 8R 1R10R17G 5R 3G15G16
                                G18G21G26G29G 9R24G27G22G 6
  25302160.387       32889.086        -612.449          40.000
  19480289.614    -4828869.346        1283.308          55.000
  21561548.173    -8882151.645        3520.284          50.000
  23601920.573      944533.925       -1393.217          45.000
  25311558.921    -1742411.060        1394.781          30.000
  20521920.654     4648829.041       -2710.443          52.000
  23536440.828    -4587765.620        1852.812          41.000
  19265737.429    -2105721.998          21.060          53.000
  23762824.147     7040771.922       -3296.940          49.000
  22880954.361    -7799823.251        4075.088          45.000
  21737872.728    -6307149.881        2166.968          52.000
  23777690.352     -602196.476        -512.096          46.000
  22295771.143    -6564750.143        2542.301          53.000
  21312685.223    -4234103.940        1512.301          51.000
  21369060.704    -2107253.850         -19.761          49.000
  22227765.180     6062680.710       -3127.017          48.000
  24412059.358                        1140.431          26.000
  21710372.018     7390793.682       -3775.910          53.000
  24850646.129    -3104337.558        3513.781          43.000
  25164536.031    -1372491.856        3469.718          42.000
  23847946.454    -7431204.641        2915.430          46.000
 13 11  2 21 43 37.0000000  0 21G 7R 2R18R 9G 8R 1R10R17G 5R 3G15G16
                                G18G21G26G29G 9R24G27G22G 6
  25302276.392       33502.049        -612.857          40.000
  19480049.740    -4830152.095        1282.625          55.000
  21560888.270    -8885671.508        3519.939          50.000
  23602182.354      945927.773       -1394.016          45.000
  25311291.672    -1743805.435        1394.376          30.000
  20522428.063     4651539.916       -2710.862          53.000
  23536093.419    -4589617.785        1851.989          42.000
  19265734.319    -2105742.478          20.302          53.000
  23763450.206     7044069.054       -3296.993          49.000
  22880191.746    -7803898.036        4074.916          45.000
  21737460.740    -6309316.413        2166.521          52.000
  23777786.809     -601683.959        -512.590          46.000
  22295287.643    -6567292.084        2542.120          52.000
  21312398.425    -4235615.948        1512.080          51.000
  21369064.778    -2107233.511         -20.439          49.000
  22228360.504     6065808.007       -3127.178          48.000
  24411844.930                        1138.097          25.000
  21711077.487     7394570.005       -3776.275          52.000
  24849978.506    -3107851.134        3513.709          43.000
  25163876.628    -1375961.478        3469.925          42.000
  23847392.300    -7434119.805        2915.271          45.000
 13 11  2 21 43 38.0000000  0 21G 7R 2R18R 9G 8R 1R10R17G 5R 3G15G16
                                G18G21G26G29G 9R24G27G22G 6
  25302394.185       34115.520        -613.647          40.000
  19479808.687    -4831434.208        1281.911          55.000
  21560230.011    -8889191.081        3519.543          50.000
  23602444.886      947322.337       -1394.835          45.000
  25311024.887    -1745199.391        1393.912          30.000
  20522936.401     4654251.205       -2711.390          52.000
  23535746.867    -4591469.310        1851.317          41.000
  19265730.209    -2105762.227          19.510          53.000
  23764079.589     7047366.225       -3297.088          49.000
  22879430.705    -7807972.664        4074.681          45.000
  21737048.144    -6311482.480        2165.956          53.000
  23777886.518     -601170.871        -513.357          46.000
  22294803.750    -6569833.830        2541.779          52.000
  21312110.913    -4237127.744        1511.766          51.000
  21369069.746    -2107212.448         -21.285          49.000
  22228955.793     6068935.573       -3127.646          49.000
  24411631.574                        1140.231          24.000
  21711783.885     7398346.633       -3776.637          52.000
  24849309.919    -3111364.596        3513.438          43.000
  25163217.225    -1379431.124        3469.819          43.000
  23846838.039    -7437034.718        2914.903          46.000
 13 11  2 21 43 39.0000000  0 21G 7R 2R18R 9G 8R 1R10R17G 5R 3G15G16
                                G18G21G26G29G 9R24G27G22G 6
  25302510.476       34729.583        -614.343          40.000
  19479570.921    -4832715.584        1281.015          55.000
  21559568.964    -8892710.252        3518.957          49.000
  23602704.701      948717.720       -1395.818          45.000
  25310762.606    -1746592.717        1392.982          30.000
  20523444.810     4656963.027       -2712.115          52.000
  23535402.460    -4593320.029        1850.261          41.000
  19265726.600    -2105781.153          18.486          53.000
  23764706.613     7050663.559       -3297.438          49.000
  22878668.662    -7812047.032        4074.182          45.000
  21736636.477    -6313647.963        2165.159          53.000
  23777982.403     -600657.144        -514.040          46.000
  22294320.143    -6572375.266        2541.277          52.000
  21311822.149    -4238639.218        1511.279          51.000
  21369073.856    -2107190.539         -22.332          49.000
  22229550.653     6072063.510       -3128.142          49.000
  24411415.073                        1138.384          25.000
  21712489.140     7402123.679       -3777.288          52.000
  24848643.940    -3114877.847        3513.218          43.000
  25162558.144    -1382900.661        3469.587          43.000
  23846282.419    -7439949.244        2914.343          46.000
 13 11  2 21 43 40.0000000  0 21G 7R 2R18R 9G 8R 1R10R17G 5R 3G15G16
                                G18G21G26G29G 9R24G27G22G 6
  25302628.376       35344.298        -614.873          39.000
  19479329.975    -4833996.226        1280.349          55.000
  21558910.276    -8896228.991        3518.604          49.000
  23602966.804      950113.936       -1396.522          46.000
  25310494.356    -1747985.517        1392.601          31.000
  20523950.611     4659675.399       -2712.600          52.000
  23535053.227    -4595169.949        1849.506          41.000
  19265722.776    -2105799.235          17.717          53.000
  23765333.315     7053961.064       -3297.474          49.000
  22877905.012    -7816121.122        4074.000          45.000
  21736222.238    -6315812.858        2164.709          52.000
  23778082.256     -600142.712        -514.692          46.000
  22293835.642    -6574916.383        2541.037          53.000
  21311534.815    -4240150.345        1511.048          51.000
  21369078.680    -2107167.780         -23.041          49.000
  22230147.335     6075191.839       -3128.458          49.000
  24411207.542                        1151.865          26.000
  21713195.681     7405901.162       -3777.610          53.000
  24847973.316    -3118390.833        3512.939          43.000
  25161897.526    -1386370.103        3469.501          43.000
  23845729.588    -7442863.384        2913.989          46.000
 13 11  2 21 43 41.0000000  0 21G 7R 2R18R 9G 8R 1R10R17G 5R 3G15G16
                                G18G21G26G29G 9R24G27G22G 6
  25302745.847       35959.656        -615.584          39.000
  19479090.638    -4835276.115        1279.501          55.000
  21558251.267    -8899747.317        3518.078          50.000
  23603230.372      951510.973       -1397.476          46.000
  25310227.357    -1749377.722        1391.711          30.000
  20524458.555     4662388.317       -2713.223          53.000
  23534704.817    -4597019.082        1848.749          41.000
  19265720.989    -2105816.486          16.797          53.000
  23765959.910     7057258.742       -3297.759          49.000
  22877149.152    -7820194.900        4073.565          45.000
  21735810.786    -6317977.158        2164.000          52.000
  23778180.356     -599627.599        -515.491          46.000
  22293352.785    -6577457.172        2540.644          52.000
  21311247.446    -4241661.133        1510.633          51.000
  21369083.112    -2107144.155         -24.062          49.000
  22230741.694     6078320.565       -3128.958          49.000
  24410988.504                        1138.230          25.000
  21713904.188     7409679.092       -3778.188          53.000
  24847306.873    -3121903.603        3512.648          43.000
  25161237.766    -1389839.427        3469.255          43.000
  23845174.254    -7445777.155        2913.569          46.000
 13 11  2 21 43 42.0000000  0 21G 7R 2R18R 9G 8R 1R10R17G 5R 3G15G16
                                G18G21G26G29G 9R24G27G22G 6
  25302861.924       36575.799        -616.563          39.000
  19478850.407    -4836555.093        1278.572          55.000
  21557593.151    -8903265.109        3517.541          49.000
  23603492.475      952908.947       -1398.385          46.000
  25309965.576    -1750769.255        1391.115          30.000
  20524965.643     4665101.901       -2713.878          52.000
  23534358.873    -4598867.261        1847.653          41.000
  19265718.273    -2105832.751          15.796          53.000
  23766588.793     7060556.712       -3298.076          49.000
  22876388.253    -7824268.258        4073.158          45.000
  21735399.083    -6320140.745        2163.265          52.000
  23778276.206     -599111.694        -516.277          45.000
  22292869.250    -6579997.520        2540.149          52.000
  21310960.148    -4243171.455        1510.121          51.000
  21369087.508    -2107119.559         -25.049          49.000
  22231338.234     6081449.789       -3129.448          48.000
  24410770.323                        1135.969          26.000
  21714609.550     7413457.593       -3778.773          53.000
  24846637.606    -3125416.003        3512.377          43.000
  25160577.041    -1393308.541        3469.036          43.000
  23844620.743    -7448690.434        2913.012          46.000
 13 11  2 21 43 43.0000000  0 21G 7R 2R18R 9G 8R 1R10R17G 5R 3G15G16
                                G18G21G26G29G 9R24G27G22G 6
  25302978.788       37192.526        -616.752          39.000
  19478611.069    -4837833.352        1278.111          55.000
  21556933.998    -8906782.541        3517.441          49.000
  23603756.079      954307.705       -1398.948          46.000
  25309698.791    -1752160.282        1391.169          30.000
  20525473.373     4667815.974       -2714.114          52.000
  23534013.572    -4600714.706        1847.210          41.000
  19265715.235    -2105848.213          15.284          53.000
  23767216.031     7063854.816       -3297.949          49.000
  22875624.496    -7828341.351        4073.167          45.000
  21734987.989    -6322303.781        2163.010          52.000
  23778375.308     -598595.144        -516.586          45.000
  22292387.251    -6582537.603        2540.208          52.000
  21310672.992    -4244681.485        1510.114          51.000
  21369092.976    -2107094.141         -25.620          49.000
  22231932.415     6084579.369       -3129.507          48.000
  24410564.222                        1135.135          26.000
  21715316.770     7417236.498       -3778.891          52.000
  24845969.269    -3128928.192        3512.194          43.000
  25159918.890    -1396777.576        3469.148          44.000
  23844065.839    -7451603.385        2912.989          46.000
 13 11  2 21 43 44.0000000  0 21G 7R 2R18R 9G 8R 1R10R17G 5R 3G15G16
                                G18G21G26G29G 9R24G27G22G 6
  25303094.758       37809.718        -617.452          39.000
  19478373.876    -4839111.065        1277.408          55.000
  21556275.489    -8910299.734        3517.042          49.000
  23604018.217      955707.133       -1399.729          46.000
  25309428.218    -1753550.899        1390.584          30.000
  20525982.033     4670530.396       -2714.645          53.000
  23533670.129    -4602561.519        1846.501          41.000
  19265712.483    -2105863.012          14.402          53.000
  23767843.877     7067152.915       -3298.165          49.000
  22874865.205    -7832414.312        4072.866          45.000
  21734576.072    -6324466.392        2162.350          52.000
  23778474.338     -598078.076        -517.327          46.000
  22291901.535    -6585077.518        2539.770          52.000
  21310384.837    -4246191.337        1509.707          51.000
  21369097.443    -2107068.054         -26.465          49.000
  22232529.454     6087709.163       -3129.935          49.000
  24410338.286                        1133.827          27.000
  21716023.811     7421015.678       -3779.372          52.000
  24845302.505    -3132440.321        3511.920          43.000
  25159259.916    -1400246.683        3469.035          44.000
  23843510.577    -7454516.113        2912.562          46.000
 13 11  2 21 43 45.0000000  0 21G 7R 2R18R 9G 8R 1R10R17G 5R 3G15G16
                                G18G21G26G29G 9R24G27G22G 6
  25303212.157       38427.498        -618.335          39.000
  19478134.717    -4840388.095        1276.463          55.000
  21555615.693    -8913816.546        3516.397          49.000
  23604280.749      957107.396       -1400.917          46.000
  25309160.290    -1754940.933        1389.558          29.000
  20526490.514     4673245.304       -2715.374          53.000
  23533325.722    -4604407.554        1845.366          41.000
  19265709.338    -2105877.010          13.368          53.000
  23768470.651     7070451.157       -3298.473          49.000
  22874103.556    -7836487.044        4072.426          44.000
  21734164.370    -6326628.433        2161.553          52.000
  23778573.010     -597560.355        -518.291          46.000
  22291418.714    -6587617.149        2539.301          52.000
  21310097.217    -4247700.882        1509.220          51.000
  21369102.875    -2107041.136         -27.486          50.000
  22233124.457     6090839.326       -3130.547          49.000
  24410112.814                        1132.715          28.000
  21716730.924     7424795.253       -3780.004          52.000
  24844631.630    -3135952.225        3511.425          43.000
  25158599.334    -1403715.692        3468.657          44.000
  23842957.387    -7457428.484        2912.000          46.000
 13 11  2 21 43 46.0000000  0 21G 7R 2R18R 9G 8R 1R10R17G 5R 3G15G16
                                G18G21G26G29G 9R24G27G22G 6
  25303331.201       39045.926        -618.701          39.000
  19477895.164    -4841664.351        1275.913          55.000
  21554957.720    -8917332.954        3516.218          49.000
  23604544.317      958508.481       -1401.495          46.000
  25308891.362    -1756330.431        1389.242          29.000
  20526998.601     4675960.725       -2715.660          53.000
  23532975.775    -4606252.791        1844.866          41.000
  19265705.407    -2105890.176          12.784          53.000
  23769098.819     7073749.572       -3298.436          49.000
  22873344.194    -7840559.515        4072.342          45.000
  21733754.418    -6328789.885        2161.172          52.000
  23778670.718     -597041.953        -518.722          46.000
  22290933.856    -6590156.454        2539.190          52.000
  21309809.097    -4249210.093        1509.119          51.000
  21369108.236    -2107013.359         -28.152          50.000
  22233720.389     6093969.873       -3130.714          49.000
  24409884.198                        1132.612          28.000
  21717436.179     7428575.259       -3780.188          52.000
  24843963.972    -3139463.915        3511.543          43.000
  25157939.931    -1407184.633        3468.888          44.000
  23842403.519    -7460340.473        2911.834          45.000
 13 11  2 21 43 47.0000000  0 21G 7R 2R18R 9G 8R 1R10R17G 5R 3G15G16
                                G18G21G26G29G 9R24G27G22G 6
  25303447.099       39665.023        -619.420          39.000
  19477655.791    -4842939.754        1274.986          55.000
  21554299.425    -8920848.903        3515.734          49.000
  23604806.348      959910.438       -1402.362          46.000
  25308622.397    -1757719.336        1388.904          29.000
  20527507.833     4678676.722       -2716.205          53.000
  23532630.081    -4608097.192        1844.048          40.000
  19265704.264    -2105902.446          11.828          53.000
  23769726.307     7077048.209       -3298.709          49.000
  22872580.043    -7844631.668        4071.986          45.000
  21733342.466    -6330950.704        2160.542          52.000
  23778771.142     -596522.844        -519.395          46.000
  22290452.071    -6592695.402        2538.797          52.000
  21309522.263    -4250718.918        1508.693          51.000
  21369114.740    -2106984.685         -29.080          50.000
  22234317.786     6097100.844       -3131.140          49.000
  24409678.740                        1131.921          29.000
  21718145.043     7432355.743       -3780.713          52.000
  24843294.205    -3142975.308        3511.250          43.000
  25157277.848    -1410653.407        3468.720          44.000
  23841848.472    -7463252.032        2911.376          45.000
 13 11  2 21 43 48.0000000  0 21G 7R 2R18R 9G 8R 1R10R17G 5R 3G15G16
                                G18G21G26G29G 9R24G27G22G 6
  25303564.105       40284.697        -619.559          39.000
  19477417.668    -4844214.416        1274.658          55.000
  21553641.309    -8924364.482        3515.735          50.000
  23605068.201      961313.171       -1402.758          45.000
  25308353.075    -1759107.672        1388.318          29.000
  20528016.635     4681393.213       -2716.406          53.000
  23532286.102    -4609940.828        1843.662          40.000
  19265702.441    -2105913.908          11.392          53.000
  23770353.617     7080346.973       -3298.483          49.000
  22871818.572    -7848703.530        4072.036          45.000
  21732932.372    -6333110.966        2160.337          52.000
  23778869.064     -596003.076        -519.777          46.000
  22289968.535    -6595234.062        2538.853          52.000
  21309234.965    -4252227.443        1508.713          51.000
  21369119.350    -2106955.197         -29.490          50.000
  22234910.859     6100232.171       -3131.171          49.000
  24409469.065                        1135.574          30.000
  21718850.548     7436136.627       -3780.753          53.000
  24842626.047    -3146486.511        3511.533          43.000
  25156618.660    -1414122.116        3469.073          44.000
  23841294.925    -7466163.250        2911.393          45.000
 13 11  2 21 43 49.0000000  0 21G 7R 2R18R 9G 8R 1R10R17G 5R 3G15G16
                                G18G21G26G29G 9R24G27G22G 6
  25303685.329       40904.919        -620.264          39.000
  19477179.367    -4845488.437        1273.847          55.000
  21552981.942    -8927879.725        3515.191          49.000
  23605333.806      962716.641       -1403.698          46.000
  25308091.473    -1760495.571        1388.115          28.000
  20528523.830     4684110.155       -2717.051          53.000
  23531940.765    -4611783.741        1842.776          41.000
  19265700.833    -2105924.622          10.448          53.000
  23770981.713     7083645.821       -3298.738          49.000
  22871061.212    -7852775.189        4071.727          44.000
  21732520.884    -6335270.729        2159.670          52.000
  23778968.881     -595482.728        -520.498          46.000
  22289486.429    -6597772.505        2538.485          52.000
  21308948.882    -4253735.722        1508.304          51.000
  21369125.461    -2106924.938         -30.484          49.000
  22235507.720     6103363.794       -3131.649          49.000
  24409255.387                        1130.497          31.000
  21719561.771     7439917.873       -3781.311          52.000
  24841961.212    -3149997.556        3511.132          43.000
  25155956.863    -1417590.805        3468.857          44.000
  23840739.413    -7469074.170        2910.977          45.000
 13 11  2 21 43 50.0000000  0 21G 7R 2R18R 9G 8R 1R10R17G 5R 3G15G16
                                G18G21G26G29G 9R24G27G22G 6
  25303803.264       41525.705        -620.843          39.000
  19476941.066    -4846761.844        1273.198          55.000
  21552323.075    -8931394.652        3514.913          49.000
  23605595.659      964120.847       -1404.468          46.000
  25307827.690    -1761882.915        1387.198          28.000
  20529034.026     4686827.525       -2717.487          53.000
  23531596.429    -4613625.937        1842.020          40.000
  19265697.509    -2105934.596           9.703          53.000
  23771609.559     7086944.762       -3298.867          49.000
  22870302.171    -7856846.632        4071.446          45.000
  21732110.218    -6337429.983        2159.102          52.000
  23779066.481     -594961.778        -521.097          46.000
  22289003.644    -6600310.698        2538.196          52.000
  21308662.227    -4255243.739        1507.995          51.000
  21369131.465    -2106893.915         -31.274          49.000
  22236103.402     6106495.722       -3131.979          49.000
  24409045.640                        1129.745          31.000
  21720265.631     7443699.467       -3781.664          52.000
  24841292.088    -3153508.457        3510.938          43.000
  25155297.067    -1421059.479        3468.862          44.000
  23840186.974    -7471984.799        2910.640          46.000
 13 11  2 21 43 51.0000000  0 21G 7R 2R18R 9G 8R 1R10R17G 5R 3G15G16
                                G18G21G26G29G 9R24G27G22G 6
  25303921.200       42147.044        -621.500          39.000
  19476702.443    -4848034.567        1272.496          55.000
  21551665.031    -8934909.212        3514.511          49.000
  23605861.228      965525.838       -1405.268          46.000
  25307563.479    -1763269.812        1386.956          29.000
  20529540.470     4689545.373       -2718.018          53.000
  23531251.593    -4615467.386        1841.170          40.000
  19265696.937    -2105943.796           8.908          53.000
  23772237.906     7090243.802       -3298.978          49.000
  22869541.237    -7860917.870        4071.237          45.000
  21731699.838    -6339588.707        2158.582          52.000
  23779165.762     -594440.209        -521.700          46.000
  22288521.681    -6602848.635        2537.943          52.000
  21308374.071    -4256751.481        1507.722          51.000
  21369136.933    -2106862.101         -32.082          50.000
  22236698.262     6109627.974       -3132.264          49.000
  24408836.537                        1129.342          31.000
  21720973.745     7447481.437       -3782.075          52.000
  24840625.181    -3157019.173        3510.710          43.000
  25154636.163    -1424528.100        3468.710          44.000
  23839633.892    -7474895.113        2910.319          46.000
 13 11  2 21 43 52.0000000  0 21G 7R 2R18R 9G 8R 1R10R17G 5R 3G15G16
                                G18G21G26G29G 9R24G27G22G 6
  25304040.923       42768.971        -621.998          39.000
  19476465.678    -4849306.552        1271.888          55.000
  21551008.451    -8938423.413        3514.295          49.000
  23606121.366      966931.594       -1405.928          46.000
  25307298.445    -1764656.218        1387.095          29.000
  20530051.381     4692263.681       -2718.253          53.000
  23530903.683    -4617308.097        1840.636          40.000
  19265694.364    -2105952.197           8.288          53.000
  23772865.966     7093542.953       -3298.957          49.000
  22868780.839    -7864988.893        4071.138          45.000
  21731288.350    -6341746.901        2158.234          52.000
  23779264.756     -593918.012        -522.221          46.000
  22288037.859    -6605386.304        2537.795          52.000
  21308088.310    -4258258.944        1507.595          51.000
  21369144.081    -2106829.507         -32.711          50.000
  22237294.015     6112760.557       -3132.465          48.000
  24408620.894                        1129.001          32.000
  21721681.466     7451263.770       -3782.241          53.000
  24839954.413    -3160529.715        3510.760          43.000
  25153976.975    -1427996.681        3468.814          44.000
  23839077.844    -7477805.116        2910.095          45.000
 13 11  2 21 43 53.0000000  0 21G 7R 2R18R 9G 8R 1R10R17G 5R 3G15G16
                                G18G21G26G29G 9R24G27G22G 6
  25304156.571       43391.452        -622.726          39.000
  19476227.198    -4850577.815        1271.041          55.000
  21550348.227    -8941937.263        3513.842          49.000
  23606386.399      968338.132       -1406.787          46.000
  25307034.949    -1766041.985        1385.436          29.000
  20530559.969     4694982.467       -2718.895          53.000
  23530557.596    -4619148.050        1839.682          40.000
  19265694.328    -2105959.789           7.338          53.000
  23773492.418     7096842.206       -3299.151          49.000
  22868023.371    -7869059.672        4070.733          45.000
  21730878.149    -6343904.562        2157.587          53.000
  23779362.893     -593395.223        -522.847          46.000
  22287554.788    -6607923.725        2537.475          52.000
  21307802.048    -4259766.129        1507.211          51.000
  21369150.907    -2106796.106         -33.633          50.000
  22237891.019     6115893.464       -3132.883          48.000
  24408409.217    -3680965.0041       1128.246          31.000
  21722389.400     7455046.473       -3782.733          52.000
  24839288.578    -3164040.076        3510.460          43.000
  25153317.215    -1431465.227        3468.646          44.000
  23838526.013    -7480714.820        2909.719          45.000
 13 11  2 21 43 54.0000000  0 21G 7R 2R18R 9G 8R 1R10R17G 5R 3G15G16
                                G18G21G26G29G 9R24G27G22G 6
  25304277.008       44014.508        -623.108          39.000
  19475988.432    -4851848.404        1270.430          55.000
  21549691.933    -8945450.754        3513.434          49.000
  23606651.540      969745.454       -1407.461          46.000
  25306775.598    -1767427.354        1385.207          29.000
  20531066.842     4697701.719       -2719.329          53.000
  23530215.046    -4620987.263        1839.046          40.000
  19265692.792    -2105966.620           6.588          53.000
  23774122.409     7100141.579       -3299.271          49.000
  22867259.970    -7873130.227        4070.627          45.000
  21730468.091    -6346061.676        2157.037          52.000
  23779464.067     -592871.775        -523.619          46.000
  22287072.717    -6610460.871        2537.207          52.000
  21307515.536    -4261273.027        1506.883          51.000
  21369158.162    -2106761.908         -34.390          50.000
  22238486.629     6119026.708       -3133.258          49.000
  24408194.324    -3682092.835        1127.695          31.000
  21723098.872     7458829.544       -3783.075          52.000
  24838622.921    -3167550.251        3510.243          43.000
  25152655.775    -1434933.724        3468.668          44.000
  23837972.216    -7483624.204        2909.444          45.000
 13 11  2 21 43 55.0000000  0 21G 7R 2R18R 9G 8R 1R10R17G 5R 3G15G16
                                G18G21G26G29G 9R24G27G22G 6
  25304393.621       44638.259        -623.905          40.000
  19475751.346    -4853118.219        1269.576          55.000
  21549033.996    -8948963.766        3512.942          49.000
  23606911.855      971153.665       -1408.484          46.000
  25306511.172    -1768812.051        1384.591          29.000
  20531576.895     4700421.569       -2720.000          53.000
  23529867.851    -4622825.597        1838.092          40.000
  19265692.220    -2105972.579           5.675          53.000
  23774749.540     7103441.184       -3299.615          49.000
  22866500.751    -7877200.415        4070.135          45.000
  21730057.210    -6348218.137        2156.312          52.000
  23779563.598     -592347.598        -524.452          46.000
  22286590.468    -6612997.634        2536.708          52.000
  21307228.631    -4262779.531        1506.452          50.000
  21369163.630    -2106726.796         -35.435          50.000
  22239083.026     6122160.400       -3133.770          48.000
  24407984.078    -3683219.907        1126.993          31.000
  21723805.556     7462613.131       -3783.696          52.000
  24837953.011    -3171060.119        3509.780          43.000
  25151997.909    -1438402.047        3468.433          44.000
  23837419.241    -7486533.126        2908.860          45.000
 13 11  2 21 43 56.0000000  0 21G 7R 2R18R 9G 8R 1R10R17G 5R 3G15G16
                                G18G21G26G29G 9R24G27G22G 6
  25304511.628       45262.475        -624.281          40.000
  19475513.795    -4854387.492        1269.143          55.000
  21548374.665    -8952476.548        3512.803          50.000
  23607177.854      972562.519       -1409.060          46.000
  25306248.104    -1770196.356        1383.999          29.000
  20532087.020     4703141.757       -2720.191          53.000
  23529523.622    -4624663.299        1837.483          41.000
  19265690.469    -2105977.900           5.110          53.000
  23775377.636     7106740.777       -3299.440          48.000
  22865740.532    -7881270.517        4070.269          45.000
  21729647.295    -6350374.194        2155.961          53.000
  23779664.522     -591822.931        -524.752          46.000
  22286107.397    -6615534.253        2536.659          52.000
  21306942.548    -4264285.871        1506.377          51.000
  21369169.348    -2106691.009         -35.946          50.000
  22239679.530     6125294.299       -3133.891          49.000
  24407760.179    -3684346.443        1126.267          31.000
  21724514.099     7466396.976       -3783.848          53.000
  24837286.246    -3174569.929        3509.957          43.000
  25151337.184    -1441870.432        3468.494          44.000
  23836864.444    -7489441.843        2908.655          45.000
 13 11  2 21 43 57.0000000  0 21G 7R 2R18R 9G 8R 1R10R17G 5R 3G15G16
                                G18G21G26G29G 9R24G27G22G 6
  25304631.672       45887.368        -625.086          40.000
  19475275.959    -4855655.941        1268.151          55.000
  21547718.407    -8955988.893        3512.276          49.000
  23607440.993      973972.219       -1410.009          46.000
  25305982.678    -1771580.048        1383.331          30.000
  20532595.966     4705862.514       -2720.918          53.000
  23529179.608    -4626500.171        1836.562          41.000
  19265690.505    -2105982.323           4.075          53.000
  23776004.410     7110040.576       -3299.779          48.000
  22864977.417    -7885340.281        4069.692          45.000
  21729236.129    -6352529.619        2155.196          53.000
  23779763.766     -591297.542        -525.595          46.000
  22285625.219    -6618070.518        2536.167          52.000
  21306654.178    -4265791.842        1505.862          51.000
  21369177.317    -2106654.330         -37.025          50.000
  22240274.747     6128428.621       -3134.435          48.000
  24407544.214    -3685472.247        1125.518          30.000
  21725220.497     7470181.302       -3784.455          52.000
  24836618.553    -3178079.455        3509.565          43.000
  25150676.781    -1445338.699        3468.341          44.000
  23836310.897    -7492350.153        2908.161          45.000
 13 11  2 21 43 58.0000000  0 21G 7R 2R18R 9G 8R 1R10R17G 5R 3G15G16
                                G18G21G26G29G 9R24G27G22G 6
  25304751.502       46512.882        -625.454          40.000
  19475039.158    -4856923.569        1267.570          55.000
  21547059.862    -8959500.799        3512.013          49.000
  23607703.310      975382.769       -1410.671          46.000
  25305722.255    -1772963.185        1383.261          29.000
  20533105.733     4708583.810       -2721.209          53.000
  23528834.843    -4628336.239        1836.061          41.000
  19265691.398    -2105985.856           3.427          53.000
  23776634.186     7113340.554       -3299.766          48.000
  22864220.592    -7889409.732        4069.634          45.000
  21728828.286    -6354684.451        2154.883          53.000
  23779864.834     -590771.461        -526.121          46.000
  22285143.149    -6620606.454        2536.067          52.000
  21306369.488    -4267297.467        1505.789          51.000
  21369185.108    -2106616.797         -37.650          50.000
  22240870.357     6131563.340       -3134.601          48.000
  24407324.175    -3686597.355        1124.812          30.000
  21725927.824     7473966.091       -3784.695          52.000
  24835948.321    -3181588.747        3509.416          43.000
  25150018.093    -1448806.845        3468.479          44.000
  23835757.672    -7495258.090        2908.078          46.000
 13 11  2 21 43 59.0000000  0 21G 7R 2R18R 9G 8R 1R10R17G 5R 3G15G16
                                G18G21G26G29G 9R24G27G22G 6
  25304869.974       47138.906        -626.312          40.000
  19474800.321    -4858190.541        1266.553          55.000
  21546402.175    -8963012.401        3511.361          49.000
  23607969.237      976794.055       -1411.791          46.000
  25305461.510    -1774345.819        1382.286          30.000
  20533613.571     4711305.536       -2722.051          54.000
  23528490.936    -4630171.621        1834.998          40.000
  19265690.111    -2105988.633           2.301          53.000
  23777261.924     7116640.589       -3300.165          48.000
  22863459.694    -7893478.995        4069.037          45.000
  21728417.549    -6356838.790        2154.027          52.000
  23779964.829     -590244.816        -526.971          46.000
  22284659.970    -6623142.178        2535.515          52.000
  21306083.298    -4268802.859        1505.204          51.000
  21369192.184    -2106578.524         -38.710          50.000
  22241468.505     6134698.337       -3135.271          48.000
  24407111.390                        1124.306          30.000
  21726635.331     7477751.206       -3785.438          52.000
  24835281.556    -3185097.891        3508.970          43.000
  25149358.690    -1452274.985        3468.042          44.000
  23835204.483    -7498165.741        2907.435          45.000
 13 11  2 21 44  0.0000000  0 21G 7R 2R18R 9G 8R 1R10R17G 5R 3G15G16
                                G18G21G26G29G 9R24G27G22G 6
  25304989.660       47765.499        -626.930          40.000
  19474561.770    -4859456.863        1265.940          55.000
  21545744.023    -8966523.633        3510.988          50.000
  23608232.412      978206.148       -1412.538          46.000
  25305200.622    -1775728.015        1382.075          30.000
  20534123.267     4714027.740       -2722.497          53.000
  23528147.815    -4632006.251        1834.275          41.000
  19265690.933    -2105990.623           1.543          53.000
  23777888.806     7119940.742       -3300.280          48.000
  22862699.581    -7897548.041        4068.829          45.000
  21728009.706    -6358992.594        2153.487          53.000
  23780063.144     -589717.541        -527.628          46.000
  22284175.898    -6625677.637        2535.245          52.000
  21305796.679    -4270307.959        1504.872          51.000
  21369199.761    -2106539.446         -39.539          50.000
  22242064.329     6137833.660       -3135.556          48.000
  24406890.815                        1123.432          30.000
  21727342.551     7481536.672       -3785.695          52.000
  24834614.542    -3188606.871        3508.815          43.000
  25148698.323    -1455743.091        3467.997          44.000
  23834651.544    -7501073.042        2907.090          45.000
 13 11  2 21 44  1.0000000  0 21G 7R 2R18R 9G 8R 1R10R17G 5R 3G15G16
                                G18G21G26G29G 9R24G27G22G 6
  25305107.667       48392.811        -627.527          40.000
  19474326.506    -4860722.382        1265.204          55.000
  21545088.087    -8970034.356        3510.553          50.000
  23608499.339      979619.161       -1413.372          46.000
  25304939.377    -1777109.503        1381.293          30.000
  20534633.749     4716750.576       -2723.044          53.000
  23527805.766    -4633840.004        1833.401          40.000
  19265691.541    -2105991.700           0.713          53.000
  23778515.901     7123241.150       -3300.448          48.000
  22861939.612    -7901616.726        4068.551          45.000
  21727597.611    -6361145.717        2152.882          52.000
  23780163.711     -589189.495        -528.404          46.000
  22283694.007    -6628212.691        2534.992          51.000
  21305510.703    -4271812.648        1504.598          51.000
  21369205.872    -2106499.422         -40.438          49.000
  22242660.833     6140969.463       -3135.894          48.000
  24406671.312    -3689968.8621       1122.777          29.000
  21728050.378     7485322.669       -3786.153          52.000
  24833946.883    -3192115.505        3508.533          43.000
  25148038.384    -1459211.009        3468.048          44.000
  23834098.676    -7503979.877        2906.712          45.000
 13 11  2 21 44  2.0000000  0 21G 7R 2R18R 9G 8R 1R10R17G 5R 3G15G16
                                G18G21G26G29G 9R24G27G22G 6
  25305228.355       49020.624        -627.793          40.000
  19474090.635    -4861987.301        1264.824          55.000
  21544429.220    -8973544.798        3510.499          49.000
  23608763.122      981032.829       -1413.798          46.000
  25304677.810    -1778490.570        1381.066          30.000
  20535142.158     4719473.800       -2723.196          53.000
  23527463.431    -4635673.084        1832.911          40.000
  19265692.434    -2105992.113           0.311          53.000
  23779145.319     7126541.591       -3300.277          48.000
  22861180.857    -7905685.282        4068.723          45.000
  21727189.911    -6363298.398        2152.647          52.000
  23780264.957     -588660.923        -528.625          46.000
  22283210.864    -6630747.569        2535.023          51.000
  21305223.834    -4273317.131        1504.631          51.000
  21369215.986    -2106458.691         -40.895          49.000
  22243256.765     6144105.505       -3135.946          48.000
  24406451.058    -3691091.368        1122.509          29.000
  21728757.563     7489108.950       -3786.188          52.000
  24833277.510    -3195624.030        3508.561          43.000
  25147378.052    -1462678.949        3468.202          44.000
  23833543.986    -7506886.483        2906.721          46.000
 13 11  2 21 44  3.0000000  0 21G 7R 2R18R 9G 8R 1R10R17G 5R 3G15G16
                                G18G21G26G29G 9R24G27G22G 6
  25305348.828       49649.233        -628.710          40.000
  19473852.334    -4863251.278        1263.841          55.000
  21543772.140    -8977054.684        3509.964          50.000
  23609030.192      982447.456       -1414.807          45.000
  25304413.706    -1779870.912        1380.257          30.000
  20535652.140     4722197.684       -2723.876          53.000
  23527118.273    -4637505.234        1831.978          39.000
  19265690.540    -2105991.572          -0.680          53.000
  23779772.594     7129842.328       -3300.543          48.000
  22860418.600    -7909753.374        4068.195          45.000
  21726778.388    -6365450.345        2151.906          52.000
  23780364.523     -588131.536        -529.443          46.000
  22282730.009    -6633281.987        2534.520          52.000
  21304936.822    -4274821.135        1504.152          51.000
  21369221.918    -2106416.972         -41.877          50.000
  22243854.555     6147242.080       -3136.557          48.000
  24406239.596    -3692213.044        1121.677          29.000
  21729465.855     7492895.808       -3786.796          52.000
  24832611.496    -3199132.199        3508.256          44.000
  25146719.721    -1466146.650        3467.925          44.000
  23832992.405    -7509792.584        2906.170          46.000
 13 11  2 21 44  4.0000000  0 21G 7R 2R18R 9G 8R 1R10R17G 5R 3G15G16
                                G18G21G26G29G 9R24G27G22G 6
  25305469.908       50278.340        -629.030          41.000
  19473616.355    -4864514.603        1263.386          55.000
  21543114.417    -8980564.294        3509.854          49.000
  23609293.546      983862.755       -1415.328          46.000
  25304157.321    -1781250.851        1380.096          30.000
  20536161.944     4724921.950       -2724.148          53.000
  23526772.651    -4639336.715        1831.442          40.000
  19265692.291    -2105990.316          -1.254          54.000
  23780401.333     7133143.106       -3300.453          49.000
  22859658.488    -7913821.331        4068.242          45.000
  21726370.223    -6367601.833        2151.605          53.000
  23780464.732     -587601.591        -529.839          46.000
  22282247.974    -6635816.223        2534.492          52.000
  21304650.882    -4276324.932        1504.055          51.000
  21369230.496    -2106374.531         -42.435          50.000
  22244452.274     6150378.895       -3136.597          49.000
  24406026.062    -3693334.162        1120.966          29.000
  21730173.326     7496682.960       -3786.938          52.000
  24831944.945    -3202640.266        3508.308          44.000
  25146059.568    -1469614.388        3468.129          45.000
  23832439.966    -7512698.450        2906.144          46.000
 13 11  2 21 44  5.0000000  0 21G 7R 2R18R 9G 8R 1R10R17G 5R 3G15G16
                                G18G21G26G29G 9R24G27G22G 6
  25305591.239       50908.065        -630.008          41.000
  19473379.627    -4865777.159        1262.284          55.000
  21542456.766    -8984073.483        3509.050          49.000
  23609556.042      985278.910       -1416.550          46.000
  25303891.895    -1782630.181        1378.967          31.000
  20536672.426     4727646.735       -2724.996          54.000
  23526426.349    -4641167.383        1830.371          40.000
  19265693.256    -2105988.173          -2.490          54.000
  23781028.429     7136444.060       -3301.012          49.000
  22858898.947    -7917888.987        4067.522          45.000
  21725959.700    -6369752.721        2150.615          53.000
  23780565.657     -587070.966        -530.940          46.000
  22281764.867    -6638350.128        2533.786          51.000
  21304365.513    -4277828.387        1503.343          51.000
  21369238.965    -2106331.239         -43.659          50.000
  22245048.671     6153516.107       -3137.361          49.000
  24405812.062    -3694454.582        1120.105          29.000
  21730881.296     7500470.568       -3787.782          52.000
  24831276.429    -3206148.064        3507.576          44.000
  25145398.557    -1473082.012        3467.609          44.000
  23831887.706    -7515603.918        2905.348          46.000
 13 11  2 21 44  6.0000000  0 21G 7R 2R18R 9G 8R 1R10R17G 5R 3G15G16
                                G18G21G26G29G 9R24G27G22G 6
  25305710.926       51538.405        -630.313          41.000
  19473143.934    -4867039.010        1261.873          55.000
  21541799.364    -8987582.262        3508.912          50.000
  23609821.719      986695.893       -1416.991          46.000
  25303627.683    -1784008.956        1378.744          31.000
  20537182.158     4730372.040       -2725.167          54.000
  23526081.798    -4642997.234        1829.749          39.000
  19265693.542    -2105985.162          -3.041          54.000
  23781658.026     7139745.165       -3300.847          49.000
  22858140.086    -7921956.348        4067.580          45.000
  21725552.072    -6371903.027        2150.375          53.000
  23780668.475     -586539.670        -531.291          46.000
  22281283.154    -6640883.718        2533.762          52.000
  21304078.823    -4279331.512        1503.320          51.000
  21369248.793    -2106287.086         -44.240          50.000
  22245647.676     6156653.698       -3137.420          49.000
  24405592.952    -3695574.286        1119.492          29.000
  21731590.446     7504258.610       -3787.882          52.000
  24830608.378    -3209655.667        3507.808          44.000
  25144737.868    -1476549.531        3467.807          44.000
  23831334.160    -7518509.006        2905.269          46.000
 13 11  2 21 44  7.0000000  0 21G 7R 2R18R 9G 8R 1R10R17G 5R 3G15G16
                                G18G21G26G29G 9R24G27G22G 6
  25305831.720       52169.204        -630.910          41.000
  19472907.884    -4868300.346        1261.201          55.000
  21541143.285    -8991090.811        3508.614          50.000
  23610087.967      988113.550       -1417.819          46.000
  25303365.009    -1785387.391        1378.640          31.000
  20537691.925     4733097.690       -2725.644          53.000
  23525741.894    -4644826.475        1829.151          39.000
  19265695.651    -2105981.499          -3.810          53.000
  23782286.729     7143046.267       -3300.957          48.000
  22857380.116    -7926023.601        4067.439          45.000
  21725141.907    -6374052.915        2149.886          53.000
  23780769.721     -586007.869        -531.951          45.000
  22280801.977    -6643417.176        2533.614          51.000
  21303792.311    -4280834.479        1503.086          51.000
  21369256.692    -2106242.264         -44.992          50.000
  22246243.143     6159791.497       -3137.717          48.000
  24405383.634    -3696693.478        1118.929          29.000
  21732298.846     7508046.909       -3788.260          52.000
  24829941.506    -3213163.195        3507.659          43.000
  25144078.430    -1480017.142        3467.900          44.000
  23830781.185    -7521413.880        2904.881          46.000
 13 11  2 21 44  8.0000000  0 21G 7R 2R18R 9G 8R 1R10R17G 5R 3G15G16
                                G18G21G26G29G 9R24G27G22G 6
  25305950.549       52800.753        -631.880          41.000
  19472671.835    -4869560.792        1260.000          55.000
  21540484.848    -8994598.815        3507.744          50.000
  23610354.108      989532.158       -1419.123          45.000
  25303106.373    -1786765.066        1377.264          31.000
  20538202.264     4735823.984       -2726.577          53.000
  23525397.022    -4646654.792        1828.021          39.000
  19265696.044    -2105976.900          -5.055          53.000
  23782913.861     7146347.646       -3301.477          48.000
  22856621.576    -7930090.431        4066.630          45.000
  21724735.851    -6376202.099        2148.844          53.000
  23780870.574     -585475.273        -532.994          46.000
  22280318.763    -6645950.186        2532.802          51.000
  21303506.549    -4282336.985        1502.283          51.000
  21369264.590    -2106196.471         -46.270          50.000
  22246840.898     6162929.797       -3138.556          49.000
  24405168.313    -3697811.920        1118.324          29.000
  21733008.353     7511835.762       -3789.126          52.000
  24829274.241    -3216670.365        3507.114          44.000
  25143418.455    -1483484.513        3467.365          45.000
  23830228.282    -7524318.255        2904.217          46.000
 13 11  2 21 44  9.0000000  0 21G 7R 2R18R 9G 8R 1R10R17G 5R 3G15G16
                                G18G21G26G29G 9R24G27G22G 6
  25306072.559       53432.945        -632.422          41.000
  19472435.213    -4870820.435        1259.283          55.000
  21539828.769    -8998106.417        3507.415          50.000
  23610620.178      990951.582       -1419.751          46.000
  25302840.446    -1788142.235        1376.935          31.000
  20538712.639     4738550.793       -2727.020          53.000
  23525055.473    -4648482.307        1827.150          39.000
  19265695.758    -2105971.499          -5.754          53.000
  23783541.993     7149649.185       -3301.587          48.000
  22855862.857    -7934156.996        4066.453          45.000
  21724326.829    -6378350.693        2148.329          53.000
  23780972.356     -584942.016        -533.550          46.000
  22279838.086    -6648482.886        2532.549          52.000
  21303220.037    -4283839.173        1502.077          51.000
  21369273.202    -2106149.839         -47.027          50.000
  22247437.973     6166068.469       -3138.813          49.000
  24404957.637    -3698929.513        1116.567          28.000
  21733717.539     7515625.032       -3789.464          52.000
  24828605.618    -3220177.295        3506.900          44.000
  25142760.804    -1486951.781        3467.115          45.000
  23829675.807    -7527222.273        2903.860          46.000
 13 11  2 21 44 10.0000000  0 21G 7R 2R18R 9G 8R 1R10R17G 5R 3G15G16
                                G18G21G26G29G 9R24G27G22G 6
  25306192.210       54065.781        -632.997          42.000
  19472200.914    -4872079.284        1258.598          55.000
  21539173.083    -9001613.596        3507.104          50.000
  23610885.747      992371.826       -1420.504          45.000
  25302574.841    -1789518.791        1376.318          30.000
  20539223.050     4741278.138       -2727.489          53.000
  23524711.745    -4650309.034        1826.486          39.000
  19265697.902    -2105965.235          -6.595          53.000
  23784171.089     7152950.904       -3301.620          48.000
  22855102.495    -7938223.275        4066.266          45.000
  21723917.021    -6380498.684        2147.862          53.000
  23781073.744     -584408.065        -534.081          46.000
  22279355.551    -6651015.255        2532.388          52.000
  21302935.348    -4285341.000        1501.801          51.000
  21369283.173    -2106102.337         -47.784          50.000
  22248035.406     6169207.538       -3139.086          49.000
  24404747.747                        1119.771          29.000
  21734426.332     7519414.749       -3789.817          52.000
  24827937.602    -3223683.969        3506.661          44.000
  25142097.434    -1490418.957        3467.254          45.000
  23829122.904    -7530125.884        2903.521          46.000
 13 11  2 21 44 11.0000000  0 21G 7R 2R18R 9G 8R 1R10R17G 5R 3G15G16
                                G18G21G26G29G 9R24G27G22G 6
  25306311.110       54699.162        -633.216          42.000
  19471963.113    -4873337.481        1258.330          55.000
  21538516.575    -9005120.442        3507.147          50.000
  23611153.568      993792.800       -1420.900          45.000
  25302314.024    -1790894.910        1376.519          30.000
  20539732.460     4744005.915       -2727.595          53.000
  23524367.266    -4652135.036        1826.111          39.000
  19265701.154    -2105958.185          -7.011          53.000
  23784798.471     7156252.713       -3301.376          49.000
  22854342.775    -7942289.341        4066.444          45.000
  21723507.856    -6382646.169        2147.684          53.000
  23781176.670     -583873.508        -534.474          46.000
  22278873.337    -6653547.387        2532.440          52.000
  21302650.159    -4286842.576        1501.906          51.000
  21369290.714    -2106054.066         -48.277          49.000
  22248633.089     6172346.919       -3139.172          49.000
  24404532.140                        1118.885          29.000
  21735136.304     7523204.796       -3789.763          52.000
  24827271.624    -3227190.506        3506.891          44.000
  25141441.105    -1493886.099        3467.584          45.000
  23828571.359    -7533029.214        2903.607          46.000
 13 11  2 21 44 12.0000000  0 21G 7R 2R18R 9G 8R 1R10R17G 5R 3G15G16
                                G18G21G26G29G 9R24G27G22G 6
  25306434.407       55332.857        -633.931          42.000
  19471729.565    -4874595.277        1257.577          55.000
  21537860.639    -9008627.171        3506.665          50.000
  23611419.066      995214.295       -1421.791          45.000
  25302049.491    -1792270.747        1375.920          30.000
  20540243.371     4746733.907       -2728.123          53.000
  23524025.789    -4653960.525        1825.167          39.000
  19265701.405    -2105950.606          -7.835          54.000
  23785426.460     7159554.392       -3301.644          48.000
  22853586.272    -7946355.431        4066.121          45.000
  21723099.263    -6384793.356        2146.984          53.000
  23781276.451     -583338.592        -535.143          46.000
  22278391.660    -6656079.504        2532.112          52.000
  21302363.647    -4288344.114        1501.451          51.000
  21369301.293    -2106005.245         -49.154          49.000
  22249231.845     6175486.367       -3139.513          49.000
  24404318.283                        1116.223          29.000
  21735845.382     7526994.964       -3790.217          52.000
  24826603.644    -3230697.084        3506.573          44.000
  25140778.879    -1497353.442        3467.427          44.000
  23828019.742    -7535932.458        2903.133          46.000
 13 11  2 21 44 13.0000000  0 21G 7R 2R18R 9G 8R 1R10R17G 5R 3G15G16
                                G18G21G26G29G 9R24G27G22G 6
  25306555.308       55967.118        -634.375          42.000
  19471493.694    -4875852.402        1256.891          55.000
  21537202.630    -9012133.533        3506.298          50.000
  23611687.423      996636.590       -1422.567          46.000
  25301788.032    -1793646.018        1375.231          30.000
  20540753.782     4749462.377       -2728.563          53.000
  23523684.562    -4655785.273        1824.453          39.000
  19265703.192    -2105942.245          -8.635          53.000
  23786055.128     7162856.173       -3301.691          48.000
  22852826.517    -7950421.284        4065.865          45.000
  21722689.991    -6386940.027        2146.600          53.000
  23781378.161     -582803.062        -535.657          45.000
  22277911.912    -6658611.369        2531.941          52.000
  21302078.028    -4289845.381        1501.285          51.000
  21369309.655    -2105955.644         -49.863          49.000
  22249829.135     6178626.141       -3139.776          49.000
  24404115.577    -3703399.1991       1114.755          29.000
  21736554.675     7530785.516       -3790.636          52.000
  24825938.095    -3234203.494        3506.411          44.000
  25140119.369    -1500820.736        3467.351          44.000
  23827466.124    -7538835.386        2902.900          47.000
 13 11  2 21 44 14.0000000  0 21G 7R 2R18R 9G 8R 1R10R17G 5R 3G15G16
                                G18G21G26G29G 9R24G27G22G 6
  25306676.389       56602.208        -635.580          42.000
  19471258.717    -4877108.573        1255.622          55.000
  21536545.586    -9015639.306        3505.410          50.000
  23611952.099      998059.910       -1423.897          46.000
  25301529.253    -1795020.580        1374.406          30.000
  20541263.621     4752191.548       -2729.607          53.000
  23523344.085    -4657609.074        1823.357          39.000
  19265705.872    -2105932.889          -9.929          53.000
  23786684.153     7166158.298       -3302.380          48.000
  22852065.940    -7954486.669        4065.081          45.000
  21722281.576    -6389085.917        2145.460          53.000
  23781481.730     -582266.667        -536.860          45.000
  22277428.877    -6661142.722        2531.046          51.000
  21301791.731    -4291346.127        1500.409          51.000
  21369318.340    -2105905.019         -51.172          49.000
  22250427.282     6181766.480       -3140.695          50.000
  24403904.472    -3704513.762        1114.637          29.000
  21737262.324     7534576.672       -3791.553          52.000
  24825271.366    -3237709.495        3505.845          43.000
  25139460.181    -1504287.760        3466.781          44.000
  23826912.899    -7541737.752        2902.036          46.000
 13 11  2 21 44 15.0000000  0 21G 7R 2R18R 9G 8R 1R10R17G 5R 3G15G16
                                G18G21G26G29G 9R24G27G22G 6
  25306797.362       57237.966        -635.681          42.000
  19471023.489    -4878363.904        1255.299          55.000
  21535888.792    -9019144.599        3505.485          50.000
  23612218.383      999484.127       -1424.330          46.000
  25301265.649    -1796394.486        1373.897          29.000
  20541774.282     4754921.310       -2729.660          54.000
  23523001.536    -4659431.993        1822.835          39.000
  19265705.336    -2105922.632         -10.299          53.000
  23787313.000     7169460.643       -3302.052          48.000
  22851306.900    -7958551.714        4065.268          45.000
  21721873.484    -6391231.157        2145.247          53.000
  23781583.226     -581729.540        -537.095          45.000
  22276948.379    -6663673.699        2531.172          51.000
  21301508.185    -4292846.480        1500.533          51.000
  21369328.311    -2105853.469         -51.599          50.000
  22251024.608     6184907.255       -3140.619          49.000
  24403691.974    -3705627.434        1114.131          28.000
  21737972.118     7538368.326       -3791.537          52.000
  24824603.243    -3241215.196        3506.058          44.000
  25138801.600    -1507754.618        3467.209          44.000
  23826362.676    -7544639.697        2902.170          46.000
